[[{"header":{"parameterUnit":"m.s-1","parameterCategory":1,"la1":31.0,"la2":29.5877,"lo1":-88.7671,"lo2":-86.6584,"dy":0.0162,"dx":0.0185,"nx":115,"ny":88,"refTime":"2023-11-20T12:00:00:Z","depth":0,"parameterNumber":2,"parameterNumberName":"U-component_of_WINDS"},"data":[0.0,0.0,0.0,0.0,0.0,0.0,0.0,0.0,0.0,0.0,0.0,0.0,0.0,0.0,0.0,0.0,0.0,0.0,0.0,0.0,0.0,0.0,0.0,0.0,0.0,0.0,0.0,0.0,0.0,0.0,0.0,0.0,0.0,0.0,0.0,0.0,0.0,0.0,0.0,0.0,0.0,0.0,0.0,0.0,0.0,0.0,0.0,0.0,0.0,0.0,0.0,0.0,0.0,0.0,0.0,0.0,0.0,0.0,0.0,0.0,0.0,0.0,0.0,0.0,0.0,0.0,0.0,0.0,0.0,0.0,0.0,0.0,0.0,0.0,0.0,0.0,0.0,0.0,0.0,0.0,0.0,0.0,0.0,0.0,0.0,0.0,0.0,0.0,0.0,0.0,0.0,0.0,0.0,0.0,0.0,0.0,0.0,0.0,0.0,0.0,0.0,0.0,0.0,0.0,0.0,0.0,0.0,0.0,0.0,0.0,0.0,0.0,0.0,0.0,0.0,0.0,0.0,0.0,0.0,0.0,0.0,0.0,0.0,0.0,0.0,0.0,0.0,0.0,0.0,0.0,0.0,0.0,0.0,0.0,0.0,0.0,0.0,0.0,0.0,0.0,0.0,0.0,0.0,0.0,0.0,0.0,0.0,0.0,0.0,0.0,0.0,0.0,0.0,0.0,0.0,0.0,0.0,0.0,0.0,0.0,0.0,0.0,0.0,0.0,0.0,0.0,0.0,0.0,0.0,0.0,0.0,0.0,0.0,0.0,0.0,0.0,0.0,0.0,0.0,0.0,0.0,0.0,0.0,0.0,0.0,0.0,0.0,0.0,0.0,0.0,0.0,0.0,0.0,0.0,0.0,0.0,0.0,0.0,0.0,0.0,0.0,0.0,0.0,0.0,0.0,0.0,0.0,0.0,0.0,0.0,0.0,0.0,0.0,0.0,0.0,0.0,0.0,0.0,0.0,0.0,0.0,0.0,0.0,0.0,0.0,0.0,0.0,0.0,0.0,0.0,0.0,0.0,0.0,0.0,0.0,0.0,0.0,0.0,0.0,0.0,0.0,0.0,0.0,0.0,0.0,0.0,0.0,0.0,0.0,0.0,0.0,0.0,0.0,0.0,0.0,0.0,0.0,0.0,0.0,0.0,0.0,0.0,0.0,0.0,0.0,0.0,0.0,0.0,0.0,0.0,0.0,0.0,0.0,0.0,0.0,0.0,0.0,0.0,0.0,0.0,0.0,0.0,0.0,0.0,0.0,0.0,0.0,0.0,0.0,0.0,0.0,0.0,0.0,0.0,0.0,0.0,0.0,0.0,0.0,0.0,0.0,0.0,0.0,0.0,0.0,0.0,0.0,0.0,0.0,0.0,0.0,0.0,0.0,0.0,0.0,0.0,0.0,0.0,0.0,0.0,0.0,0.0,0.0,0.0,0.0,0.0,0.0,0.0,0.0,0.0,0.0,0.0,0.0,0.0,0.0,0.0,0.0,0.0,0.0,0.0,0.0,0.0,0.0,0.0,0.0,0.0,0.0,0.0,0.0,0.0,0.0,0.0,0.0,0.0,0.0,0.0,0.0,0.0,0.0,0.0,0.0,0.0,0.0,0.0,0.0,0.0,0.0,0.0,0.0,0.0,0.0,0.0,0.0,0.0,0.0,0.0,0.0,0.0,0.0,0.0,0.0,0.0,0.0,0.0,0.0,0.0,0.0,0.0,0.0,0.0,0.0,0.0,0.0,0.0,0.0,0.0,0.0,0.0,0.0,0.0,0.0,0.0,0.0,0.0,0.0,0.0,0.0,0.0,0.0,0.0,0.0,0.0,0.0,0.0,0.0,0.0,0.0,0.0,0.0,0.0,0.0,0.0,0.0,0.0,0.0,0.0,0.0,0.0,0.0,0.0,0.0,0.0,0.0,0.0,0.0,0.0,0.0,0.0,0.0,0.0,0.0,0.0,0.0,0.0,0.0,0.0,0.0,0.0,0.0,0.0,0.0,0.0,0.0,0.0,0.0,0.0,0.0,0.0,0.0,0.0,0.0,0.0,0.0,0.0,0.0,0.0,0.0,0.0,0.0,0.0,0.0,0.0,0.0,0.0,0.0,0.0,0.0,0.0,0.0,0.0,0.0,0.0,0.0,0.0,0.0,0.0,0.0,0.0,0.0,0.0,0.0,0.0,0.0,0.0,0.0,0.0,0.0,0.0,0.0,0.0,0.0,0.0,0.0,0.0,0.0,0.0,0.0,0.0,0.0,0.0,0.0,0.0,0.0,0.0,0.0,0.0,0.0,0.0,0.0,0.0,0.0,0.0,0.0,0.0,0.0,0.0,0.0,0.0,0.0,0.0,0.0,0.0,0.0,0.0,0.0,0.0,0.0,0.0,0.0,0.0,0.0,0.0,0.0,0.0,0.0,0.0,0.0,0.0,0.0,0.0,0.0,0.0,0.0,0.0,0.0,0.0,0.0,0.0,0.0,0.0,0.0,0.0,0.0,0.0,0.0,0.0,0.0,0.0,0.0,0.0,0.0,0.0,0.0,0.0,0.0,0.0,0.0,0.0,0.0,0.0,0.0,0.0,0.0,0.0,0.0,0.0,0.0,0.0,0.0,0.0,0.0,0.0,0.0,0.0,0.0,0.0,0.0,0.0,0.0,0.0,0.0,0.0,0.0,0.0,0.0,0.0,0.0,0.0,0.0,0.0,0.0,0.0,0.0,0.0,0.0,0.0,0.0,0.0,0.0,0.0,0.0,0.0,0.0,0.0,0.0,0.0,0.0,0.0,0.0,0.0,0.0,0.0,0.0,0.0,0.0,0.0,0.0,0.0,0.0,0.0,0.0,0.0,0.0,0.0,0.0,0.0,0.0,0.0,0.0,0.0,0.0,0.0,0.0,0.0,0.0,0.0,0.0,0.0,0.0,0.0,0.0,0.0,0.0,0.0,0.0,0.0,0.0,0.0,0.0,0.0,0.0,0.0,0.0,0.0,0.0,0.0,0.0,0.0,0.0,0.0,0.0,0.0,0.0,0.0,0.0,0.0,0.0,0.0,0.0,0.0,0.0,0.0,0.0,0.0,0.0,0.0,0.0,0.0,0.0,0.0,0.0,0.0,0.0,0.0,0.0,0.0,0.0,0.0,0.0,0.0,0.0,0.0,0.0,0.0,0.0,0.0,0.0,0.0,0.0,0.0,0.0,0.0,0.0,0.0,0.0,0.0,0.0,0.0,0.0,0.0,0.0,0.0,0.0,0.0,0.0,0.0,0.0,0.0,0.0,0.0,0.0,0.0,0.0,0.0,0.0,0.0,0.0,0.0,0.0,0.0,0.0,0.0,0.0,0.0,0.0,0.0,0.0,0.0,0.0,0.0,0.0,0.0,0.0,0.0,0.0,0.0,0.0,0.0,0.0,0.0,0.0,0.0,0.0,0.0,0.0,0.0,0.0,0.0,0.0,0.0,0.0,0.0,0.0,0.0,0.0,0.0,0.0,0.0,0.0,0.0,0.0,0.0,0.0,0.0,0.0,0.0,0.0,0.0,0.0,0.0,0.0,0.0,0.0,0.0,0.0,0.0,0.0,0.0,0.0,0.0,0.0,0.0,0.0,0.0,0.0,0.0,0.0,0.0,0.0,0.0,0.0,0.0,0.0,0.0,0.0,0.0,0.0,0.0,0.0,0.0,0.0,0.0,0.0,0.0,0.0,0.0,0.0,0.0,0.0,0.0,0.0,0.0,0.0,0.0,0.0,0.0,0.0,0.0,0.0,0.0,0.0,0.0,0.0,0.0,0.0,0.0,0.0,0.0,0.0,0.0,0.0,0.0,0.0,0.0,0.0,0.0,0.0,0.0,0.0,0.0,0.0,0.0,0.0,0.0,0.0,0.0,0.0,0.0,0.0,0.0,0.0,0.0,0.0,0.0,0.0,0.0,0.0,0.0,0.0,0.0,0.0,0.0,0.0,0.0,0.0,0.0,0.0,0.0,0.0,0.0,0.0,0.0,0.0,0.0,0.0,0.0,0.0,0.0,0.0,0.0,0.0,0.0,0.0,0.0,0.0,0.0,0.0,0.0,0.0,0.0,0.0,0.0,0.0,0.0,0.0,0.0,0.0,0.0,0.0,0.0,0.0,0.0,0.0,0.0,0.0,0.0,0.0,0.0,0.0,0.0,0.0,0.0,0.0,0.0,0.0,0.0,0.0,0.0,0.0,0.0,0.0,0.0,0.0,0.0,0.0,0.0,0.0,0.0,0.0,0.0,0.0,0.0,0.0,0.0,0.0,0.0,2.8199,0.0,0.0,0.0,0.0,0.0,0.0,0.0,0.0,0.0,0.0,0.0,0.0,0.0,0.0,0.0,0.0,0.0,0.0,0.0,0.0,0.0,0.0,0.0,0.0,0.0,0.0,0.0,0.0,0.0,0.0,0.0,0.0,0.0,0.0,0.0,0.0,0.0,0.0,0.0,0.0,0.0,0.0,0.0,0.0,0.0,0.0,0.0,0.0,0.0,0.0,0.0,0.0,0.0,0.0,0.0,0.0,0.0,0.0,0.0,0.0,0.0,0.0,0.0,0.0,0.0,0.0,0.0,0.0,0.0,0.0,0.0,0.0,0.0,0.0,0.0,0.0,0.0,0.0,0.0,0.0,0.0,0.0,0.0,0.0,0.0,0.0,0.0,0.0,0.0,0.0,0.0,0.0,0.0,0.0,0.0,0.0,0.0,0.0,0.0,0.0,0.0,0.0,0.0,0.0,0.0,0.0,0.0,0.0,0.0,0.0,3.0009,2.9611,2.962,2.962,2.9606,0.0,0.0,0.0,0.0,0.0,0.0,0.0,0.0,0.0,0.0,0.0,0.0,0.0,0.0,0.0,0.0,0.0,0.0,0.0,0.0,0.0,0.0,0.0,0.0,0.0,0.0,0.0,0.0,0.0,0.0,0.0,0.0,0.0,0.0,0.0,0.0,0.0,0.0,0.0,0.0,0.0,0.0,0.0,0.0,0.0,0.0,0.0,0.0,0.0,0.0,0.0,0.0,0.0,0.0,0.0,0.0,0.0,0.0,0.0,0.0,0.0,0.0,0.0,0.0,0.0,0.0,0.0,0.0,0.0,0.0,0.0,0.0,0.0,0.0,0.0,0.0,0.0,0.0,0.0,0.0,0.0,0.0,0.0,0.0,0.0,0.0,0.0,0.0,0.0,0.0,0.0,0.0,0.0,0.0,0.0,0.0,0.0,0.0,0.0,0.0,0.0,0.0,0.0,0.0,0.0,0.0,0.0,0.0,0.0,0.0,0.0,0.0,3.0779,3.0784,3.0784,0.0,0.0,0.0,0.0,0.0,0.0,0.0,0.0,0.0,0.0,0.0,0.0,0.0,0.0,0.0,0.0,0.0,0.0,0.0,0.0,0.0,0.0,0.0,0.0,0.0,0.0,0.0,0.0,0.0,0.0,0.0,0.0,0.0,0.0,0.0,0.0,0.0,0.0,0.0,0.0,0.0,0.0,0.0,0.0,0.0,0.0,0.0,0.0,0.0,0.0,0.0,0.0,0.0,0.0,0.0,0.0,0.0,0.0,0.0,0.0,0.0,0.0,0.0,0.0,0.0,0.0,0.0,0.0,0.0,0.0,0.0,0.0,0.0,0.0,0.0,0.0,0.0,0.0,0.0,0.0,0.0,0.0,0.0,0.0,0.0,0.0,0.0,0.0,0.0,0.0,0.0,0.0,0.0,0.0,0.0,0.0,0.0,0.0,0.0,0.0,0.0,0.0,0.0,0.0,0.0,0.0,0.0,0.0,0.0,0.0,3.0779,3.0779,3.0779,0.0,3.0798,0.0,0.0,0.0,0.0,0.0,0.0,0.0,0.0,0.0,0.0,0.0,0.0,0.0,0.0,0.0,0.0,0.0,0.0,0.0,0.0,0.0,0.0,0.0,0.0,0.0,0.0,0.0,0.0,0.0,0.0,0.0,0.0,0.0,0.0,0.0,0.0,0.0,0.0,0.0,0.0,0.0,0.0,0.0,0.0,0.0,0.0,0.0,0.0,0.0,0.0,0.0,0.0,0.0,0.0,0.0,0.0,0.0,0.0,0.0,0.0,0.0,0.0,0.0,0.0,0.0,0.0,0.0,0.0,0.0,0.0,0.0,0.0,0.0,0.0,0.0,0.0,0.0,0.0,0.0,0.0,0.0,0.0,0.0,0.0,0.0,0.0,0.0,0.0,0.0,0.0,0.0,0.0,0.0,0.0,0.0,0.0,0.0,0.0,0.0,0.0,0.0,0.0,0.0,0.0,0.0,0.0,0.0,0.0,0.0,0.0,3.0779,3.0779,3.0779,3.0784,0.0,0.0,0.0,0.0,0.0,0.0,0.0,0.0,0.0,0.0,0.0,0.0,0.0,0.0,0.0,0.0,0.0,0.0,0.0,0.0,0.0,0.0,0.0,0.0,0.0,0.0,0.0,0.0,0.0,0.0,0.0,0.0,0.0,0.0,0.0,0.0,0.0,0.0,0.0,0.0,0.0,0.0,0.0,0.0,0.0,0.0,0.0,0.0,0.0,0.0,0.0,0.0,0.0,0.0,0.0,0.0,0.0,0.0,0.0,0.0,0.0,0.0,0.0,0.0,0.0,0.0,0.0,0.0,0.0,0.0,0.0,0.0,0.0,0.0,0.0,0.0,0.0,0.0,0.0,0.0,0.0,0.0,0.0,0.0,0.0,0.0,0.0,0.0,0.0,0.0,0.0,0.0,0.0,0.0,0.0,0.0,0.0,0.0,0.0,0.0,0.0,0.0,0.0,0.0,0.0,0.0,0.0,0.0,0.0,0.0,3.0779,3.0779,3.0779,3.0779,3.0779,3.0779,0.0,0.0,0.0,0.0,0.0,0.0,0.0,0.0,0.0,0.0,0.0,0.0,0.0,0.0,0.0,0.0,0.0,0.0,0.0,0.0,0.0,0.0,0.0,0.0,0.0,0.0,0.0,0.0,0.0,0.0,0.0,0.0,0.0,0.0,0.0,0.0,0.0,0.0,0.0,0.0,0.0,0.0,0.0,0.0,0.0,0.0,0.0,0.0,0.0,0.0,0.0,0.0,0.0,0.0,0.0,0.0,0.0,0.0,0.0,0.0,0.0,0.0,0.0,0.0,0.0,0.0,0.0,0.0,0.0,0.0,0.0,0.0,0.0,0.0,0.0,0.0,0.0,0.0,0.0,0.0,0.0,0.0,0.0,0.0,0.0,0.0,0.0,0.0,0.0,0.0,0.0,0.0,0.0,0.0,0.0,0.0,0.0,0.0,0.0,0.0,0.0,0.0,0.0,0.0,0.0,0.0,0.0,0.0,3.0818,3.0813,3.0813,3.0857,3.0818,3.0818,0.0,0.0,0.0,0.0,0.0,0.0,0.0,0.0,0.0,0.0,0.0,0.0,0.0,0.0,0.0,0.0,0.0,0.0,0.0,0.0,0.0,0.0,0.0,0.0,0.0,0.0,0.0,0.0,0.0,0.0,0.0,0.0,0.0,0.0,0.0,0.0,0.0,0.0,0.0,0.0,0.0,0.0,0.0,0.0,0.0,0.0,0.0,0.0,0.0,0.0,0.0,0.0,0.0,0.0,0.0,0.0,0.0,0.0,0.0,0.0,0.0,0.0,0.0,0.0,0.0,0.0,0.0,0.0,0.0,0.0,0.0,0.0,0.0,0.0,0.0,0.0,0.0,0.0,0.0,0.0,0.0,0.0,0.0,0.0,0.0,0.0,0.0,0.0,0.0,0.0,0.0,0.0,0.0,0.0,0.0,0.0,0.0,0.0,0.0,0.0,0.0,0.0,0.0,0.0,0.0,0.0,0.0,0.0,0.0,3.1665,3.2143,3.2421,3.246,3.2455,3.2221,0.0,0.0,0.0,0.0,0.0,0.0,0.0,0.0,0.0,0.0,0.0,0.0,0.0,0.0,0.0,0.0,0.0,0.0,0.0,0.0,0.0,0.0,0.0,0.0,0.0,0.0,0.0,0.0,0.0,0.0,0.0,0.0,0.0,0.0,0.0,0.0,0.0,0.0,0.0,0.0,0.0,0.0,0.0,0.0,0.0,0.0,0.0,0.0,0.0,0.0,0.0,0.0,0.0,0.0,0.0,0.0,0.0,0.0,0.0,0.0,0.0,0.0,0.0,0.0,0.0,0.0,0.0,0.0,0.0,0.0,0.0,0.0,0.0,0.0,0.0,0.0,0.0,0.0,0.0,0.0,0.0,0.0,0.0,0.0,0.0,0.0,0.0,0.0,0.0,0.0,0.0,0.0,0.0,0.0,0.0,0.0,0.0,0.0,0.0,0.0,0.0,0.0,0.0,0.0,0.0,0.0,0.0,0.0,0.0,3.2517,0.0,3.3361,3.3395,3.339,3.3112,0.0,0.0,0.0,0.0,0.0,0.0,0.0,0.0,0.0,0.0,0.0,0.0,0.0,0.0,0.0,0.0,0.0,0.0,0.0,0.0,0.0,0.0,0.0,0.0,0.0,0.0,0.0,0.0,0.0,0.0,0.0,0.0,0.0,0.0,0.0,0.0,0.0,0.0,0.0,0.0,0.0,0.0,0.0,0.0,0.0,0.0,0.0,0.0,0.0,0.0,0.0,0.0,0.0,0.0,0.0,0.0,0.0,0.0,0.0,0.0,0.0,0.0,0.0,0.0,0.0,0.0,0.0,0.0,0.0,0.0,0.0,0.0,0.0,0.0,0.0,0.0,0.0,0.0,0.0,0.0,0.0,0.0,0.0,0.0,0.0,0.0,0.0,0.0,0.0,0.0,0.0,0.0,0.0,0.0,0.0,0.0,0.0,0.0,0.0,0.0,0.0,0.0,0.0,0.0,0.0,0.0,0.0,0.0,3.2594,3.3334,3.3468,3.3634,3.3478,3.3546,3.3457,0.0,0.0,0.0,0.0,0.0,0.0,0.0,0.0,0.0,0.0,0.0,0.0,0.0,0.0,0.0,0.0,0.0,0.0,0.0,0.0,0.0,0.0,0.0,0.0,0.0,0.0,0.0,0.0,0.0,0.0,0.0,0.0,0.0,0.0,0.0,0.0,0.0,0.0,0.0,0.0,0.0,0.0,0.0,0.0,0.0,0.0,0.0,0.0,0.0,0.0,0.0,0.0,0.0,0.0,0.0,0.0,0.0,0.0,0.0,0.0,0.0,0.0,0.0,0.0,0.0,0.0,0.0,0.0,0.0,0.0,0.0,0.0,0.0,0.0,0.0,0.0,0.0,0.0,0.0,0.0,0.0,0.0,0.0,0.0,0.0,0.0,0.0,0.0,0.0,0.0,0.0,0.0,0.0,0.0,0.0,0.0,0.0,0.0,0.0,0.0,0.0,0.0,0.0,0.0,0.0,0.0,0.0,0.0,0.0,3.6016,3.6601,3.6918,3.6894,3.6328,3.5733,0.0,0.0,0.0,0.0,0.0,0.0,0.0,0.0,0.0,0.0,0.0,0.0,0.0,0.0,0.0,0.0,0.0,0.0,0.0,0.0,0.0,0.0,0.0,0.0,0.0,0.0,0.0,0.0,0.0,0.0,0.0,0.0,0.0,0.0,0.0,0.0,0.0,0.0,0.0,0.0,0.0,0.0,0.0,0.0,0.0,0.0,0.0,0.0,0.0,0.0,0.0,0.0,0.0,0.0,0.0,0.0,0.0,0.0,0.0,0.0,0.0,0.0,0.0,0.0,0.0,0.0,0.0,0.0,0.0,0.0,0.0,0.0,0.0,0.0,0.0,0.0,0.0,0.0,0.0,0.0,0.0,0.0,0.0,0.0,0.0,0.0,0.0,0.0,0.0,0.0,0.0,0.0,0.0,0.0,0.0,0.0,0.0,0.0,0.0,0.0,0.0,0.0,0.0,0.0,0.0,0.0,0.0,0.0,0.0,3.9165,3.9351,3.9468,3.9472,3.8644,3.7726,3.6845,0.0,0.0,0.0,0.0,0.0,0.0,0.0,0.0,0.0,0.0,0.0,0.0,0.0,0.0,0.0,0.0,0.0,0.0,0.0,0.0,0.0,0.0,0.0,0.0,0.0,0.0,0.0,0.0,0.0,0.0,0.0,0.0,0.0,0.0,0.0,0.0,0.0,0.0,0.0,0.0,0.0,0.0,0.0,0.0,0.0,0.0,0.0,0.0,0.0,0.0,0.0,0.0,0.0,0.0,0.0,0.0,0.0,0.0,0.0,0.0,0.0,0.0,0.0,0.0,0.0,0.0,0.0,0.0,0.0,0.0,0.0,0.0,0.0,0.0,0.0,0.0,0.0,0.0,0.0,0.0,0.0,0.0,0.0,0.0,0.0,0.0,0.0,0.0,0.0,0.0,0.0,0.0,0.0,0.0,0.0,0.0,0.0,0.0,0.0,0.0,0.0,0.0,0.0,0.0,0.0,0.0,0.0,0.0,4.2502,4.1792,4.1349,4.1217,4.0437,3.9563,0.0,0.0,0.0,0.0,0.0,0.0,0.0,0.0,0.0,0.0,0.0,0.0,0.0,0.0,0.0,0.0,0.0,0.0,0.0,0.0,0.0,0.0,0.0,0.0,0.0,0.0,0.0,0.0,0.0,0.0,0.0,0.0,0.0,0.0,0.0,0.0,0.0,0.0,0.0,0.0,0.0,0.0,0.0,0.0,0.0,0.0,0.0,0.0,0.0,0.0,0.0,0.0,0.0,0.0,0.0,0.0,0.0,0.0,0.0,0.0,0.0,0.0,0.0,0.0,0.0,0.0,0.0,0.0,0.0,0.0,0.0,0.0,0.0,0.0,0.0,0.0,0.0,0.0,0.0,0.0,0.0,0.0,0.0,0.0,0.0,0.0,0.0,0.0,0.0,0.0,0.0,0.0,0.0,0.0,0.0,0.0,0.0,0.0,0.0,0.0,0.0,0.0,0.0,0.0,0.0,0.0,0.0,0.0,0.0,4.4259,4.4731,4.4337,4.3075,4.2805,4.2227,0.0,0.0,0.0,0.0,0.0,0.0,0.0,0.0,0.0,0.0,0.0,0.0,0.0,0.0,0.0,0.0,0.0,0.0,0.0,0.0,0.0,0.0,0.0,0.0,0.0,0.0,0.0,0.0,0.0,0.0,0.0,0.0,0.0,0.0,0.0,0.0,0.0,0.0,0.0,0.0,0.0,0.0,0.0,0.0,0.0,0.0,0.0,0.0,0.0,0.0,0.0,0.0,0.0,0.0,0.0,0.0,0.0,0.0,0.0,0.0,0.0,0.0,0.0,0.0,0.0,0.0,0.0,0.0,0.0,0.0,0.0,0.0,0.0,0.0,0.0,0.0,0.0,0.0,0.0,0.0,0.0,0.0,0.0,0.0,0.0,0.0,0.0,0.0,0.0,0.0,0.0,0.0,0.0,0.0,0.0,0.0,0.0,0.0,0.0,0.0,0.0,0.0,0.0,0.0,0.0,0.0,0.0,0.0,4.4875,4.6566,4.7081,4.6878,4.5845,4.4787,4.3583,0.0,0.0,0.0,0.0,0.0,0.0,0.0,0.0,0.0,0.0,0.0,0.0,0.0,0.0,0.0,0.0,0.0,0.0,0.0,0.0,0.0,0.0,0.0,0.0,0.0,0.0,0.0,0.0,0.0,0.0,0.0,0.0,0.0,0.0,0.0,0.0,0.0,0.0,0.0,0.0,0.0,0.0,0.0,0.0,0.0,0.0,0.0,0.0,0.0,0.0,0.0,0.0,0.0,0.0,0.0,0.0,0.0,0.0,0.0,0.0,0.0,0.0,0.0,0.0,0.0,0.0,0.0,0.0,0.0,0.0,0.0,0.0,0.0,0.0,0.0,0.0,0.0,0.0,0.0,0.0,0.0,0.0,0.0,0.0,0.0,0.0,0.0,0.0,0.0,0.0,0.0,0.0,0.0,0.0,0.0,0.0,0.0,0.0,0.0,0.0,0.0,0.0,0.0,0.0,0.0,0.0,0.0,0.0,4.7151,4.8876,4.8841,4.8829,4.8878,4.6664,4.4603,0.0,0.0,0.0,0.0,0.0,0.0,0.0,0.0,0.0,0.0,0.0,0.0,0.0,0.0,0.0,0.0,0.0,0.0,0.0,0.0,0.0,0.0,0.0,0.0,0.0,0.0,0.0,0.0,0.0,0.0,0.0,0.0,0.0,0.0,0.0,0.0,0.0,0.0,0.0,0.0,0.0,0.0,0.0,0.0,0.0,0.0,0.0,0.0,0.0,0.0,0.0,0.0,0.0,0.0,0.0,0.0,0.0,0.0,0.0,0.0,0.0,0.0,0.0,0.0,0.0,0.0,0.0,0.0,0.0,0.0,0.0,0.0,0.0,0.0,0.0,0.0,0.0,0.0,0.0,0.0,0.0,0.0,0.0,0.0,0.0,0.0,0.0,0.0,0.0,0.0,0.0,0.0,0.0,0.0,0.0,0.0,0.0,0.0,0.0,0.0,0.0,0.0,0.0,0.0,0.0,0.0,0.0,0.0,4.742,4.9735,4.915,4.9142,4.9814,4.9276,4.8156,0.0,0.0,0.0,0.0,0.0,0.0,0.0,0.0,0.0,0.0,0.0,0.0,0.0,0.0,0.0,0.0,0.0,0.0,0.0,0.0,0.0,0.0,0.0,0.0,0.0,0.0,0.0,0.0,0.0,0.0,0.0,0.0,0.0,0.0,0.0,0.0,0.0,0.0,0.0,0.0,0.0,0.0,0.0,0.0,0.0,0.0,0.0,0.0,3.9477,0.0,0.0,0.0,0.0,0.0,0.0,0.0,0.0,0.0,0.0,0.0,0.0,0.0,0.0,0.0,0.0,0.0,0.0,0.0,0.0,0.0,0.0,0.0,0.0,0.0,0.0,0.0,0.0,0.0,0.0,0.0,0.0,0.0,0.0,0.0,0.0,0.0,0.0,0.0,0.0,0.0,0.0,0.0,0.0,0.0,0.0,0.0,0.0,0.0,0.0,0.0,0.0,0.0,0.0,0.0,0.0,0.0,0.0,0.0,4.9536,5.1258,5.1258,5.1288,5.1341,5.1317,4.9886,0.0,0.0,0.0,0.0,0.0,0.0,0.0,0.0,0.0,0.0,0.0,0.0,0.0,0.0,0.0,0.0,0.0,0.0,0.0,0.0,0.0,0.0,0.0,0.0,0.0,0.0,0.0,0.0,0.0,0.0,0.0,0.0,0.0,0.0,0.0,0.0,0.0,0.0,0.0,0.0,0.0,0.0,0.0,0.0,0.0,0.0,0.0,0.0,0.0,0.0,0.0,0.0,0.0,0.0,0.0,0.0,0.0,0.0,0.0,0.0,0.0,0.0,0.0,0.0,0.0,0.0,0.0,0.0,0.0,0.0,0.0,0.0,0.0,0.0,0.0,0.0,0.0,0.0,0.0,0.0,0.0,0.0,0.0,0.0,0.0,0.0,0.0,0.0,0.0,0.0,0.0,0.0,0.0,0.0,0.0,0.0,0.0,0.0,0.0,0.0,0.0,0.0,0.0,0.0,0.0,0.0,0.0,4.9961,5.1999,5.2858,5.3639,5.363,5.2902,5.2578,5.0719,4.712,0.0,0.0,0.0,0.0,0.0,0.0,0.0,0.0,0.0,0.0,0.0,0.0,0.0,0.0,0.0,0.0,0.0,0.0,0.0,0.0,0.0,0.0,0.0,0.0,0.0,0.0,0.0,0.0,0.0,0.0,0.0,0.0,0.0,0.0,0.0,0.0,0.0,0.0,3.7616,3.9426,0.0,0.0,0.0,0.0,0.0,0.0,0.0,0.0,4.4754,0.0,0.0,0.0,0.0,0.0,0.0,0.0,0.0,0.0,0.0,0.0,0.0,0.0,0.0,0.0,0.0,0.0,0.0,0.0,0.0,0.0,0.0,0.0,0.0,0.0,0.0,0.0,0.0,0.0,0.0,0.0,0.0,0.0,0.0,0.0,0.0,0.0,0.0,0.0,0.0,0.0,0.0,0.0,0.0,0.0,0.0,0.0,0.0,0.0,0.0,0.0,0.0,0.0,0.0,0.0,0.0,4.9445,5.1449,5.2897,5.3756,5.3912,5.3947,5.3738,5.2361,5.1239,5.0377,0.0,0.0,0.0,0.0,0.0,0.0,0.0,0.0,0.0,0.0,0.0,0.0,0.0,0.0,0.0,0.0,0.0,0.0,0.0,0.0,0.0,0.0,0.0,0.0,0.0,0.0,0.0,0.0,0.0,0.0,0.0,0.0,0.0,0.0,0.0,0.0,0.0,0.0,0.0,4.2602,4.4207,0.0,0.0,0.0,0.0,0.0,0.0,0.0,0.0,4.5566,0.0,0.0,0.0,0.0,0.0,0.0,0.0,0.0,0.0,0.0,0.0,0.0,0.0,0.0,0.0,0.0,0.0,0.0,0.0,0.0,0.0,0.0,0.0,0.0,0.0,0.0,0.0,0.0,0.0,0.0,0.0,0.0,0.0,0.0,0.0,0.0,0.0,0.0,0.0,0.0,0.0,0.0,0.0,0.0,0.0,0.0,0.0,0.0,0.0,0.0,0.0,0.0,0.0,0.0,0.0,4.9411,5.2034,5.36,5.399,5.399,5.3986,5.3977,5.3142,5.2461,0.0,0.0,0.0,0.0,0.0,0.0,0.0,0.0,0.0,0.0,0.0,0.0,0.0,0.0,0.0,0.0,0.0,0.0,0.0,0.0,0.0,0.0,0.0,0.0,0.0,0.0,0.0,0.0,0.0,0.0,0.0,0.0,0.0,0.0,0.0,0.0,0.0,0.0,0.0,0.0,4.428,4.5958,4.6865,0.0,0.0,0.0,0.0,0.0,0.0,4.8716,4.771,0.0,0.0,0.0,0.0,0.0,0.0,0.0,0.0,0.0,0.0,0.0,0.0,0.0,0.0,0.0,0.0,0.0,0.0,0.0,0.0,0.0,0.0,0.0,0.0,0.0,0.0,0.0,0.0,0.0,0.0,0.0,0.0,0.0,0.0,0.0,0.0,0.0,0.0,0.0,0.0,0.0,0.0,0.0,0.0,0.0,0.0,0.0,0.0,0.0,0.0,0.0,0.0,0.0,0.0,0.0,4.9606,5.2854,5.4459,5.4264,5.442,5.4455,5.425,5.4195,5.3748,0.0,0.0,0.0,0.0,0.0,0.0,0.0,0.0,0.0,0.0,0.0,0.0,0.0,0.0,0.0,0.0,0.0,0.0,0.0,0.0,0.0,0.0,0.0,0.0,0.0,0.0,0.0,0.0,0.0,0.0,0.0,0.0,0.0,0.0,0.0,0.0,0.0,0.0,0.0,0.0,0.0,4.7279,4.8811,4.9334,0.0,0.0,0.0,0.0,5.1491,5.0821,0.0,0.0,0.0,0.0,0.0,0.0,0.0,0.0,0.0,0.0,0.0,0.0,0.0,0.0,0.0,0.0,0.0,0.0,0.0,0.0,0.0,0.0,0.0,0.0,0.0,0.0,0.0,0.0,0.0,0.0,0.0,0.0,0.0,0.0,0.0,0.0,0.0,0.0,0.0,0.0,0.0,0.0,0.0,0.0,0.0,0.0,0.0,0.0,0.0,0.0,0.0,0.0,0.0,0.0,0.0,0.0,5.2234,5.4927,5.5942,5.524,5.5903,5.5942,5.5162,5.5098,5.4645,0.0,0.0,0.0,0.0,0.0,0.0,0.0,0.0,0.0,0.0,0.0,0.0,0.0,0.0,0.0,0.0,0.0,0.0,0.0,0.0,0.0,0.0,0.0,0.0,0.0,0.0,0.0,0.0,0.0,0.0,0.0,0.0,0.0,0.0,0.0,0.0,0.0,0.0,0.0,0.0,0.0,4.8839,4.9814,5.1193,5.2216,0.0,0.0,5.3221,5.2581,5.171,0.0,0.0,0.0,0.0,0.0,0.0,0.0,0.0,0.0,0.0,0.0,0.0,0.0,0.0,0.0,0.0,0.0,0.0,0.0,0.0,0.0,0.0,0.0,0.0,0.0,0.0,0.0,0.0,0.0,0.0,0.0,0.0,0.0,0.0,0.0,0.0,0.0,0.0,0.0,0.0,0.0,0.0,0.0,0.0,0.0,0.0,0.0,0.0,0.0,0.0,0.0,0.0,0.0,0.0,0.0,4.9835,5.1999,5.5005,5.6177,5.5357,5.6138,5.6411,5.602,5.5962,5.5087,0.0,0.0,0.0,0.0,0.0,0.0,0.0,0.0,0.0,0.0,0.0,0.0,0.0,0.0,0.0,0.0,0.0,0.0,0.0,0.0,0.0,0.0,0.0,0.0,0.0,0.0,0.0,0.0,0.0,0.0,0.0,0.0,0.0,0.0,0.0,0.0,0.0,0.0,0.0,0.0,0.0,0.0,5.1258,5.2115,0.0,0.0,0.0,5.4061,5.4675,0.0,0.0,0.0,0.0,0.0,0.0,0.0,0.0,0.0,0.0,0.0,0.0,0.0,0.0,0.0,0.0,0.0,0.0,0.0,0.0,0.0,0.0,0.0,0.0,0.0,0.0,0.0,0.0,0.0,0.0,0.0,0.0,0.0,0.0,0.0,0.0,0.0,0.0,0.0,0.0,0.0,0.0,0.0,0.0,0.0,0.0,0.0,0.0,0.0,0.0,0.0,0.0,0.0,0.0,0.0,0.0,0.0,5.239,5.5352,5.668,5.6294,5.6879,5.7231,5.7231,5.6748,0.0,0.0,0.0,0.0,0.0,0.0,0.0,0.0,0.0,0.0,0.0,0.0,0.0,0.0,0.0,0.0,0.0,0.0,0.0,0.0,0.0,0.0,0.0,0.0,0.0,0.0,0.0,3.9189,0.0,0.0,0.0,0.0,0.0,0.0,0.0,0.0,0.0,0.0,0.0,0.0,0.0,0.0,5.0199,5.2305,5.2957,5.3662,0.0,0.0,5.4821,5.5882,5.4484,5.3033,0.0,0.0,0.0,0.0,0.0,0.0,0.0,0.0,0.0,0.0,0.0,0.0,0.0,0.0,0.0,0.0,0.0,0.0,0.0,0.0,0.0,0.0,0.0,0.0,0.0,0.0,0.0,0.0,0.0,0.0,0.0,0.0,0.0,0.0,0.0,0.0,0.0,0.0,0.0,0.0,0.0,0.0,0.0,0.0,0.0,0.0,0.0,0.0,0.0,0.0,0.0,0.0,0.0,0.0,0.0,5.4966,5.6831,5.808,5.8792,5.8909,5.8948,5.8909,5.7361,5.6446,0.0,0.0,0.0,0.0,0.0,0.0,0.0,0.0,0.0,0.0,0.0,0.0,0.0,0.0,0.0,0.0,0.0,0.0,0.0,0.0,0.0,0.0,0.0,0.0,0.0,0.0,0.0,0.0,0.0,0.0,0.0,0.0,0.0,0.0,0.0,0.0,0.0,0.0,0.0,0.0,0.0,5.1479,5.2448,5.3922,5.4977,0.0,0.0,5.5969,5.5298,5.5124,5.4216,5.1902,0.0,0.0,0.0,0.0,0.0,0.0,0.0,0.0,0.0,0.0,0.0,0.0,0.0,0.0,0.0,0.0,0.0,0.0,0.0,0.0,0.0,0.0,0.0,0.0,0.0,0.0,0.0,0.0,0.0,0.0,0.0,0.0,0.0,0.0,0.0,0.0,0.0,0.0,0.0,0.0,0.0,0.0,0.0,0.0,0.0,0.0,0.0,0.0,0.0,0.0,0.0,0.0,0.0,5.2874,5.5231,5.8002,5.9295,5.9143,6.0159,6.0432,5.992,5.9246,5.8169,0.0,0.0,0.0,0.0,0.0,0.0,0.0,0.0,0.0,0.0,0.0,0.0,0.0,0.0,0.0,0.0,0.0,0.0,0.0,0.0,0.0,0.0,0.0,0.0,0.0,0.0,0.0,0.0,4.7233,4.7991,4.7201,0.0,0.0,0.0,0.0,0.0,0.0,0.0,0.0,0.0,0.0,5.1843,5.3206,5.4351,0.0,0.0,5.6173,5.6271,5.5939,5.5521,5.4885,5.3949,5.2917,0.0,0.0,0.0,0.0,0.0,0.0,0.0,0.0,0.0,0.0,0.0,0.0,0.0,0.0,0.0,0.0,0.0,0.0,0.0,0.0,0.0,0.0,0.0,0.0,0.0,0.0,0.0,0.0,0.0,0.0,0.0,0.0,0.0,0.0,0.0,0.0,0.0,0.0,0.0,0.0,0.0,0.0,0.0,0.0,0.0,0.0,0.0,0.0,0.0,0.0,0.0,0.0,5.439,5.6352,5.9017,6.0232,5.9885,6.1095,6.1408,6.0817,6.03,5.9254,0.0,0.0,0.0,0.0,0.0,0.0,0.0,0.0,0.0,0.0,0.0,0.0,0.0,0.0,0.0,0.0,0.0,0.0,0.0,0.0,0.0,0.0,0.0,0.0,0.0,0.0,0.0,0.0,4.8844,4.9174,4.8106,0.0,0.0,0.0,0.0,0.0,0.0,0.0,0.0,0.0,0.0,5.2922,5.4126,5.4974,5.5735,5.6339,5.6388,5.6407,5.6433,5.5964,5.5522,5.5343,0.0,0.0,0.0,0.0,0.0,0.0,0.0,0.0,0.0,0.0,0.0,0.0,0.0,0.0,0.0,0.0,0.0,0.0,0.0,0.0,0.0,0.0,0.0,0.0,0.0,0.0,0.0,0.0,0.0,0.0,0.0,0.0,0.0,0.0,0.0,0.0,0.0,0.0,0.0,0.0,0.0,0.0,0.0,0.0,0.0,0.0,0.0,0.0,0.0,0.0,0.0,0.0,0.0,5.6413,5.8967,5.9943,6.0846,6.1603,6.1681,6.172,6.1681,6.0054,5.9467,6.0126,0.0,0.0,0.0,0.0,0.0,0.0,0.0,0.0,0.0,0.0,0.0,0.0,0.0,0.0,0.0,0.0,0.0,0.0,0.0,0.0,0.0,0.0,0.0,0.0,0.0,0.0,5.0938,5.1268,5.0663,0.0,0.0,0.0,0.0,0.0,0.0,0.0,0.0,0.0,0.0,5.3432,5.5038,5.5139,5.5833,5.6417,5.6533,5.6464,5.6472,5.6527,5.6524,5.6202,0.0,0.0,0.0,0.0,0.0,0.0,0.0,0.0,0.0,0.0,0.0,0.0,0.0,0.0,0.0,0.0,0.0,0.0,0.0,0.0,0.0,0.0,0.0,0.0,0.0,0.0,0.0,4.5863,4.5781,0.0,0.0,0.0,0.0,0.0,0.0,0.0,0.0,0.0,0.0,0.0,5.2663,5.2386,0.0,0.0,0.0,0.0,0.0,0.0,0.0,0.0,0.0,0.0,0.0,0.0,5.7356,5.9904,6.1398,6.2262,6.2579,6.3125,6.3399,6.336,6.2239,6.1222,6.0302,0.0,0.0,0.0,0.0,0.0,0.0,0.0,0.0,0.0,0.0,0.0,0.0,0.0,0.0,0.0,0.0,0.0,0.0,0.0,0.0,0.0,0.0,0.0,0.0,0.0,5.1405,0.0,0.0,0.0,0.0,0.0,0.0,0.0,0.0,0.0,0.0,0.0,5.1415,5.2855,5.4234,5.5124,5.5121,5.6359,5.7264,0.0,0.0,0.0,0.0,0.0,0.0,0.0,0.0,0.0,0.0,0.0,0.0,0.0,0.0,5.0298,4.9087,4.8733,4.8579,4.8448,0.0,0.0,0.0,0.0,0.0,0.0,0.0,0.0,0.0,0.0,0.0,0.0,0.0,0.0,0.0,0.0,4.8907,0.0,0.0,0.0,0.0,0.0,0.0,0.0,0.0,5.4364,5.4952,5.5807,5.5762,5.5798,0.0,5.4892,5.3352,0.0,0.0,0.0,0.0,0.0,0.0,0.0,0.0,5.8994,6.0411,6.2418,6.3438,6.3477,6.3979,6.4253,6.4179,6.3631,6.2639,6.1227,5.9532,5.7242,0.0,0.0,0.0,0.0,0.0,0.0,0.0,0.0,0.0,0.0,0.0,0.0,0.0,0.0,0.0,0.0,0.0,0.0,0.0,0.0,0.0,0.0,0.0,5.3244,0.0,0.0,0.0,0.0,0.0,0.0,0.0,0.0,0.0,5.1896,5.2562,5.3514,5.4624,5.574,5.6441,5.6475,0.0,0.0,0.0,0.0,0.0,0.0,0.0,5.91,5.9131,5.9056,5.8796,5.8137,5.6975,5.5913,5.5249,0.0,0.0,5.1705,5.1147,5.1028,5.1147,5.1026,5.1005,5.1474,5.1442,5.1532,0.0,0.0,0.0,0.0,0.0,0.0,0.0,0.0,5.278,5.3253,0.0,5.3132,0.0,0.0,0.0,0.0,0.0,0.0,0.0,0.0,5.7489,5.8396,5.9101,5.9059,5.9092,5.9053,5.8258,5.7933,5.7777,5.5416,0.0,0.0,0.0,0.0,0.0,0.0,6.1309,6.069,6.3081,6.4336,6.4336,6.4325,6.4281,6.4253,6.4193,6.3702,6.2863,6.1256,5.9521,5.7675,5.4385,0.0,0.0,0.0,0.0,0.0,0.0,0.0,0.0,0.0,0.0,0.0,0.0,0.0,0.0,0.0,0.0,0.0,0.0,0.0,0.0,5.4074,0.0,0.0,0.0,0.0,0.0,0.0,0.0,0.0,0.0,0.0,5.3135,5.4879,5.6453,5.6464,0.0,0.0,0.0,0.0,5.9035,5.9035,5.9147,5.9201,5.9209,5.9202,5.9217,5.9202,0.0,0.0,5.8787,5.8683,5.8471,5.828,5.7939,5.6931,5.3593,5.2883,5.2878,5.3376,5.3353,5.3674,5.4913,5.4724,5.4785,5.6023,0.0,0.0,0.0,0.0,5.3933,5.3977,5.3717,5.4927,5.5602,5.5846,5.5573,0.0,0.0,0.0,0.0,0.0,0.0,5.7372,5.8435,5.871,5.8945,5.9219,5.9179,5.9179,5.9178,5.9514,6.0007,6.0592,6.0487,5.9468,5.7695,0.0,0.0,0.0,0.0,6.2173,6.3199,6.4531,6.5234,6.5238,6.5769,6.5751,6.5145,6.5056,6.4637,6.3741,6.2689,6.1004,5.8665,5.7025,0.0,0.0,0.0,0.0,0.0,0.0,0.0,0.0,0.0,0.0,0.0,0.0,0.0,0.0,0.0,0.0,0.0,0.0,0.0,5.5782,5.5967,5.5891,0.0,0.0,0.0,0.0,0.0,0.0,0.0,0.0,0.0,5.6998,5.7192,5.7503,0.0,0.0,5.8909,5.8978,5.9551,5.9966,5.9981,0.0,0.0,0.0,6.0967,6.0937,6.0879,6.0779,6.045,5.9708,5.9455,5.9125,5.8322,5.7992,5.7466,5.6445,5.594,5.5761,5.5755,5.5548,5.5393,5.5643,5.548,5.5312,5.8148,5.6698,5.6152,5.5962,5.605,5.6592,5.6519,5.6098,5.7125,5.7762,5.8084,5.7771,5.8082,5.8864,5.8001,0.0,0.0,0.0,5.9176,5.9687,6.039,6.0703,6.0742,6.1055,6.1211,6.125,6.1713,6.2209,6.2744,6.3611,6.322,6.1733,0.0,0.0,6.2969,6.316,6.3589,6.4336,6.5468,6.6087,6.6082,6.6525,6.6533,6.5991,6.5933,6.5494,6.4647,6.4101,6.2961,6.11,5.9822,5.748,0.0,0.0,0.0,0.0,0.0,0.0,0.0,0.0,0.0,0.0,0.0,4.6046,4.8592,0.0,0.0,0.0,5.4667,5.6257,5.7906,5.7586,0.0,0.0,0.0,0.0,0.0,0.0,0.0,5.7351,5.7764,5.8325,5.9257,5.9254,5.9238,5.9443,5.9755,5.996,5.9991,0.0,6.0824,6.0878,6.1322,6.171,6.1711,6.1719,6.1662,6.1573,6.1456,6.1196,6.0536,6.0287,5.9903,5.923,5.8852,5.8749,5.8887,5.8651,5.811,5.7267,5.6883,5.6705,5.6756,5.6522,5.6235,5.93,5.93,5.93,5.9222,5.9104,5.9104,5.9104,5.9109,5.9165,5.9645,6.0351,5.9687,5.9805,6.0469,5.9726,0.0,0.0,6.0273,6.0586,6.0664,6.2265,6.2969,6.293,6.3711,6.4101,6.4062,6.414,6.4216,6.4193,6.5121,6.5633,6.569,6.497,6.414,6.3438,6.4804,6.5234,6.4531,6.6014,6.6784,6.6798,6.6741,6.6712,6.6712,6.6712,6.6322,6.5543,6.5426,6.4977,6.4099,6.2558,6.0538,5.8064,0.0,0.0,0.0,0.0,0.0,0.0,0.0,0.0,0.0,0.0,0.0,0.0,0.0,0.0,0.0,5.7776,0.0,5.8916,5.8908,0.0,0.0,0.0,5.8231,5.9018,5.8392,5.8226,5.8988,0.0,0.0,6.0319,0.0,6.1195,6.0394,6.0973,6.1489,6.1489,6.15,6.1603,6.1526,6.1627,6.1744,6.187,6.1974,6.2017,6.1899,6.1642,6.1594,6.1387,6.1211,6.1027,6.072,6.0484,6.0425,6.0997,6.064,5.9965,5.8273,5.7872,5.7818,5.807,5.7904,5.7558,6.1095,6.1095,6.1095,6.0315,5.9104,5.9104,5.9104,5.9143,5.9829,6.0192,6.043,6.0898,6.1211,6.1367,6.1172,6.1484,6.2109,6.2305,6.2383,6.2422,6.2812,6.2656,6.2031,6.2226,6.2305,6.2383,6.3008,6.332,6.3396,6.486,6.5936,6.6566,6.699,6.6756,6.5936,6.5702,6.5819,6.6209,6.66,6.6823,6.6791,6.6741,6.6712,6.6712,6.6712,6.6595,6.64,6.5745,6.4994,6.4137,6.3651,6.2497,6.0604,6.0281,0.0,0.0,0.0,0.0,0.0,0.0,0.0,0.0,0.0,5.2304,5.4893,0.0,5.7081,0.0,5.8498,5.9026,5.9774,5.927,0.0,0.0,5.9279,5.8861,5.91,5.8895,5.9074,5.9896,6.0185,6.0522,6.1122,6.1351,6.1412,6.1206,6.1373,6.1539,6.1559,6.1564,6.1588,6.1627,6.1732,6.1963,6.2577,6.3208,6.3535,6.3492,6.3351,6.3247,6.3029,6.2832,6.2631,6.2404,6.2102,6.1923,6.1873,6.1506,6.0961,6.0295,5.9973,5.9736,5.9443,5.9009,5.8589,6.172,6.172,6.172,6.1369,6.0783,6.0432,6.0237,6.0315,6.0767,6.1207,6.1601,6.25,6.2851,6.2851,6.2851,6.3125,6.3594,6.3555,6.3594,6.3594,6.3984,6.3906,6.3476,6.3828,6.4219,6.4609,6.5078,6.5508,6.5898,6.6823,6.7546,6.8005,6.8083,6.8044,6.7966,6.7498,6.7498,6.7966,6.7955,6.789,6.7898,6.7862,6.7686,6.7296,6.7236,6.7069,6.6691,6.6229,6.5711,6.5244,6.4805,6.3975,6.2666,6.2549,6.1381,0.0,0.0,0.0,0.0,0.0,0.0,0.0,0.0,0.0,0.0,0.0,5.9774,0.0,6.1026,6.125,6.1797,6.146,6.144,6.1976,6.1658,6.1403,6.1406,6.1412,6.158,6.2002,6.2045,6.2172,6.2597,6.2658,6.2679,6.2668,6.2668,6.2562,6.227,6.2469,6.2765,6.2758,6.2792,6.2993,6.3473,6.389,6.4189,6.413,6.3998,6.3812,6.3628,6.3433,6.3182,6.2949,6.2579,6.2429,6.2518,6.2178,6.1794,6.1883,6.1654,6.1003,5.9917,5.933,5.8876,6.1876,6.1876,6.1993,6.2462,6.3086,6.2345,6.2032,6.2032,6.2016,6.2457,6.3203,6.3945,6.4297,6.4297,6.4297,6.4375,6.4453,6.4453,6.4453,6.4492,6.5273,6.5625,6.5625,6.6367,6.7187,6.8008,6.8047,6.8398,6.9062,6.9174,6.9277,6.9372,6.8747,6.8864,6.9684,6.9723,6.9645,6.9405,6.9341,6.9311,6.9323,6.9304,6.8933,6.8221,6.8098,6.7735,6.7046,6.6944,6.6932,6.6893,6.6192,6.54,6.4558,6.4401,6.3284,0.0,6.208,0.0,0.0,0.0,0.0,0.0,0.0,0.0,0.0,6.072,6.2323,6.3773,6.3895,6.3884,6.3949,6.4037,6.412,6.4189,6.4263,6.4292,6.4297,6.432,6.4281,6.4193,6.4224,6.4168,6.4042,6.4091,6.4091,6.4003,6.413,6.3994,6.3448,6.3756,6.4084,6.4193,6.4325,6.4371,6.4392,6.4489,6.4559,6.4442,6.4419,6.4123,6.4033,6.3836,6.3578,6.3282,6.2943,6.2778,6.3236,6.2807,6.2621,6.2925,6.2595,6.1782,6.0375,5.9617,5.8973,6.2774,6.2813,6.3516,6.3906,6.4023,6.3867,6.3789,6.3794,6.3813,6.3902,6.4062,6.4219,6.4297,6.4297,6.4297,6.4687,6.5351,6.5351,6.5351,6.5351,6.5547,6.5625,6.5625,6.5781,6.6328,6.7109,6.7148,6.7226,6.7383,6.8041,6.8691,6.9411,6.9957,7.066,7.148,0.0,0.0,0.0,6.9334,6.9311,6.9323,6.9304,6.9195,6.8966,6.8968,0.0,6.8722,6.8656,6.8628,6.8628,6.8482,0.0,0.0,0.0,0.0,0.0,0.0,0.0,0.0,0.0,0.0,0.0,6.2818,6.208,6.107,6.2468,6.3556,6.3876,6.3909,6.3962,6.4064,6.4087,6.413,6.4185,6.4255,6.4307,6.4296,6.432,6.4281,6.4209,6.4201,6.4185,6.4179,6.4159,6.4198,6.4257,6.4773,6.5143,6.5026,6.4575,6.424,6.4268,6.4831,6.523,6.516,6.5714,6.5983,6.605,6.5911,6.5759,6.5565,6.5318,6.512,6.4785,6.4436,6.4103,6.3955,6.3504,6.3076,6.2915,6.2479,6.1897,6.1296,6.0769,6.026,6.3633,0.0,6.4101,6.4531,0.0,6.4921,6.5194,6.5512,6.4672,6.4527,6.4961,6.539,6.5586,6.5586,6.5586,6.582,6.625,6.668,6.6875,6.6914,6.7305,6.75,6.75,6.75,6.793,6.875,6.8789,6.9023,6.9414,6.9838,7.0253,7.0699,7.1128,7.1558,7.1987,7.1982,7.1501,7.0622,7.0598,7.058,7.0513,7.0541,7.0325,6.9924,0.0,0.0,0.0,0.0,0.0,0.0,0.0,0.0,0.0,0.0,0.0,6.7153,6.6742,6.6314,6.5887,6.5498,6.5211,6.5196,6.4792,6.421,6.3308,6.407,6.4714,6.5149,6.5206,6.5258,6.531,6.5395,6.5455,6.5449,6.5529,6.5531,6.5585,6.5567,6.5535,6.5517,6.5503,6.5449,6.5367,6.5406,6.5406,6.5406,6.5766,6.6096,6.6112,6.5769,6.5478,6.5524,6.5859,6.6141,6.6135,6.6351,6.6594,6.6523,6.6379,6.6245,6.6069,6.5866,6.559,6.5179,6.4857,6.4445,6.4063,6.36,6.3194,6.2768,6.2255,6.1712,6.1257,6.0843,6.0371,6.4531,6.4531,6.4687,6.5155,6.5819,6.5819,6.6214,6.6805,0.0,0.0,0.0,6.6562,6.6992,6.7109,6.7109,6.7187,6.7383,6.8086,6.8398,6.8476,6.9101,6.9453,6.9492,6.9414,6.9844,7.0703,7.0703,7.1132,7.199,7.1984,7.201,7.1993,7.1987,7.1987,7.1987,7.193,7.1909,7.1893,7.1906,7.1887,7.1817,7.1817,7.1505,7.0831,7.0756,7.0363,6.9681,6.957,6.9539,6.9539,6.9539,6.9461,6.9344,6.9306,6.9267,6.9111,6.9111,6.9111,6.9056,6.7736,6.6904,6.6855,6.6161,6.5674,6.5468,6.5397,6.5691,6.6415,6.6542,6.6581,6.6594,6.6712,6.6798,6.6783,6.6823,6.6796,6.6867,6.6852,6.6751,6.6811,6.672,6.6775,6.6633,6.6624,6.6732,6.6711,6.6603,6.6736,6.6805,6.6733,6.6678,6.6717,6.6708,6.6817,6.6798,6.6712,6.6633,6.6506,6.6379,6.6224,6.6013,6.582,6.5532,6.5145,6.4746,6.4331,6.3944,6.3505,6.3039,6.2595,6.2096,6.1487,6.0903,6.0415,5.9995,6.5429,6.5468,6.617,6.6522,6.6639,6.6639,6.6731,6.6862,6.6639,6.6601,6.6719,6.6836,6.7305,6.8008,6.8008,6.8398,6.9023,6.918,6.9258,0.0,6.9453,6.9453,6.9414,6.9414,6.9844,7.0664,7.0703,7.1128,7.1928,7.1975,7.201,7.1993,7.1987,7.1987,7.1987,7.1916,7.1893,7.1893,7.1906,7.1887,7.1817,7.1817,7.1767,7.1653,7.1576,7.1496,7.135,7.128,7.1248,7.1248,7.1248,7.0937,7.0183,7.0121,6.9849,6.9173,6.9095,6.9095,6.9062,6.8774,6.8601,6.8566,6.8431,6.7772,6.6355,6.6228,6.6283,6.6422,6.6606,6.6594,6.663,6.678,6.6906,6.6876,6.6862,6.6874,6.6908,6.693,6.6985,6.6934,6.6811,6.683,6.6876,6.6876,6.6915,6.6798,6.7017,6.6889,6.6979,6.6829,6.6891,6.6913,6.6862,6.6795,6.6733,6.6672,6.6581,6.6428,6.6303,6.6165,6.5936,6.5731,6.5444,6.5069,6.4709,6.4251,6.3738,6.3325,6.2855,6.2384,6.1876,6.1315,6.0757,6.01,5.9482,6.6249,6.6288,6.6639,6.6795,6.6834,6.7303,6.7781,6.8261,6.828,6.8047,6.7656,6.8047,6.8515,6.8906,6.8906,6.9101,6.9453,6.9922,6.9883,6.9492,6.9922,6.9883,6.9492,6.9414,6.9609,7.0,7.0508,7.0931,7.129,7.1768,7.1997,7.1987,7.1987,7.1982,7.1937,7.1909,7.1885,7.1915,7.1887,7.1827,7.1817,7.1817,7.1806,7.1809,7.1732,7.1704,7.1699,7.1614,7.1598,7.1598,7.1598,7.1442,7.1054,7.1015,7.0843,7.0502,7.0443,7.0404,7.0368,6.9903,6.9419,6.8974,6.8917,6.8607,6.7885,6.7803,6.7836,6.7836,6.7981,6.7995,6.8008,6.8115,6.8171,6.8195,6.8229,6.8241,6.8195,6.8219,6.8239,6.8228,6.8177,6.8163,6.8156,6.8171,6.8163,6.8132,6.817,6.8189,6.8189,6.8195,6.7871,6.707,6.6826,6.6848,6.6784,6.6681,6.6594,6.6484,6.6303,6.6105,6.5874,6.5678,6.5413,6.5031,6.4634,6.4209,6.3718,6.3262,6.2792,6.2223,6.1708,6.1176,6.045,5.945,5.8562,6.6795,6.6795,6.7029,6.7224,6.742,6.7898,6.8523,6.9108,6.9138,6.8828,6.8359,6.9062,6.957,6.9765,6.957,6.957,6.9805,7.0195,7.0039,6.9531,7.0117,6.9961,6.9297,6.9336,6.9414,6.9492,7.0273,7.0814,7.106,7.168,7.1987,7.1987,7.1987,7.1982,7.1884,7.1901,7.1924,7.1897,7.1827,7.1817,7.1817,7.1817,7.1806,7.1809,7.1718,7.169,7.1699,7.163,7.1598,7.1598,7.1598,7.1598,7.1598,7.1581,7.1586,7.1591,7.1571,7.1532,7.1455,7.0855,7.0176,6.9537,6.9479,6.9518,6.9574,6.9571,6.939,6.9166,6.9097,6.9137,6.9122,6.9216,6.9358,6.938,6.9408,6.9294,6.9367,6.939,6.9405,6.9405,6.9341,6.9295,6.9366,6.9341,6.9245,6.9249,6.9348,6.9399,6.9393,6.9405,6.8773,6.789,6.7414,6.7507,6.7383,6.7374,6.7307,6.7082,6.698,6.684,6.6568,6.6254,6.5925,6.5644,6.5238,6.4882,6.4294,6.3833,6.335,6.2763,6.2269,6.1483,6.0478,5.9354,5.8073,6.6834,6.6912,6.7654,6.8435,6.9025,6.8418,6.83,6.841,6.8357,6.8281,6.8437,6.914,6.9922,7.043,6.9726,6.9805,7.043,6.9844,6.9492,6.9414,6.9453,6.9101,6.8515,6.9062,6.9414,6.9492,7.0269,7.1083,7.1702,7.1919,7.1987,7.1987,7.1987,7.1982,7.1884,7.1901,7.1924,7.1897,7.1827,7.1817,7.1817,7.1817,7.1806,7.1809,7.1753,7.1669,7.1675,7.163,7.1598,7.1598,7.1598,7.1598,7.1598,7.1603,7.1589,7.1572,7.1533,7.1494,7.1494,7.1317,7.1141,7.1182,7.1145,7.1145,7.1201,7.126,7.0681,6.96,6.9228,6.9356,6.9304,6.9382,6.9536,6.9634,6.957,6.939,6.9527,6.9397,6.9399,6.938,6.9575,6.9373,6.9545,6.9536,6.9475,6.9639,6.9685,6.9699,6.9673,6.9678,6.9616,6.9254,6.9174,6.9126,6.9021,6.9021,6.8721,6.8652,6.853,6.8214,6.7903,6.7648,6.7502,6.6673,6.6553,6.6074,6.5672,6.5337,6.4672,6.3653,6.2995,6.2364,6.1013,5.9851,5.8806,6.7576,6.7654,6.8513,6.9372,7.004,6.9788,6.9953,7.0423,7.0429,7.0469,7.0469,7.082,7.0625,7.0,6.957,6.9609,6.9883,6.957,6.9453,6.9453,6.9453,6.9258,6.8984,6.9258,6.9453,6.9453,7.0267,7.0887,7.1275,7.1724,7.1987,7.1987,7.1987,7.1976,7.1909,7.1893,7.1876,7.1838,7.1827,7.1817,7.1817,7.1794,7.177,7.1732,7.1723,7.1692,7.163,7.1614,7.1598,7.1598,7.162,7.1603,7.1598,7.1568,7.1533,7.1492,7.1394,7.1355,7.1394,7.1355,7.1376,7.1455,7.1494,7.1513,7.1571,7.1607,7.127,7.0795,7.0667,7.0706,7.0754,7.0805,7.084,7.0915,7.0935,7.0929,7.092,7.0917,7.0948,7.0922,7.0902,7.0856,7.0848,7.0832,7.0823,7.0853,7.0823,7.0793,7.0848,7.0915,7.0938,7.0956,7.0937,7.044,6.9724,6.9333,6.9223,6.9094,6.8894,6.8682,6.8482,6.8109,6.7774,6.7427,6.7074,6.663,6.5905,6.5509,6.4911,6.404,6.2823,6.1813,6.0711,5.9852,5.8819,6.8435,6.8591,6.9411,7.027,7.1016,7.0803,7.105,7.1562,7.1406,7.1289,7.1328,7.1523,7.1015,6.9922,6.9765,6.9883,7.0078,6.9922,6.9961,7.0117,6.9961,6.9805,6.9765,6.9805,6.9804,6.9918,7.065,7.1073,7.1112,7.1646,7.1987,7.1987,7.1982,7.1969,7.1893,7.1885,7.1867,7.1827,7.1817,7.1817,7.1806,7.1809,7.1771,7.1718,7.1684,7.1675,7.1598,7.1598,7.1598,7.162,7.1586,7.1607,7.1603,7.1513,7.1435,7.139,7.1352,7.1313,7.1313,7.1394,7.1435,7.1494,7.1513,7.155,7.1586,7.1624,7.1675,7.1626,7.1718,7.1706,7.1817,7.1876,7.1909,7.1995,7.1981,7.1989,7.1967,7.201,7.1924,7.1976,7.176,7.1901,7.1901,7.1789,7.1711,7.1721,7.1799,7.1897,7.1906,7.1877,7.1903,7.1987,7.195,7.1478,7.0362,7.0185,6.9957,6.9824,6.9761,6.9593,6.9162,6.8848,6.8526,6.8603,6.7799,6.7223,6.6898,6.6257,6.524,6.4072,6.2883,6.1838,6.1197,6.0181,5.9218,6.9372,6.9489,7.027,7.1128,7.187,7.1073,7.0738,7.0898,7.0156,6.9765,7.0039,7.0625,7.0781,7.0781,7.082,7.1133,7.164,7.0976,7.1094,7.168,7.1055,7.0664,7.0625,7.0625,7.0699,7.0948,7.1568,7.1914,7.1914,7.1987,7.1987,7.1987,7.1937,7.1916,7.1893,7.1915,7.1848,7.1817,7.1817,7.1806,7.1809,7.1732,7.1718,7.1704,7.1684,7.1675,7.1598,7.1598,7.162,7.1589,7.1589,7.1589,7.1494,7.1455,7.1355,7.1313,7.1334,7.1415,7.1394,7.1412,7.1433,7.1475,7.1532,7.1609,7.1609,7.1624,7.1669,7.1679,7.1745,7.1833,7.1867,7.1893,7.1924,7.1982,7.1984,7.1991,7.1981,7.2002,7.1969,7.194,7.1901,7.1893,7.1906,7.1856,7.1844,7.1866,7.1827,7.1827,7.1867,7.1901,7.1924,7.1987,7.201,7.195,7.1827,7.1416,7.1438,7.1265,7.086,7.1028,7.0913,7.0671,7.0233,6.9739,6.9046,6.8503,6.8123,6.732,6.6125,6.4977,6.3659,6.2638,6.1593,6.092,5.9965,7.0543,7.1089,7.1402,7.1714,7.1948,7.1646,7.1512,7.1562,7.1836,7.1914,7.207,7.2812,7.3203,7.3164,7.3203,7.2734,7.2031,7.168,7.1992,7.2734,7.25,7.2656,7.3164,7.3203,7.3197,7.3169,7.2963,7.2534,7.2026,7.1987,7.1987,7.1987,7.193,7.1916,7.1893,7.1906,7.1887,7.1817,7.1794,7.1821,7.1809,7.1718,7.1675,7.1675,7.1669,7.1636,7.1598,7.1603,7.1586,7.1589,7.1513,7.1436,7.1436,7.1376,7.1352,7.1313,7.1355,7.1415,7.1415,7.1451,7.1472,7.1571,7.1586,7.1603,7.1603,7.162,7.1661,7.1719,7.1749,7.1819,7.1867,7.1885,7.1955,7.1987,7.1981,7.1992,7.1975,7.1993,7.1976,7.194,7.1885,7.1848,7.1817,7.177,7.1745,7.177,7.1758,7.177,7.1794,7.1838,7.1885,7.1924,7.1958,7.1942,7.1992,7.1903,7.1848,7.1731,7.1529,7.1319,7.1147,7.0821,7.0362,6.9889,6.9542,6.8908,6.8136,6.6955,6.5966,6.4972,6.3788,6.2821,6.1997,6.0936,6.0033,7.148,7.1948,7.1987,7.1987,7.2065,7.23,7.2404,7.2539,7.3359,7.3711,7.3906,7.4648,7.5039,7.5078,7.5312,7.4844,7.3711,7.3437,7.3711,7.4492,7.4258,7.4453,7.4883,7.4724,7.4595,7.4491,7.4017,7.3275,7.2495,7.2417,7.226,7.1987,7.193,7.1901,7.1885,7.1858,7.1838,7.1817,7.1821,7.1809,7.1745,7.1729,7.1699,7.1684,7.1636,7.1581,7.162,7.1586,7.1589,7.1513,7.1455,7.1376,7.1358,7.1334,7.133,7.1313,7.1394,7.1415,7.1435,7.1492,7.1533,7.1589,7.1603,7.1598,7.1636,7.1636,7.1675,7.1731,7.176,7.1828,7.1876,7.1885,7.1948,7.1976,7.201,7.1992,7.1975,7.2002,7.1982,7.194,7.1877,7.1794,7.1758,7.1718,7.169,7.169,7.169,7.169,7.1704,7.1731,7.1827,7.1885,7.1937,7.1928,7.199,7.1978,7.1909,7.1838,7.1679,7.1469,7.1236,7.0889,7.0532,7.0073,6.9501,6.8825,6.7834,6.6591,6.559,6.4704,6.3608,6.2591,6.1642,6.0685,5.9749,7.1987,7.1987,7.2026,7.2104,7.2221,7.2969,7.3306,7.3437,7.4258,7.4609,7.4726,7.5547,7.5898,7.6055,7.6601,7.6992,7.6601,7.5937,7.6015,7.6719,7.6133,7.582,7.5859,7.5216,7.4804,7.472,7.4642,7.4134,7.3354,7.3275,7.2885,7.2099,7.2034,7.2002,7.1906,7.1838,7.1817,7.1806,7.1782,7.1784,7.1718,7.1831,7.184,7.1792,7.1797,7.1801,7.1723,7.1666,7.1668,7.159,7.157,7.1433,7.1545,7.1623,7.1528,7.1626,7.1531,7.1533,7.163,7.1707,7.1803,7.1723,7.1698,7.173,7.1692,7.1692,7.1723,7.1771,7.1794,7.1848,7.1885,7.1893,7.194,7.1995,7.2006,7.199,7.1989,7.1981,7.1963,7.1924,7.1844,7.1784,7.1704,7.1645,7.1614,7.1669,7.1614,7.1614,7.1684,7.1718,7.1794,7.1827,7.1846,7.1897,7.1939,7.1992,7.1963,7.1893,7.1782,7.1591,7.1319,7.1029,7.0652,7.0247,6.9771,6.9095,6.8051,6.6861,6.5931,6.4883,6.3664,6.2618,6.1733,6.0794,5.9627,7.1987,7.2065,7.2651,7.2885,7.3008,7.3817,7.4217,7.4297,7.5117,7.5469,7.5664,7.6406,7.6797,7.6836,7.7109,7.7187,7.7187,7.6914,7.6953,7.707,7.6875,7.6758,7.6719,7.6501,7.6086,7.5579,7.5462,7.4993,7.429,7.4134,7.3666,7.2957,7.2775,7.247,7.1984,7.1838,7.1806,7.1782,7.1745,7.199,7.2492,7.2539,7.278,7.3229,7.3333,7.3277,7.3161,7.2638,7.2597,7.3041,7.3115,7.3093,7.3093,7.3158,7.3158,7.3115,7.3219,7.3258,7.32,7.3237,7.3001,7.2669,7.2563,7.2228,7.1777,7.1753,7.1796,7.186,7.1838,7.1876,7.1885,7.1916,7.1969,7.1976,7.1978,7.1992,7.1971,7.1948,7.1924,7.1893,7.1806,7.1718,7.1645,7.162,7.1568,7.1568,7.155,7.155,7.1568,7.1598,7.1622,7.1679,7.1767,7.1924,7.2104,7.2257,7.2302,7.2216,7.2043,7.1885,7.1591,7.134,7.0948,7.051,7.0037,6.9286,6.8257,6.7256,6.6372,6.5508,6.4564,6.3444,6.2306,6.1037,5.9812,7.2495,7.2573,7.3393,7.3744,7.3906,7.4722,7.4883,7.4765,7.5508,7.5703,7.5586,7.5976,7.625,7.625,7.625,7.625,7.625,7.6523,7.6719,7.6797,7.7109,7.7187,7.7187,7.7172,7.6917,7.6438,7.632,7.5813,7.5032,7.4948,7.4545,7.3821,7.364,7.3427,7.2823,7.2479,7.2417,7.2653,7.2419,7.2624,7.3255,7.3385,7.3601,7.3989,7.4033,7.4149,7.4281,7.3872,7.3695,7.3889,7.3883,7.3883,7.3883,7.3911,7.3971,7.3932,7.3974,7.4034,7.4072,7.4031,7.3967,7.3518,7.3434,7.3285,7.2794,7.2691,7.2731,7.2791,7.2511,7.2344,7.2361,7.2096,7.2008,7.1987,7.1978,7.199,7.1993,7.1924,7.1901,7.1867,7.177,7.1699,7.162,7.1513,7.1475,7.1435,7.1415,7.1415,7.1396,7.1455,7.1547,7.163,7.1667,7.1955,7.2331,7.25,7.265,7.2525,7.2409,7.2225,7.203,7.1915,7.1647,7.1242,7.078,7.0012,6.9008,6.8094,6.7196,6.6408,6.5357,6.3852,6.2486,6.1257,5.9981,7.3315,7.3471,7.4251,7.4603,7.4764,7.5581,7.5586,7.5039,7.5664,7.5664,7.5078,7.5195,7.5,7.4805,7.5117,7.5039,7.4805,7.5469,7.5937,7.6172,7.664,7.707,7.7187,7.7139,7.7048,7.699,7.6984,7.6594,7.5891,7.5879,7.5443,7.4634,7.4499,7.441,7.4077,7.3496,7.3522,7.3938,7.3455,7.3449,7.4211,7.4222,7.4264,7.4377,7.4324,7.4608,7.5144,7.5121,7.4773,7.4193,7.4231,7.4309,7.4115,7.4077,7.4259,7.4382,7.4206,7.4383,7.4381,7.4572,7.4416,7.4328,7.432,7.4296,7.4145,7.4003,7.4029,7.4077,7.3553,7.3193,7.3111,7.2721,7.2307,7.211,7.2064,7.2027,7.2002,7.1924,7.187,7.1799,7.1757,7.1642,7.1552,7.1394,7.133,7.1269,7.1247,7.1286,7.1523,7.1626,7.163,7.1836,7.219,7.2523,7.3064,7.322,7.3359,7.3359,7.3169,7.3018,7.2741,7.2615,7.2276,7.1929,7.1562,7.0723,6.9888,6.9093,6.8115,6.7069,6.5767,6.4118,6.2811,6.1688,6.0449,7.3627,7.4251,7.511,7.5501,7.5662,7.643,7.6678,7.6523,7.668,7.6562,7.6445,7.6523,7.5976,7.5586,7.5508,7.5234,7.4765,7.4844,7.5351,7.5859,7.6094,7.664,7.7094,7.7133,7.7087,7.7107,7.7101,7.6984,7.6789,7.6692,7.6253,7.548,7.5385,7.5034,7.4427,7.4236,7.4133,7.43,7.4102,7.4289,7.4994,7.5098,7.5353,7.5915,7.5795,7.5847,7.6088,7.6049,7.6011,7.5779,7.574,7.574,7.5647,7.5714,7.5718,7.5718,7.5838,7.5954,7.5991,7.5988,7.5788,7.5244,7.5191,7.4962,7.4378,7.4379,7.4404,7.4361,7.4177,7.4133,7.4133,7.3914,7.3564,7.2969,7.2494,7.208,7.1924,7.187,7.1823,7.175,7.1718,7.1666,7.1562,7.1439,7.1364,7.1299,7.1299,7.1389,7.1902,7.2167,7.2258,7.2964,7.3413,7.3596,7.3819,7.3987,7.4125,7.4197,7.4177,7.4109,7.3805,7.3502,7.3014,7.2503,7.2486,7.1861,7.1064,7.0274,6.9104,6.784,6.6633,6.5225,6.3799,6.2524,6.1158,7.4642,7.511,7.6008,7.636,7.6443,7.6935,7.6948,7.668,7.664,7.6445,7.6172,7.6094,7.5859,7.539,7.5351,7.4883,7.418,7.4453,7.4648,7.4844,7.5547,7.6388,7.6995,7.7122,7.7078,7.7101,7.7101,7.7101,7.7056,7.7075,7.6751,7.6387,7.627,7.5959,7.5534,7.5067,7.5079,7.523,7.5043,7.515,7.5931,7.5954,7.607,7.6475,7.6488,7.6421,7.6397,7.6359,7.6397,7.6359,7.6359,7.6421,7.6444,7.6488,7.6531,7.6591,7.6633,7.6652,7.669,7.6743,7.6582,7.6171,7.6115,7.591,7.5586,7.5468,7.548,7.5551,7.5239,7.5061,7.4974,7.4779,7.4336,7.3842,7.3321,7.2695,7.1984,7.2158,7.2257,7.2245,7.236,7.2481,7.229,7.2168,7.2063,7.2052,7.2118,7.2322,7.2619,7.2777,7.3009,7.3674,7.4121,7.4208,7.4545,7.4781,7.5172,7.5266,7.5273,7.5188,7.4769,7.4474,7.4207,7.3788,7.3481,7.294,7.206,7.1042,6.9882,6.8653,6.7582,6.6081,6.4479,6.281,6.152,7.5852,7.6008,7.6789,7.7101,7.7068,7.7091,7.6753,7.6172,7.6211,7.5781,7.5312,7.5,7.5234,7.4765,7.5078,7.4375,7.3594,7.4101,7.4023,7.4336,7.5142,7.636,7.7107,7.7146,7.7107,7.7101,7.7101,7.7101,7.7095,7.7028,7.7024,7.6855,7.6882,7.6936,7.6521,7.6052,7.6163,7.6365,7.5927,7.5892,7.6438,7.6458,7.6457,7.6438,7.6427,7.6421,7.6397,7.6397,7.6397,7.6397,7.6397,7.6421,7.6466,7.6421,7.6488,7.6652,7.6633,7.6652,7.6708,7.6743,7.6777,7.6747,7.6894,7.7053,7.7014,7.6987,7.6972,7.6965,7.6331,7.5959,7.5829,7.5195,7.4779,7.457,7.4478,7.3549,7.2653,7.2685,7.3095,7.3016,7.349,7.3659,7.3619,7.3423,7.3176,7.2548,7.2663,7.2862,7.3162,7.3407,7.3716,7.4152,7.4446,7.4629,7.51,7.5588,7.6064,7.6411,7.6406,7.6281,7.5729,7.5508,7.5474,7.5187,7.433,7.3466,7.2613,7.1537,7.0443,6.9083,6.7742,6.622,6.4695,6.2875,6.1418,7.6203,7.6828,7.7023,7.7101,7.7107,7.7091,7.7026,7.6914,7.6914,7.6719,7.664,7.6601,7.6211,7.5625,7.5586,7.5156,7.4297,7.4023,7.375,7.4531,7.5369,7.632,7.6984,7.7101,7.7101,7.7101,7.7101,7.7101,7.7095,7.7028,7.6975,7.6999,7.6936,7.691,7.6819,7.6645,7.6576,7.6738,7.6514,7.6457,7.6555,7.6573,7.6534,7.6478,7.6433,7.6421,7.6397,7.6397,7.6397,7.6397,7.6397,7.6421,7.6444,7.6505,7.657,7.6632,7.6671,7.669,7.6726,7.6855,7.6864,7.7058,7.7623,7.7988,7.7936,7.7961,7.7985,7.7872,7.7285,7.6761,7.6638,7.5997,7.5592,7.5367,7.4872,7.4286,7.3853,7.3819,7.3833,7.3712,7.3682,7.3639,7.3403,7.3375,7.3186,7.3021,7.3136,7.3295,7.3632,7.4002,7.4357,7.4734,7.5011,7.5258,7.558,7.6048,7.6417,7.6817,7.6948,7.6966,7.6448,7.6125,7.5992,7.5533,7.4866,7.3996,7.3082,7.2057,7.0907,6.9421,6.7866,6.639,6.4811,6.3004,6.1286,7.6672,7.7062,7.7101,7.7101,7.7107,7.7091,7.7144,7.7187,7.7226,7.7226,7.7226,7.7226,7.6953,7.6523,7.6445,7.6015,7.5156,7.4336,7.414,7.4726,7.5454,7.6102,7.6555,7.6906,7.7101,7.7101,7.7089,7.7095,7.705,7.702,7.7004,7.6999,7.6936,7.691,7.6883,7.6825,7.6777,7.6726,7.6729,7.6652,7.6575,7.6553,7.6488,7.6436,7.6389,7.6359,7.6397,7.6359,7.6397,7.6397,7.6397,7.6421,7.6444,7.6505,7.6588,7.6652,7.6691,7.6962,7.7192,7.7454,7.7641,7.7992,7.8571,7.8767,7.8702,7.8558,7.8308,7.8144,7.7634,7.7069,7.7052,7.6731,7.6342,7.6208,7.5779,7.5361,7.5139,7.4861,7.4561,7.4441,7.4576,7.4559,7.4328,7.3876,7.3837,7.3954,7.3954,7.4068,7.422,7.4636,7.4893,7.525,7.5626,7.5898,7.6132,7.642,7.6636,7.6868,7.6966,7.6989,7.6763,7.6504,7.6333,7.5764,7.516,7.4384,7.3417,7.2409,7.1286,6.9778,6.8223,6.6609,6.4992,6.3196,6.1558,7.7101,7.7101,7.7101,7.7101,7.7107,7.7091,7.7144,7.7187,7.7226,7.7226,7.7226,7.7226,7.7148,7.7148,7.7148,7.668,7.5859,7.5234,7.4922,7.5039,7.5577,7.6067,7.6404,7.6828,7.7101,7.7095,7.7082,7.7043,7.7036,7.7004,7.6983,7.6987,7.6948,7.6897,7.6855,7.6809,7.6743,7.671,7.6672,7.6614,7.6514,7.651,7.6466,7.6405,7.6382,7.6359,7.6359,7.6359,7.632,7.6397,7.6537,7.6637,7.6676,7.6715,7.6759,7.6905,7.7157,7.7622,7.8103,7.8293,7.8598,7.9399,7.9636,7.9598,7.9439,7.8982,7.8623,7.8161,7.7655,7.7073,7.7059,7.6926,7.687,7.6805,7.6738,7.6575,7.6217,7.5583,7.5175,7.5059,7.5053,7.5038,7.4942,7.4653,7.4767,7.4804,7.4733,7.4737,7.4816,7.4937,7.5095,7.5315,7.5556,7.5947,7.625,7.6433,7.6692,7.6855,7.6933,7.6987,7.6974,7.676,7.6475,7.5967,7.5365,7.4594,7.3804,7.2812,7.1612,7.0092,6.8717,6.7189,6.5371,6.3449,6.1796,7.7101,7.7101,7.7101,7.7101,7.7107,7.7091,7.7144,7.7187,7.7226,7.7226,7.7226,7.7226,7.7226,7.7226,7.7226,7.6719,7.6094,7.5742,7.5659,7.5607,7.5915,7.6224,7.6638,7.6906,7.7095,7.7082,7.7075,7.7067,7.7012,7.6985,7.696,7.6897,7.6883,7.6855,7.6793,7.6726,7.6729,7.6672,7.6612,7.6531,7.6531,7.6427,7.6421,7.6397,7.6359,7.6436,7.6475,7.6397,7.6359,7.6436,7.714,7.7473,7.7566,7.7605,7.7711,7.7757,7.8224,7.8707,7.9092,7.9165,7.9291,7.9623,8.0091,8.0168,7.9812,7.9403,7.8854,7.8223,7.7615,7.7095,7.6995,7.696,7.6897,7.6809,7.6652,7.6427,7.621,7.5813,7.5379,7.5219,7.5306,7.5247,7.5002,7.4689,7.4485,7.4372,7.4297,7.4267,7.435,7.4525,7.4778,7.5018,7.5315,7.5756,7.6249,7.6427,7.6648,7.6819,7.6917,7.6995,7.6952,7.6848,7.6558,7.6195,7.5656,7.4942,7.4092,7.3192,7.1992,7.0566,6.9133,6.7787,6.5914,6.4007,6.2067,7.7101,7.7101,7.7101,7.7101,7.7107,7.7091,7.7144,7.7187,7.7226,7.7226,7.7226,7.7226,7.7226,7.7226,7.7226,7.6914,7.664,7.6601,7.6328,7.6063,7.6331,7.6375,7.6672,7.6906,7.705,7.7075,7.7067,7.702,7.7004,7.6944,7.6923,7.6869,7.684,7.6809,7.676,7.6729,7.6672,7.6632,7.657,7.6527,7.6488,7.6421,7.6397,7.6397,7.6436,7.6591,7.7016,7.7055,7.7349,7.7798,7.8185,7.8402,7.858,7.8812,7.8912,7.8706,7.9039,7.9523,7.9926,8.0059,8.0279,8.0766,8.0896,8.0708,8.0154,7.9509,7.8663,7.789,7.7469,7.7004,7.6955,7.6871,7.6809,7.6652,7.6488,7.6262,7.5985,7.5703,7.5379,7.5056,7.4951,7.4809,7.4613,7.4376,7.4073,7.395,7.3875,7.3886,7.3848,7.4122,7.4394,7.4778,7.5095,7.5561,7.5976,7.6237,7.6516,7.6692,7.6894,7.6958,7.6985,7.6892,7.6788,7.6497,7.5902,7.5298,7.4509,7.3576,7.2299,7.1087,6.9637,6.8137,6.639,6.4548,6.2556,7.7101,7.7101,7.7101,7.7101,7.7107,7.7126,7.7142,7.7187,7.7226,7.7226,7.7226,7.7226,7.7226,7.7226,7.7226,7.7187,7.7226,7.7187,7.6875,7.6805,7.7068,7.6984,7.675,7.6861,7.7316,7.7067,7.7043,7.7004,7.6995,7.6921,7.6922,7.6879,7.6848,7.6777,7.6708,7.671,7.6652,7.6591,7.651,7.6505,7.6498,7.6436,7.6514,7.6668,7.663,7.7055,7.7891,7.7945,7.8239,7.8789,7.9138,7.9331,7.9515,8.0157,8.0274,7.9791,7.9777,8.0203,8.0647,8.0876,8.1096,8.1325,8.1103,8.0807,7.9986,7.8845,7.7868,7.7239,7.7043,7.6972,7.6885,7.6786,7.6651,7.651,7.6287,7.6079,7.5749,7.5417,7.5057,7.4757,7.4586,7.4336,7.4101,7.3852,7.3573,7.341,7.3335,7.349,7.354,7.3691,7.4029,7.4519,7.4899,7.5279,7.5692,7.5967,7.6258,7.6555,7.6738,7.6887,7.6961,7.699,7.6817,7.6669,7.6273,7.5639,7.479,7.3989,7.2865,7.1587,7.0129,6.8635,6.7005,6.515,6.3226,7.7101,7.7101,7.7101,7.714,7.7179,7.7185,7.7211,7.7187,7.7226,7.7226,7.7226,7.7226,7.7226,7.7226,7.7226,7.7226,7.7265,7.7344,7.7617,7.7911,7.8166,7.8155,7.8077,7.8182,7.7777,7.7363,7.7102,7.6985,7.6975,7.6909,7.6894,7.6893,7.6816,7.676,7.671,7.6672,7.6632,7.651,7.6527,7.6544,7.6498,7.6552,7.6939,7.7365,7.7611,7.7959,7.8727,7.8858,7.9013,7.9277,7.9903,8.0152,8.0322,8.1173,8.1543,8.1524,8.1543,8.1561,8.1558,8.1459,8.1189,8.1026,8.0686,8.0027,7.9026,7.8093,7.7303,7.7156,7.7082,7.7026,7.6957,7.6786,7.6553,7.649,7.6492,7.6148,7.5819,7.5856,7.5384,7.4832,7.4709,7.4063,7.3548,7.3313,7.3075,7.2964,7.2853,7.3054,7.3289,7.3536,7.3915,7.4515,7.5031,7.5399,7.565,7.5909,7.6106,7.6372,7.657,7.6794,7.6903,7.6985,7.6927,7.6738,7.6418,7.6044,7.5321,7.4437,7.3392,7.2202,7.0865,6.9314,6.7832,6.588,6.3793,7.7087,7.7087,7.7087,7.7117,7.7179,7.7218,7.722,7.722,7.7226,7.7226,7.7226,7.7226,7.7226,7.7226,7.7226,7.75,7.7812,7.793,7.8398,7.9011,7.9148,7.9131,7.9125,7.9072,7.8628,7.794,7.7638,7.7373,7.7155,7.6949,7.6864,7.6821,7.6764,7.6708,7.6691,7.6632,7.6591,7.6686,7.6936,7.7202,7.7295,7.7643,7.8069,7.8456,7.8495,7.8959,7.9501,7.9734,8.0067,8.0445,8.101,8.1148,8.1247,8.1581,8.1815,8.1854,8.1833,8.1597,8.1226,8.1226,8.0878,8.0195,7.9705,7.8823,7.7864,7.7417,7.7145,7.7028,7.7416,7.7486,7.7503,7.7698,7.7713,7.7522,7.7032,7.6815,7.6575,7.6306,7.6066,7.5481,7.4815,7.4218,7.357,7.3104,7.2973,7.2863,7.2753,7.2831,7.3259,7.3771,7.4211,7.4768,7.5185,7.5653,7.5817,7.6021,7.6032,7.6262,7.6516,7.6676,7.6882,7.6945,7.6912,7.6864,7.6591,7.6178,7.5754,7.4902,7.3905,7.2738,7.1551,7.0053,6.8426,6.6204,6.3854,7.71,7.7148,7.7105,7.7176,7.72,7.72,7.7226,7.7229,7.7215,7.7226,7.7226,7.7226,7.7226,7.7305,7.7461,7.793,7.8476,7.8709,7.9292,7.9789,8.0007,8.0029,8.0023,7.9931,7.9518,7.8642,7.8592,7.8117,7.7481,7.7205,7.7159,7.6842,7.6747,7.671,7.6633,7.6652,7.6651,7.7095,7.775,7.8076,7.817,7.8657,7.9044,7.9277,7.947,7.978,8.0454,8.0609,8.1043,8.142,8.1553,8.1575,8.1737,8.1775,8.1854,8.1892,8.189,8.1498,8.1126,8.0886,8.044,7.9673,7.887,7.8298,7.7812,7.7497,7.7716,7.7872,7.8108,7.8282,7.824,7.8557,7.8387,7.819,7.7955,7.7795,7.7528,7.6954,7.6385,7.5757,7.5197,7.4785,7.4066,7.3179,7.2863,7.2741,7.2692,7.2775,7.3324,7.4053,7.462,7.5221,7.5614,7.6029,7.6227,7.631,7.6235,7.6216,7.6436,7.6594,7.6777,7.6926,7.6946,7.6839,7.6715,7.6436,7.6064,7.525,7.4426,7.3255,7.2108,7.0656,6.8954,6.6656,6.3822,7.7184,7.719,7.7184,7.7187,7.7226,7.7226,7.7183,7.7179,7.7224,7.7172,7.7187,7.7226,7.7226,7.7422,7.7969,7.8398,7.8633,7.9297,8.0094,8.068,8.0905,8.0927,8.0875,8.0735,8.0397,7.9637,7.9466,7.8935,7.8256,7.803,7.7554,7.692,7.7019,7.6769,7.6788,7.704,7.7312,7.7814,7.8563,7.8905,7.8983,7.9238,7.9593,8.0129,8.0275,8.0686,8.1579,8.1475,8.1453,8.1755,8.1713,8.173,8.1812,8.1814,8.1854,8.1872,8.2103,8.1765,8.1408,8.136,8.1026,7.9959,7.9148,7.8789,7.8567,7.9104,7.9292,7.9104,7.9074,7.9111,7.8983,7.8887,7.9015,7.8807,7.8591,7.8216,7.7803,7.7109,7.6518,7.6021,7.5643,7.5335,7.4942,7.4215,7.3461,7.3343,7.3432,7.3483,7.4042,7.4785,7.5273,7.5766,7.6131,7.6498,7.6797,7.6842,7.6644,7.6548,7.6649,7.6643,7.6687,7.6777,7.6906,7.6912,7.6794,7.6624,7.6342,7.562,7.479,7.3822,7.2558,7.1006,6.8744,6.617,6.3189,7.7148,7.714,7.7146,7.7126,7.7144,7.7144,7.7133,7.7146,7.714,7.7122,7.7184,7.7187,7.7461,7.7969,7.832,7.914,7.9922,8.0312,8.1022,8.1563,8.1792,8.1779,8.1726,8.1546,8.1246,8.0563,8.0299,7.987,7.9077,7.8925,7.8776,7.8315,7.7757,7.7544,7.7544,7.7913,7.834,7.8727,7.936,7.9842,8.0002,8.0439,8.0826,8.1104,8.123,8.1342,8.1652,8.1713,8.1713,8.1734,8.1734,8.1773,8.185,8.1853,8.1931,8.2081,8.2426,8.2536,8.2245,8.2234,8.1738,8.1531,8.0934,8.048,7.9994,8.0259,7.9929,7.9749,7.9815,7.9903,7.9662,7.988,8.0058,7.9642,7.9209,7.8732,7.8171,7.7567,7.7101,7.6699,7.6442,7.6162,7.5778,7.5339,7.4616,7.4066,7.4123,7.4315,7.4847,7.5372,7.5875,7.6347,7.6691,7.7129,7.7457,7.7316,7.7074,7.6968,7.689,7.6764,7.6767,7.666,7.6799,7.6821,7.6896,7.6712,7.6443,7.5978,7.5183,7.4243,7.2812,7.1195,6.8641,6.5834,6.2966,7.7083,7.7082,7.709,7.7075,7.7083,7.7087,7.7078,7.7095,7.7101,7.7268,7.7481,7.7571,7.8005,7.867,7.9219,7.9765,8.0742,8.1234,8.1719,8.2065,8.2215,8.2241,8.2226,8.2093,8.1802,8.1332,8.1169,8.074,7.9881,7.982,7.9476,7.917,7.8961,7.8728,7.8535,7.9097,7.9523,7.9735,8.0295,8.0739,8.0958,8.1303,8.1608,8.1674,8.1677,8.1698,8.1713,8.1734,8.1755,8.1755,8.1755,8.1794,8.1892,8.2048,8.2219,8.2582,8.3112,8.3725,8.3558,8.3075,8.2591,8.2487,8.25,8.2137,8.1821,8.1566,8.1325,8.0837,8.0794,8.0601,8.0337,8.0511,8.0414,7.9891,7.9571,7.9076,7.8703,7.8155,7.7756,7.7393,7.7034,7.6555,7.6155,7.5711,7.5422,7.4947,7.5313,7.5406,7.5634,7.6068,7.652,7.6876,7.7274,7.7692,7.8091,7.784,7.7637,7.7676,7.7515,7.7043,7.6915,7.6827,7.6762,7.6825,7.6873,7.6839,7.6573,7.6183,7.5494,7.4676,7.2992,7.1042,6.8667,6.5935,6.3437,7.7082,7.7102,7.7102,7.7082,7.7067,7.7095,7.7089,7.7114,7.7206,7.7609,7.82,7.8323,7.8879,7.9675,8.0309,8.0781,8.1211,8.187,8.2242,8.226,8.2293,8.2241,8.2234,8.214,8.2075,8.2073,8.1831,8.135,8.0683,8.062,8.0198,7.9986,8.0067,8.0048,7.9369,7.9988,8.0394,8.0591,8.131,8.1501,8.1579,8.1737,8.1794,8.1794,8.1794,8.1814,8.1794,8.1755,8.1775,8.1775,8.191,8.2008,8.2087,8.2767,8.3074,8.3275,8.4129,8.461,8.4649,8.3927,8.3833,8.3905,8.4085,8.3724,8.341,8.3169,8.2815,8.2087,8.176,8.1291,8.106,8.0785,8.0451,8.0087,7.9728,7.9292,7.8858,7.8332,7.7842,7.7426,7.7056,7.6672,7.6342,7.6003,7.5898,7.5891,7.6336,7.6461,7.6344,7.6527,7.6814,7.7156,7.7493,7.7905,7.8223,7.8312,7.8252,7.8294,7.8122,7.7616,7.7202,7.6992,7.6954,7.6882,7.6873,7.6872,7.6712,7.6436,7.5549,7.4525,7.2577,7.059,6.8357,6.617,6.3757,7.7043,7.7034,7.7053,7.7043,7.7043,7.7051,7.702,7.7137,7.766,7.8143,7.8468,7.8936,7.9762,8.0475,8.0871,8.1309,8.1862,8.1992,8.2297,8.2299,8.2293,8.2248,8.2241,8.2179,8.2153,8.2112,8.2026,8.1961,8.1611,8.1431,8.1381,8.1265,8.1095,8.1271,8.1097,8.1311,8.1427,8.1466,8.1679,8.1814,8.1834,8.1853,8.1853,8.1775,8.1814,8.1814,8.1853,8.1814,8.1931,8.2028,8.2182,8.265,8.2825,8.3505,8.4021,8.4256,8.4988,8.5799,8.6207,8.6225,8.6125,8.5969,8.5807,8.5448,8.512,8.4396,8.3795,8.2932,8.2069,8.1415,8.0984,8.0524,8.0162,7.9926,7.9546,7.9149,7.8648,7.8048,7.7584,7.7181,7.6801,7.6342,7.5971,7.5971,7.5901,7.5901,7.6176,7.6342,7.633,7.6583,7.6836,7.7194,7.7555,7.7977,7.8309,7.8404,7.8502,7.8419,7.8409,7.8129,7.7754,7.7408,7.7118,7.7,7.6981,7.6948,7.67,7.6342,7.5411,7.4136,7.2502,7.0786,6.8807,6.6558,6.4197,7.6955,7.6944,7.6983,7.6999,7.6975,7.6994,7.7141,7.7502,7.8113,7.8636,7.9314,7.9906,8.0615,8.1239,8.1513,8.1641,8.231,8.2301,8.2304,8.232,8.231,8.226,8.2209,8.2226,8.221,8.2123,8.2089,8.2065,8.1974,8.1952,8.1848,8.1792,8.1929,8.1776,8.1776,8.1815,8.1815,8.1796,8.1854,8.1854,8.1854,8.1893,8.1853,8.1834,8.1834,8.1853,8.1892,8.2047,8.2261,8.2435,8.2901,8.3485,8.3796,8.4339,8.4887,8.5208,8.5894,8.6667,8.7123,8.7265,8.7063,8.7088,8.732,8.6987,8.6221,8.5368,8.4316,8.3322,8.2139,8.1375,8.0792,8.0314,7.9971,7.9761,7.9349,7.8922,7.8422,7.785,7.7463,7.7056,7.6672,7.6208,7.5762,7.5832,7.5901,7.5937,7.6007,7.6108,7.6342,7.6599,7.6883,7.7206,7.7487,7.7937,7.8332,7.8648,7.8677,7.8594,7.858,7.8561,7.8267,7.7929,7.7534,7.7143,7.7043,7.6944,7.6673,7.6165,7.5379,7.4392,7.3052,7.1246,6.9317,6.71,6.4745,7.6894,7.6894,7.6897,7.6922,7.6908,7.704,7.7556,7.8252,7.8399,7.9353,8.0821,8.0797,8.135,8.2092,8.2254,8.2266,8.2285,8.2301,8.2304,8.2304,8.2295,8.2242,8.2221,8.2248,8.2218,8.2201,8.2172,8.214,8.2104,8.1998,8.1959,8.1947,8.1929,8.1911,8.1911,8.1892,8.1892,8.1892,8.1892,8.1892,8.1873,8.1892,8.1873,8.1854,8.1873,8.1931,8.2164,8.2513,8.2901,8.331,8.3912,8.4262,8.4709,8.5326,8.5701,8.6167,8.6902,8.7173,8.7375,8.7416,8.7368,8.7331,8.7269,8.7176,8.6739,8.5854,8.4737,8.3702,8.2599,8.1521,8.0658,8.024,7.9854,7.9494,7.9091,7.8664,7.8196,7.7731,7.7341,7.7056,7.6737,7.6342,7.5971,7.5901,7.5971,7.5971,7.6039,7.628,7.6512,7.6664,7.6883,7.7118,7.7463,7.7762,7.8221,7.8602,7.8803,7.8736,7.8933,7.8939,7.8668,7.8416,7.8037,7.7658,7.7182,7.6899,7.6702,7.6224,7.5571,7.4484,7.3415,7.1706,6.9741,6.766,6.5359,7.6894,7.6894,7.6908,7.6894,7.6941,7.7501,7.7987,7.8336,7.9478,8.0485,8.0952,8.1546,8.1906,8.2234,8.2209,8.226,8.2305,8.232,8.2297,8.2304,8.2304,8.2289,8.2271,8.2254,8.2234,8.221,8.2182,8.2172,8.2116,8.2026,8.2022,8.1998,8.1926,8.1908,8.1929,8.1911,8.1892,8.1892,8.1892,8.1892,8.1892,8.1892,8.1912,8.1932,8.199,8.2184,8.2725,8.3038,8.3446,8.4047,8.4825,8.5311,8.5486,8.6216,8.6767,8.6961,8.7276,8.7397,8.742,8.7381,8.7308,8.7273,8.7172,8.7001,8.6612,8.594,8.4905,8.3811,8.2856,8.1727,8.0659,8.0043,7.9723,7.934,7.8925,7.8462,7.8005,7.7634,7.7279,7.6929,7.6607,7.6342,7.5971,7.6039,7.6003,7.6072,7.6244,7.6378,7.6578,7.6728,7.692,7.7118,7.7402,7.7799,7.7994,7.8386,7.8708,7.8954,7.9131,7.9267,7.9133,7.8832,7.8554,7.8126,7.7607,7.7148,7.6788,7.6263,7.5754,7.4902,7.3793,7.2002,7.015,6.8135,6.588,7.6809,7.6809,7.6864,7.7003,7.7493,7.853,7.9087,7.9336,8.0298,8.0922,8.1399,8.1878,8.2172,8.2162,8.2195,8.2215,8.2254,8.226,8.2276,8.2292,8.2304,8.2303,8.2289,8.2266,8.2241,8.2218,8.2201,8.2182,8.214,8.2091,8.2051,8.1991,8.1959,8.1926,8.1908,8.1929,8.1911,8.1892,8.1892,8.1931,8.1931,8.1951,8.2009,8.2261,8.2359,8.2803,8.3462,8.3757,8.4339,8.4922,8.5738,8.6224,8.6358,8.688,8.7203,8.7323,8.7357,8.7418,8.7377,8.7314,8.7299,8.7209,8.704,8.686,8.6599,8.6079,8.4897,8.3742,8.2835,8.1841,8.0804,7.9874,7.9562,7.9214,7.8783,7.8293,7.7873,7.7439,7.7092,7.6773,7.6445,7.6176,7.6039,7.6072,7.6072,7.614,7.6275,7.6512,7.6708,7.6866,7.6956,7.7056,7.7402,7.774,7.7974,7.8221,7.8549,7.8966,7.9293,7.9399,7.9391,7.9309,7.9015,7.8513,7.7957,7.7614,7.7316,7.6591,7.598,7.5111,7.4185,7.2536,7.077,6.8772,6.6456,7.6687,7.6726,7.6855,7.7515,7.8448,7.9816,8.0495,8.0703,8.0776,8.1213,8.1895,8.2039,8.2116,8.2112,8.2162,8.2195,8.2195,8.2202,8.2248,8.2293,8.2253,8.2265,8.2301,8.2324,8.2254,8.2241,8.2226,8.221,8.2162,8.2112,8.2051,8.1991,8.1975,8.1959,8.1926,8.189,8.1911,8.1873,8.2068,8.2184,8.2087,8.2106,8.228,8.2999,8.3229,8.3535,8.4397,8.5077,8.5698,8.6049,8.6399,8.6923,8.7059,8.7169,8.7276,8.7362,8.7418,8.7377,8.7381,8.7282,8.7183,8.7072,8.6899,8.6708,8.6441,8.6184,8.5113,8.3677,8.2718,8.179,8.0786,8.0137,7.9773,7.9641,7.9372,7.8957,7.8528,7.7903,7.7158,7.6759,7.6342,7.6072,7.6072,7.614,7.614,7.614,7.6342,7.6643,7.6838,7.6993,7.7056,7.7155,7.7414,7.7717,7.7879,7.8165,7.8441,7.8864,7.9311,7.9645,7.9685,7.9621,7.9499,7.9116,7.8759,7.832,7.7879,7.7198,7.6397,7.5418,7.4361,7.3043,7.1357,6.946,6.7146,7.6687,7.6764,7.7442,7.8552,7.9874,8.0339,8.0901,8.1406,8.1465,8.1639,8.1952,8.2022,8.2036,8.2052,8.2089,8.2123,8.2143,8.2171,8.2226,8.2209,8.2237,8.2258,8.2265,8.2289,8.2299,8.2254,8.2248,8.2234,8.2179,8.2112,8.2039,8.2065,8.2022,8.1959,8.1959,8.1926,8.1892,8.2009,8.2378,8.2727,8.2862,8.2901,8.3095,8.3695,8.404,8.4471,8.5116,8.5524,8.6127,8.6612,8.6899,8.7137,8.7247,8.7291,8.7342,8.7369,8.7421,8.7387,8.7321,8.7234,8.7098,8.6982,8.6793,8.6558,8.6312,8.6095,8.5286,8.3869,8.2699,8.1761,8.1014,8.0499,8.008,8.0074,7.9965,7.9579,7.9117,7.8227,7.7327,7.6772,7.6316,7.614,7.6208,7.6208,7.6244,7.6378,7.6607,7.6801,7.6966,7.7118,7.7181,7.7217,7.7389,7.7671,7.7857,7.8071,7.8386,7.876,7.9165,7.9584,7.9979,8.0068,8.0074,7.997,7.9666,7.9212,7.8624,7.7842,7.6992,7.5985,7.4866,7.3651,7.2034,7.0186,6.7869,7.6687,7.6842,7.8046,7.9291,8.0397,8.086,8.1303,8.1652,8.1669,8.1755,8.189,8.1887,8.192,8.1952,8.2036,8.2091,8.2089,8.2112,8.2162,8.2187,8.2176,8.2246,8.2265,8.23,8.2289,8.2276,8.2254,8.2241,8.2171,8.2133,8.2116,8.2036,8.1975,8.1959,8.1975,8.1929,8.2107,8.2358,8.288,8.3363,8.379,8.3868,8.4023,8.4566,8.4975,8.5385,8.5913,8.6243,8.6515,8.6921,8.7105,8.7181,8.727,8.7338,8.7353,8.7379,8.7411,8.7393,8.7298,8.7167,8.7011,8.6842,8.661,8.6373,8.6057,8.576,8.5092,8.3802,8.3285,8.2443,8.1506,8.0868,8.0555,8.0433,8.0045,7.9559,7.9023,7.8297,7.7601,7.7212,7.6714,7.6208,7.6311,7.6378,7.6445,7.6512,7.6773,7.6866,7.7092,7.7217,7.7279,7.7341,7.7451,7.7634,7.7799,7.8051,7.8276,7.8618,7.9066,7.96,8.0116,8.0453,8.0632,8.059,8.0467,8.0085,7.9438,7.8753,7.7797,7.6828,7.5623,7.4319,7.2614,7.0851,6.8588,7.6842,7.727,7.8785,7.9913,8.0687,8.1359,8.1685,8.1646,8.1624,8.1669,8.1775,8.1776,8.1833,8.1926,8.1959,8.2022,8.2078,8.2077,8.2123,8.2171,8.2195,8.2227,8.2289,8.2304,8.23,8.2285,8.226,8.2226,8.2133,8.2112,8.2091,8.2037,8.202,8.2014,8.1989,8.2107,8.2359,8.3035,8.3613,8.4211,8.4537,8.4831,8.5048,8.5419,8.5851,8.6221,8.671,8.6982,8.698,8.7072,8.7191,8.7273,8.733,8.7347,8.7372,8.742,8.7392,8.736,8.7261,8.716,8.6924,8.6669,8.6412,8.6131,8.5837,8.535,8.466,8.4172,8.3665,8.2909,8.1964,8.1377,8.114,8.0888,8.0345,7.9792,7.9172,7.8576,7.815,7.7655,7.7108,7.6529,7.6415,7.6548,7.6614,7.668,7.6838,7.6966,7.7155,7.7217,7.7279,7.7341,7.7439,7.762,7.782,7.7994,7.8239,7.8655,7.9066,7.9696,8.0278,8.0638,8.1014,8.1328,8.1102,8.079,8.039,7.9773,7.8759,7.7742,7.6671,7.5393,7.3506,7.1646,6.9494,7.7541,7.8919,7.9911,8.0767,8.1424,8.1669,8.1639,8.1553,8.1528,8.16,8.1691,8.1734,8.1775,8.1911,8.1911,8.1964,8.1968,8.1987,8.2038,8.2133,8.2171,8.2241,8.2276,8.2301,8.23,8.2281,8.226,8.2209,8.2153,8.2112,8.2077,8.2012,8.1981,8.224,8.2803,8.2898,8.3152,8.3823,8.446,8.5056,8.5125,8.5396,8.5816,8.6188,8.6599,8.6708,8.6904,8.698,8.7072,8.716,8.722,8.7309,8.7362,8.7379,8.7414,8.7366,8.7347,8.7247,8.7176,8.7055,8.6842,8.6467,8.6208,8.5983,8.5619,8.5246,8.4714,8.4292,8.3735,8.2964,8.2146,8.1903,8.1652,8.1637,8.1285,8.0692,8.0026,7.9489,7.8955,7.8267,7.7502,7.6958,7.6554,7.6584,7.6672,7.6773,7.6966,7.7155,7.7217,7.7279,7.7341,7.7402,7.7402,7.7584,7.782,7.7957,7.8239,7.8618,7.9079,7.9734,8.0316,8.0817,8.1165,8.1458,8.1625,8.1412,8.1014,8.0665,7.9773,7.8766,7.7899,7.6607,7.4636,7.2702,7.0731]},{"header":{"parameterUnit":"m.s-1","parameterCategory":1,"la1":31.0,"la2":29.5877,"lo1":-88.7671,"lo2":-86.6584,"dy":0.0162,"dx":0.0185,"nx":115,"ny":88,"refTime":"2023-11-20T12:00:00:Z","depth":0,"parameterNumber":3,"parameterNumberName":"V-component_of_WINDS"},"data":[0.0,0.0,0.0,0.0,0.0,0.0,0.0,0.0,0.0,0.0,0.0,0.0,0.0,0.0,0.0,0.0,0.0,0.0,0.0,0.0,0.0,0.0,0.0,0.0,0.0,0.0,0.0,0.0,0.0,0.0,0.0,0.0,0.0,0.0,0.0,0.0,0.0,0.0,0.0,0.0,0.0,0.0,0.0,0.0,0.0,0.0,0.0,0.0,0.0,0.0,0.0,0.0,0.0,0.0,0.0,0.0,0.0,0.0,0.0,0.0,0.0,0.0,0.0,0.0,0.0,0.0,0.0,0.0,0.0,0.0,0.0,0.0,0.0,0.0,0.0,0.0,0.0,0.0,0.0,0.0,0.0,0.0,0.0,0.0,0.0,0.0,0.0,0.0,0.0,0.0,0.0,0.0,0.0,0.0,0.0,0.0,0.0,0.0,0.0,0.0,0.0,0.0,0.0,0.0,0.0,0.0,0.0,0.0,0.0,0.0,0.0,0.0,0.0,0.0,0.0,0.0,0.0,0.0,0.0,0.0,0.0,0.0,0.0,0.0,0.0,0.0,0.0,0.0,0.0,0.0,0.0,0.0,0.0,0.0,0.0,0.0,0.0,0.0,0.0,0.0,0.0,0.0,0.0,0.0,0.0,0.0,0.0,0.0,0.0,0.0,0.0,0.0,0.0,0.0,0.0,0.0,0.0,0.0,0.0,0.0,0.0,0.0,0.0,0.0,0.0,0.0,0.0,0.0,0.0,0.0,0.0,0.0,0.0,0.0,0.0,0.0,0.0,0.0,0.0,0.0,0.0,0.0,0.0,0.0,0.0,0.0,0.0,0.0,0.0,0.0,0.0,0.0,0.0,0.0,0.0,0.0,0.0,0.0,0.0,0.0,0.0,0.0,0.0,0.0,0.0,0.0,0.0,0.0,0.0,0.0,0.0,0.0,0.0,0.0,0.0,0.0,0.0,0.0,0.0,0.0,0.0,0.0,0.0,0.0,0.0,0.0,0.0,0.0,0.0,0.0,0.0,0.0,0.0,0.0,0.0,0.0,0.0,0.0,0.0,0.0,0.0,0.0,0.0,0.0,0.0,0.0,0.0,0.0,0.0,0.0,0.0,0.0,0.0,0.0,0.0,0.0,0.0,0.0,0.0,0.0,0.0,0.0,0.0,0.0,0.0,0.0,0.0,0.0,0.0,0.0,0.0,0.0,0.0,0.0,0.0,0.0,0.0,0.0,0.0,0.0,0.0,0.0,0.0,0.0,0.0,0.0,0.0,0.0,0.0,0.0,0.0,0.0,0.0,0.0,0.0,0.0,0.0,0.0,0.0,0.0,0.0,0.0,0.0,0.0,0.0,0.0,0.0,0.0,0.0,0.0,0.0,0.0,0.0,0.0,0.0,0.0,0.0,0.0,0.0,0.0,0.0,0.0,0.0,0.0,0.0,0.0,0.0,0.0,0.0,0.0,0.0,0.0,0.0,0.0,0.0,0.0,0.0,0.0,0.0,0.0,0.0,0.0,0.0,0.0,0.0,0.0,0.0,0.0,0.0,0.0,0.0,0.0,0.0,0.0,0.0,0.0,0.0,0.0,0.0,0.0,0.0,0.0,0.0,0.0,0.0,0.0,0.0,0.0,0.0,0.0,0.0,0.0,0.0,0.0,0.0,0.0,0.0,0.0,0.0,0.0,0.0,0.0,0.0,0.0,0.0,0.0,0.0,0.0,0.0,0.0,0.0,0.0,0.0,0.0,0.0,0.0,0.0,0.0,0.0,0.0,0.0,0.0,0.0,0.0,0.0,0.0,0.0,0.0,0.0,0.0,0.0,0.0,0.0,0.0,0.0,0.0,0.0,0.0,0.0,0.0,0.0,0.0,0.0,0.0,0.0,0.0,0.0,0.0,0.0,0.0,0.0,0.0,0.0,0.0,0.0,0.0,0.0,0.0,0.0,0.0,0.0,0.0,0.0,0.0,0.0,0.0,0.0,0.0,0.0,0.0,0.0,0.0,0.0,0.0,0.0,0.0,0.0,0.0,0.0,0.0,0.0,0.0,0.0,0.0,0.0,0.0,0.0,0.0,0.0,0.0,0.0,0.0,0.0,0.0,0.0,0.0,0.0,0.0,0.0,0.0,0.0,0.0,0.0,0.0,0.0,0.0,0.0,0.0,0.0,0.0,0.0,0.0,0.0,0.0,0.0,0.0,0.0,0.0,0.0,0.0,0.0,0.0,0.0,0.0,0.0,0.0,0.0,0.0,0.0,0.0,0.0,0.0,0.0,0.0,0.0,0.0,0.0,0.0,0.0,0.0,0.0,0.0,0.0,0.0,0.0,0.0,0.0,0.0,0.0,0.0,0.0,0.0,0.0,0.0,0.0,0.0,0.0,0.0,0.0,0.0,0.0,0.0,0.0,0.0,0.0,0.0,0.0,0.0,0.0,0.0,0.0,0.0,0.0,0.0,0.0,0.0,0.0,0.0,0.0,0.0,0.0,0.0,0.0,0.0,0.0,0.0,0.0,0.0,0.0,0.0,0.0,0.0,0.0,0.0,0.0,0.0,0.0,0.0,0.0,0.0,0.0,0.0,0.0,0.0,0.0,0.0,0.0,0.0,0.0,0.0,0.0,0.0,0.0,0.0,0.0,0.0,0.0,0.0,0.0,0.0,0.0,0.0,0.0,0.0,0.0,0.0,0.0,0.0,0.0,0.0,0.0,0.0,0.0,0.0,0.0,0.0,0.0,0.0,0.0,0.0,0.0,0.0,0.0,0.0,0.0,0.0,0.0,0.0,0.0,0.0,0.0,0.0,0.0,0.0,0.0,0.0,0.0,0.0,0.0,0.0,0.0,0.0,0.0,0.0,0.0,0.0,0.0,0.0,0.0,0.0,0.0,0.0,0.0,0.0,0.0,0.0,0.0,0.0,0.0,0.0,0.0,0.0,0.0,0.0,0.0,0.0,0.0,0.0,0.0,0.0,0.0,0.0,0.0,0.0,0.0,0.0,0.0,0.0,0.0,0.0,0.0,0.0,0.0,0.0,0.0,0.0,0.0,0.0,0.0,0.0,0.0,0.0,0.0,0.0,0.0,0.0,0.0,0.0,0.0,0.0,0.0,0.0,0.0,0.0,0.0,0.0,0.0,0.0,0.0,0.0,0.0,0.0,0.0,0.0,0.0,0.0,0.0,0.0,0.0,0.0,0.0,0.0,0.0,0.0,0.0,0.0,0.0,0.0,0.0,0.0,0.0,0.0,0.0,0.0,0.0,0.0,0.0,0.0,0.0,0.0,0.0,0.0,0.0,0.0,0.0,0.0,0.0,0.0,0.0,0.0,0.0,0.0,0.0,0.0,0.0,0.0,0.0,0.0,0.0,0.0,0.0,0.0,0.0,0.0,0.0,0.0,0.0,0.0,0.0,0.0,0.0,0.0,0.0,0.0,0.0,0.0,0.0,0.0,0.0,0.0,0.0,0.0,0.0,0.0,0.0,0.0,0.0,0.0,0.0,0.0,0.0,0.0,0.0,0.0,0.0,0.0,0.0,0.0,0.0,0.0,0.0,0.0,0.0,0.0,0.0,0.0,0.0,0.0,0.0,0.0,0.0,0.0,0.0,0.0,0.0,0.0,0.0,0.0,0.0,0.0,0.0,0.0,0.0,0.0,0.0,0.0,0.0,0.0,0.0,0.0,0.0,0.0,0.0,0.0,0.0,0.0,0.0,0.0,0.0,0.0,0.0,0.0,0.0,0.0,0.0,0.0,0.0,0.0,0.0,0.0,0.0,0.0,0.0,0.0,0.0,0.0,0.0,0.0,0.0,0.0,0.0,0.0,0.0,0.0,0.0,0.0,0.0,0.0,0.0,0.0,0.0,0.0,0.0,0.0,0.0,0.0,0.0,0.0,0.0,0.0,0.0,0.0,0.0,0.0,0.0,0.0,0.0,0.0,0.0,0.0,0.0,0.0,0.0,0.0,0.0,0.0,0.0,0.0,0.0,0.0,0.0,0.0,0.0,0.0,0.0,0.0,0.0,0.0,0.0,0.0,0.0,0.0,0.0,0.0,0.0,0.0,0.0,0.0,0.0,0.0,0.0,0.0,0.0,0.0,0.0,0.0,0.0,0.0,0.0,0.0,0.0,0.0,0.0,0.0,0.0,0.0,0.0,0.0,0.0,0.0,0.0,0.0,0.0,0.0,0.0,0.0,0.0,0.0,0.0,0.0,0.0,0.0,0.0,0.0,0.0,0.0,0.0,0.0,0.0,0.0,0.0,0.0,0.0,0.0,0.0,0.0,0.2157,0.0,0.0,0.0,0.0,0.0,0.0,0.0,0.0,0.0,0.0,0.0,0.0,0.0,0.0,0.0,0.0,0.0,0.0,0.0,0.0,0.0,0.0,0.0,0.0,0.0,0.0,0.0,0.0,0.0,0.0,0.0,0.0,0.0,0.0,0.0,0.0,0.0,0.0,0.0,0.0,0.0,0.0,0.0,0.0,0.0,0.0,0.0,0.0,0.0,0.0,0.0,0.0,0.0,0.0,0.0,0.0,0.0,0.0,0.0,0.0,0.0,0.0,0.0,0.0,0.0,0.0,0.0,0.0,0.0,0.0,0.0,0.0,0.0,0.0,0.0,0.0,0.0,0.0,0.0,0.0,0.0,0.0,0.0,0.0,0.0,0.0,0.0,0.0,0.0,0.0,0.0,0.0,0.0,0.0,0.0,0.0,0.0,0.0,0.0,0.0,0.0,0.0,0.0,0.0,0.0,0.0,0.0,0.0,0.0,0.0,0.2033,0.2135,0.2006,0.2006,0.22,0.0,0.0,0.0,0.0,0.0,0.0,0.0,0.0,0.0,0.0,0.0,0.0,0.0,0.0,0.0,0.0,0.0,0.0,0.0,0.0,0.0,0.0,0.0,0.0,0.0,0.0,0.0,0.0,0.0,0.0,0.0,0.0,0.0,0.0,0.0,0.0,0.0,0.0,0.0,0.0,0.0,0.0,0.0,0.0,0.0,0.0,0.0,0.0,0.0,0.0,0.0,0.0,0.0,0.0,0.0,0.0,0.0,0.0,0.0,0.0,0.0,0.0,0.0,0.0,0.0,0.0,0.0,0.0,0.0,0.0,0.0,0.0,0.0,0.0,0.0,0.0,0.0,0.0,0.0,0.0,0.0,0.0,0.0,0.0,0.0,0.0,0.0,0.0,0.0,0.0,0.0,0.0,0.0,0.0,0.0,0.0,0.0,0.0,0.0,0.0,0.0,0.0,0.0,0.0,0.0,0.0,0.0,0.0,0.0,0.0,0.0,0.0,0.222,0.2153,0.2153,0.0,0.0,0.0,0.0,0.0,0.0,0.0,0.0,0.0,0.0,0.0,0.0,0.0,0.0,0.0,0.0,0.0,0.0,0.0,0.0,0.0,0.0,0.0,0.0,0.0,0.0,0.0,0.0,0.0,0.0,0.0,0.0,0.0,0.0,0.0,0.0,0.0,0.0,0.0,0.0,0.0,0.0,0.0,0.0,0.0,0.0,0.0,0.0,0.0,0.0,0.0,0.0,0.0,0.0,0.0,0.0,0.0,0.0,0.0,0.0,0.0,0.0,0.0,0.0,0.0,0.0,0.0,0.0,0.0,0.0,0.0,0.0,0.0,0.0,0.0,0.0,0.0,0.0,0.0,0.0,0.0,0.0,0.0,0.0,0.0,0.0,0.0,0.0,0.0,0.0,0.0,0.0,0.0,0.0,0.0,0.0,0.0,0.0,0.0,0.0,0.0,0.0,0.0,0.0,0.0,0.0,0.0,0.0,0.0,0.0,0.222,0.222,0.222,0.0,0.1951,0.0,0.0,0.0,0.0,0.0,0.0,0.0,0.0,0.0,0.0,0.0,0.0,0.0,0.0,0.0,0.0,0.0,0.0,0.0,0.0,0.0,0.0,0.0,0.0,0.0,0.0,0.0,0.0,0.0,0.0,0.0,0.0,0.0,0.0,0.0,0.0,0.0,0.0,0.0,0.0,0.0,0.0,0.0,0.0,0.0,0.0,0.0,0.0,0.0,0.0,0.0,0.0,0.0,0.0,0.0,0.0,0.0,0.0,0.0,0.0,0.0,0.0,0.0,0.0,0.0,0.0,0.0,0.0,0.0,0.0,0.0,0.0,0.0,0.0,0.0,0.0,0.0,0.0,0.0,0.0,0.0,0.0,0.0,0.0,0.0,0.0,0.0,0.0,0.0,0.0,0.0,0.0,0.0,0.0,0.0,0.0,0.0,0.0,0.0,0.0,0.0,0.0,0.0,0.0,0.0,0.0,0.0,0.0,0.0,0.0,0.222,0.222,0.222,0.2153,0.0,0.0,0.0,0.0,0.0,0.0,0.0,0.0,0.0,0.0,0.0,0.0,0.0,0.0,0.0,0.0,0.0,0.0,0.0,0.0,0.0,0.0,0.0,0.0,0.0,0.0,0.0,0.0,0.0,0.0,0.0,0.0,0.0,0.0,0.0,0.0,0.0,0.0,0.0,0.0,0.0,0.0,0.0,0.0,0.0,0.0,0.0,0.0,0.0,0.0,0.0,0.0,0.0,0.0,0.0,0.0,0.0,0.0,0.0,0.0,0.0,0.0,0.0,0.0,0.0,0.0,0.0,0.0,0.0,0.0,0.0,0.0,0.0,0.0,0.0,0.0,0.0,0.0,0.0,0.0,0.0,0.0,0.0,0.0,0.0,0.0,0.0,0.0,0.0,0.0,0.0,0.0,0.0,0.0,0.0,0.0,0.0,0.0,0.0,0.0,0.0,0.0,0.0,0.0,0.0,0.0,0.0,0.0,0.0,0.0,0.222,0.222,0.222,0.222,0.222,0.222,0.0,0.0,0.0,0.0,0.0,0.0,0.0,0.0,0.0,0.0,0.0,0.0,0.0,0.0,0.0,0.0,0.0,0.0,0.0,0.0,0.0,0.0,0.0,0.0,0.0,0.0,0.0,0.0,0.0,0.0,0.0,0.0,0.0,0.0,0.0,0.0,0.0,0.0,0.0,0.0,0.0,0.0,0.0,0.0,0.0,0.0,0.0,0.0,0.0,0.0,0.0,0.0,0.0,0.0,0.0,0.0,0.0,0.0,0.0,0.0,0.0,0.0,0.0,0.0,0.0,0.0,0.0,0.0,0.0,0.0,0.0,0.0,0.0,0.0,0.0,0.0,0.0,0.0,0.0,0.0,0.0,0.0,0.0,0.0,0.0,0.0,0.0,0.0,0.0,0.0,0.0,0.0,0.0,0.0,0.0,0.0,0.0,0.0,0.0,0.0,0.0,0.0,0.0,0.0,0.0,0.0,0.0,0.0,0.2223,0.229,0.229,0.2225,0.2223,0.2223,0.0,0.0,0.0,0.0,0.0,0.0,0.0,0.0,0.0,0.0,0.0,0.0,0.0,0.0,0.0,0.0,0.0,0.0,0.0,0.0,0.0,0.0,0.0,0.0,0.0,0.0,0.0,0.0,0.0,0.0,0.0,0.0,0.0,0.0,0.0,0.0,0.0,0.0,0.0,0.0,0.0,0.0,0.0,0.0,0.0,0.0,0.0,0.0,0.0,0.0,0.0,0.0,0.0,0.0,0.0,0.0,0.0,0.0,0.0,0.0,0.0,0.0,0.0,0.0,0.0,0.0,0.0,0.0,0.0,0.0,0.0,0.0,0.0,0.0,0.0,0.0,0.0,0.0,0.0,0.0,0.0,0.0,0.0,0.0,0.0,0.0,0.0,0.0,0.0,0.0,0.0,0.0,0.0,0.0,0.0,0.0,0.0,0.0,0.0,0.0,0.0,0.0,0.0,0.0,0.0,0.0,0.0,0.0,0.0,0.2423,0.2318,0.2267,0.227,0.2341,0.2324,0.0,0.0,0.0,0.0,0.0,0.0,0.0,0.0,0.0,0.0,0.0,0.0,0.0,0.0,0.0,0.0,0.0,0.0,0.0,0.0,0.0,0.0,0.0,0.0,0.0,0.0,0.0,0.0,0.0,0.0,0.0,0.0,0.0,0.0,0.0,0.0,0.0,0.0,0.0,0.0,0.0,0.0,0.0,0.0,0.0,0.0,0.0,0.0,0.0,0.0,0.0,0.0,0.0,0.0,0.0,0.0,0.0,0.0,0.0,0.0,0.0,0.0,0.0,0.0,0.0,0.0,0.0,0.0,0.0,0.0,0.0,0.0,0.0,0.0,0.0,0.0,0.0,0.0,0.0,0.0,0.0,0.0,0.0,0.0,0.0,0.0,0.0,0.0,0.0,0.0,0.0,0.0,0.0,0.0,0.0,0.0,0.0,0.0,0.0,0.0,0.0,0.0,0.0,0.0,0.0,0.0,0.0,0.0,0.0,0.2559,0.0,0.226,0.2335,0.2408,0.2461,0.0,0.0,0.0,0.0,0.0,0.0,0.0,0.0,0.0,0.0,0.0,0.0,0.0,0.0,0.0,0.0,0.0,0.0,0.0,0.0,0.0,0.0,0.0,0.0,0.0,0.0,0.0,0.0,0.0,0.0,0.0,0.0,0.0,0.0,0.0,0.0,0.0,0.0,0.0,0.0,0.0,0.0,0.0,0.0,0.0,0.0,0.0,0.0,0.0,0.0,0.0,0.0,0.0,0.0,0.0,0.0,0.0,0.0,0.0,0.0,0.0,0.0,0.0,0.0,0.0,0.0,0.0,0.0,0.0,0.0,0.0,0.0,0.0,0.0,0.0,0.0,0.0,0.0,0.0,0.0,0.0,0.0,0.0,0.0,0.0,0.0,0.0,0.0,0.0,0.0,0.0,0.0,0.0,0.0,0.0,0.0,0.0,0.0,0.0,0.0,0.0,0.0,0.0,0.0,0.0,0.0,0.0,0.0,0.2565,0.2623,0.2414,0.2278,0.2268,0.2419,0.256,0.0,0.0,0.0,0.0,0.0,0.0,0.0,0.0,0.0,0.0,0.0,0.0,0.0,0.0,0.0,0.0,0.0,0.0,0.0,0.0,0.0,0.0,0.0,0.0,0.0,0.0,0.0,0.0,0.0,0.0,0.0,0.0,0.0,0.0,0.0,0.0,0.0,0.0,0.0,0.0,0.0,0.0,0.0,0.0,0.0,0.0,0.0,0.0,0.0,0.0,0.0,0.0,0.0,0.0,0.0,0.0,0.0,0.0,0.0,0.0,0.0,0.0,0.0,0.0,0.0,0.0,0.0,0.0,0.0,0.0,0.0,0.0,0.0,0.0,0.0,0.0,0.0,0.0,0.0,0.0,0.0,0.0,0.0,0.0,0.0,0.0,0.0,0.0,0.0,0.0,0.0,0.0,0.0,0.0,0.0,0.0,0.0,0.0,0.0,0.0,0.0,0.0,0.0,0.0,0.0,0.0,0.0,0.0,0.0,0.2361,0.2399,0.2339,0.2095,0.2381,0.2499,0.0,0.0,0.0,0.0,0.0,0.0,0.0,0.0,0.0,0.0,0.0,0.0,0.0,0.0,0.0,0.0,0.0,0.0,0.0,0.0,0.0,0.0,0.0,0.0,0.0,0.0,0.0,0.0,0.0,0.0,0.0,0.0,0.0,0.0,0.0,0.0,0.0,0.0,0.0,0.0,0.0,0.0,0.0,0.0,0.0,0.0,0.0,0.0,0.0,0.0,0.0,0.0,0.0,0.0,0.0,0.0,0.0,0.0,0.0,0.0,0.0,0.0,0.0,0.0,0.0,0.0,0.0,0.0,0.0,0.0,0.0,0.0,0.0,0.0,0.0,0.0,0.0,0.0,0.0,0.0,0.0,0.0,0.0,0.0,0.0,0.0,0.0,0.0,0.0,0.0,0.0,0.0,0.0,0.0,0.0,0.0,0.0,0.0,0.0,0.0,0.0,0.0,0.0,0.0,0.0,0.0,0.0,0.0,0.0,0.2053,0.2234,0.2241,0.2155,0.2279,0.2555,0.2819,0.0,0.0,0.0,0.0,0.0,0.0,0.0,0.0,0.0,0.0,0.0,0.0,0.0,0.0,0.0,0.0,0.0,0.0,0.0,0.0,0.0,0.0,0.0,0.0,0.0,0.0,0.0,0.0,0.0,0.0,0.0,0.0,0.0,0.0,0.0,0.0,0.0,0.0,0.0,0.0,0.0,0.0,0.0,0.0,0.0,0.0,0.0,0.0,0.0,0.0,0.0,0.0,0.0,0.0,0.0,0.0,0.0,0.0,0.0,0.0,0.0,0.0,0.0,0.0,0.0,0.0,0.0,0.0,0.0,0.0,0.0,0.0,0.0,0.0,0.0,0.0,0.0,0.0,0.0,0.0,0.0,0.0,0.0,0.0,0.0,0.0,0.0,0.0,0.0,0.0,0.0,0.0,0.0,0.0,0.0,0.0,0.0,0.0,0.0,0.0,0.0,0.0,0.0,0.0,0.0,0.0,0.0,0.0,0.1763,0.1916,0.2167,0.2431,0.2385,0.2593,0.0,0.0,0.0,0.0,0.0,0.0,0.0,0.0,0.0,0.0,0.0,0.0,0.0,0.0,0.0,0.0,0.0,0.0,0.0,0.0,0.0,0.0,0.0,0.0,0.0,0.0,0.0,0.0,0.0,0.0,0.0,0.0,0.0,0.0,0.0,0.0,0.0,0.0,0.0,0.0,0.0,0.0,0.0,0.0,0.0,0.0,0.0,0.0,0.0,0.0,0.0,0.0,0.0,0.0,0.0,0.0,0.0,0.0,0.0,0.0,0.0,0.0,0.0,0.0,0.0,0.0,0.0,0.0,0.0,0.0,0.0,0.0,0.0,0.0,0.0,0.0,0.0,0.0,0.0,0.0,0.0,0.0,0.0,0.0,0.0,0.0,0.0,0.0,0.0,0.0,0.0,0.0,0.0,0.0,0.0,0.0,0.0,0.0,0.0,0.0,0.0,0.0,0.0,0.0,0.0,0.0,0.0,0.0,0.0,0.1836,0.1757,0.1839,0.2069,0.2712,0.3138,0.0,0.0,0.0,0.0,0.0,0.0,0.0,0.0,0.0,0.0,0.0,0.0,0.0,0.0,0.0,0.0,0.0,0.0,0.0,0.0,0.0,0.0,0.0,0.0,0.0,0.0,0.0,0.0,0.0,0.0,0.0,0.0,0.0,0.0,0.0,0.0,0.0,0.0,0.0,0.0,0.0,0.0,0.0,0.0,0.0,0.0,0.0,0.0,0.0,0.0,0.0,0.0,0.0,0.0,0.0,0.0,0.0,0.0,0.0,0.0,0.0,0.0,0.0,0.0,0.0,0.0,0.0,0.0,0.0,0.0,0.0,0.0,0.0,0.0,0.0,0.0,0.0,0.0,0.0,0.0,0.0,0.0,0.0,0.0,0.0,0.0,0.0,0.0,0.0,0.0,0.0,0.0,0.0,0.0,0.0,0.0,0.0,0.0,0.0,0.0,0.0,0.0,0.0,0.0,0.0,0.0,0.0,0.0,0.2057,0.183,0.1644,0.1842,0.2202,0.2935,0.3334,0.0,0.0,0.0,0.0,0.0,0.0,0.0,0.0,0.0,0.0,0.0,0.0,0.0,0.0,0.0,0.0,0.0,0.0,0.0,0.0,0.0,0.0,0.0,0.0,0.0,0.0,0.0,0.0,0.0,0.0,0.0,0.0,0.0,0.0,0.0,0.0,0.0,0.0,0.0,0.0,0.0,0.0,0.0,0.0,0.0,0.0,0.0,0.0,0.0,0.0,0.0,0.0,0.0,0.0,0.0,0.0,0.0,0.0,0.0,0.0,0.0,0.0,0.0,0.0,0.0,0.0,0.0,0.0,0.0,0.0,0.0,0.0,0.0,0.0,0.0,0.0,0.0,0.0,0.0,0.0,0.0,0.0,0.0,0.0,0.0,0.0,0.0,0.0,0.0,0.0,0.0,0.0,0.0,0.0,0.0,0.0,0.0,0.0,0.0,0.0,0.0,0.0,0.0,0.0,0.0,0.0,0.0,0.0,0.1853,0.1707,0.1599,0.1919,0.2562,0.2956,0.3315,0.0,0.0,0.0,0.0,0.0,0.0,0.0,0.0,0.0,0.0,0.0,0.0,0.0,0.0,0.0,0.0,0.0,0.0,0.0,0.0,0.0,0.0,0.0,0.0,0.0,0.0,0.0,0.0,0.0,0.0,0.0,0.0,0.0,0.0,0.0,0.0,0.0,0.0,0.0,0.0,0.0,0.0,0.0,0.0,0.0,0.0,0.0,0.0,0.0,0.0,0.0,0.0,0.0,0.0,0.0,0.0,0.0,0.0,0.0,0.0,0.0,0.0,0.0,0.0,0.0,0.0,0.0,0.0,0.0,0.0,0.0,0.0,0.0,0.0,0.0,0.0,0.0,0.0,0.0,0.0,0.0,0.0,0.0,0.0,0.0,0.0,0.0,0.0,0.0,0.0,0.0,0.0,0.0,0.0,0.0,0.0,0.0,0.0,0.0,0.0,0.0,0.0,0.0,0.0,0.0,0.0,0.0,0.0,0.1967,0.1737,0.1716,0.1931,0.2611,0.3122,0.3473,0.0,0.0,0.0,0.0,0.0,0.0,0.0,0.0,0.0,0.0,0.0,0.0,0.0,0.0,0.0,0.0,0.0,0.0,0.0,0.0,0.0,0.0,0.0,0.0,0.0,0.0,0.0,0.0,0.0,0.0,0.0,0.0,0.0,0.0,0.0,0.0,0.0,0.0,0.0,0.0,0.0,0.0,0.0,0.0,0.0,0.0,0.0,0.0,-0.2069,0.0,0.0,0.0,0.0,0.0,0.0,0.0,0.0,0.0,0.0,0.0,0.0,0.0,0.0,0.0,0.0,0.0,0.0,0.0,0.0,0.0,0.0,0.0,0.0,0.0,0.0,0.0,0.0,0.0,0.0,0.0,0.0,0.0,0.0,0.0,0.0,0.0,0.0,0.0,0.0,0.0,0.0,0.0,0.0,0.0,0.0,0.0,0.0,0.0,0.0,0.0,0.0,0.0,0.0,0.0,0.0,0.0,0.0,0.0,0.1838,0.179,0.179,0.2015,0.2578,0.3026,0.3379,0.0,0.0,0.0,0.0,0.0,0.0,0.0,0.0,0.0,0.0,0.0,0.0,0.0,0.0,0.0,0.0,0.0,0.0,0.0,0.0,0.0,0.0,0.0,0.0,0.0,0.0,0.0,0.0,0.0,0.0,0.0,0.0,0.0,0.0,0.0,0.0,0.0,0.0,0.0,0.0,0.0,0.0,0.0,0.0,0.0,0.0,0.0,0.0,0.0,0.0,0.0,0.0,0.0,0.0,0.0,0.0,0.0,0.0,0.0,0.0,0.0,0.0,0.0,0.0,0.0,0.0,0.0,0.0,0.0,0.0,0.0,0.0,0.0,0.0,0.0,0.0,0.0,0.0,0.0,0.0,0.0,0.0,0.0,0.0,0.0,0.0,0.0,0.0,0.0,0.0,0.0,0.0,0.0,0.0,0.0,0.0,0.0,0.0,0.0,0.0,0.0,0.0,0.0,0.0,0.0,0.0,0.0,0.1963,0.1816,0.1846,0.1873,0.2107,0.2657,0.2871,0.3213,0.3708,0.0,0.0,0.0,0.0,0.0,0.0,0.0,0.0,0.0,0.0,0.0,0.0,0.0,0.0,0.0,0.0,0.0,0.0,0.0,0.0,0.0,0.0,0.0,0.0,0.0,0.0,0.0,0.0,0.0,0.0,0.0,0.0,0.0,0.0,0.0,0.0,0.0,0.0,-0.0328,-0.1463,0.0,0.0,0.0,0.0,0.0,0.0,0.0,0.0,-0.2835,0.0,0.0,0.0,0.0,0.0,0.0,0.0,0.0,0.0,0.0,0.0,0.0,0.0,0.0,0.0,0.0,0.0,0.0,0.0,0.0,0.0,0.0,0.0,0.0,0.0,0.0,0.0,0.0,0.0,0.0,0.0,0.0,0.0,0.0,0.0,0.0,0.0,0.0,0.0,0.0,0.0,0.0,0.0,0.0,0.0,0.0,0.0,0.0,0.0,0.0,0.0,0.0,0.0,0.0,0.0,0.0,0.2159,0.1909,0.1847,0.1877,0.1883,0.2002,0.2346,0.2515,0.3022,0.3633,0.0,0.0,0.0,0.0,0.0,0.0,0.0,0.0,0.0,0.0,0.0,0.0,0.0,0.0,0.0,0.0,0.0,0.0,0.0,0.0,0.0,0.0,0.0,0.0,0.0,0.0,0.0,0.0,0.0,0.0,0.0,0.0,0.0,0.0,0.0,0.0,0.0,0.0,0.0,-0.214,-0.2123,0.0,0.0,0.0,0.0,0.0,0.0,0.0,0.0,-0.2987,0.0,0.0,0.0,0.0,0.0,0.0,0.0,0.0,0.0,0.0,0.0,0.0,0.0,0.0,0.0,0.0,0.0,0.0,0.0,0.0,0.0,0.0,0.0,0.0,0.0,0.0,0.0,0.0,0.0,0.0,0.0,0.0,0.0,0.0,0.0,0.0,0.0,0.0,0.0,0.0,0.0,0.0,0.0,0.0,0.0,0.0,0.0,0.0,0.0,0.0,0.0,0.0,0.0,0.0,0.0,0.2049,0.1931,0.1872,0.1885,0.1885,0.2003,0.2239,0.2553,0.2864,0.0,0.0,0.0,0.0,0.0,0.0,0.0,0.0,0.0,0.0,0.0,0.0,0.0,0.0,0.0,0.0,0.0,0.0,0.0,0.0,0.0,0.0,0.0,0.0,0.0,0.0,0.0,0.0,0.0,0.0,0.0,0.0,0.0,0.0,0.0,0.0,0.0,0.0,0.0,0.0,-0.2224,-0.2308,-0.2149,0.0,0.0,0.0,0.0,0.0,0.0,-0.33,-0.3127,0.0,0.0,0.0,0.0,0.0,0.0,0.0,0.0,0.0,0.0,0.0,0.0,0.0,0.0,0.0,0.0,0.0,0.0,0.0,0.0,0.0,0.0,0.0,0.0,0.0,0.0,0.0,0.0,0.0,0.0,0.0,0.0,0.0,0.0,0.0,0.0,0.0,0.0,0.0,0.0,0.0,0.0,0.0,0.0,0.0,0.0,0.0,0.0,0.0,0.0,0.0,0.0,0.0,0.0,0.0,0.2057,0.1961,0.1902,0.1895,0.19,0.2021,0.225,0.2603,0.2934,0.0,0.0,0.0,0.0,0.0,0.0,0.0,0.0,0.0,0.0,0.0,0.0,0.0,0.0,0.0,0.0,0.0,0.0,0.0,0.0,0.0,0.0,0.0,0.0,0.0,0.0,0.0,0.0,0.0,0.0,0.0,0.0,0.0,0.0,0.0,0.0,0.0,0.0,0.0,0.0,0.0,-0.2478,-0.2345,-0.2801,0.0,0.0,0.0,0.0,-0.3375,-0.3442,0.0,0.0,0.0,0.0,0.0,0.0,0.0,0.0,0.0,0.0,0.0,0.0,0.0,0.0,0.0,0.0,0.0,0.0,0.0,0.0,0.0,0.0,0.0,0.0,0.0,0.0,0.0,0.0,0.0,0.0,0.0,0.0,0.0,0.0,0.0,0.0,0.0,0.0,0.0,0.0,0.0,0.0,0.0,0.0,0.0,0.0,0.0,0.0,0.0,0.0,0.0,0.0,0.0,0.0,0.0,0.0,0.1824,0.1918,0.1954,0.1929,0.1952,0.1954,0.1926,0.2526,0.2983,0.0,0.0,0.0,0.0,0.0,0.0,0.0,0.0,0.0,0.0,0.0,0.0,0.0,0.0,0.0,0.0,0.0,0.0,0.0,0.0,0.0,0.0,0.0,0.0,0.0,0.0,0.0,0.0,0.0,0.0,0.0,0.0,0.0,0.0,0.0,0.0,0.0,0.0,0.0,0.0,0.0,-0.256,-0.2611,-0.3131,-0.3651,0.0,0.0,-0.3838,-0.4023,-0.3616,0.0,0.0,0.0,0.0,0.0,0.0,0.0,0.0,0.0,0.0,0.0,0.0,0.0,0.0,0.0,0.0,0.0,0.0,0.0,0.0,0.0,0.0,0.0,0.0,0.0,0.0,0.0,0.0,0.0,0.0,0.0,0.0,0.0,0.0,0.0,0.0,0.0,0.0,0.0,0.0,0.0,0.0,0.0,0.0,0.0,0.0,0.0,0.0,0.0,0.0,0.0,0.0,0.0,0.0,0.0,0.2176,0.1816,0.1921,0.1962,0.1933,0.196,0.197,0.1956,0.2443,0.2766,0.0,0.0,0.0,0.0,0.0,0.0,0.0,0.0,0.0,0.0,0.0,0.0,0.0,0.0,0.0,0.0,0.0,0.0,0.0,0.0,0.0,0.0,0.0,0.0,0.0,0.0,0.0,0.0,0.0,0.0,0.0,0.0,0.0,0.0,0.0,0.0,0.0,0.0,0.0,0.0,0.0,0.0,-0.2686,-0.3416,0.0,0.0,0.0,-0.4136,-0.4303,0.0,0.0,0.0,0.0,0.0,0.0,0.0,0.0,0.0,0.0,0.0,0.0,0.0,0.0,0.0,0.0,0.0,0.0,0.0,0.0,0.0,0.0,0.0,0.0,0.0,0.0,0.0,0.0,0.0,0.0,0.0,0.0,0.0,0.0,0.0,0.0,0.0,0.0,0.0,0.0,0.0,0.0,0.0,0.0,0.0,0.0,0.0,0.0,0.0,0.0,0.0,0.0,0.0,0.0,0.0,0.0,0.0,0.1829,0.2054,0.2103,0.1966,0.1986,0.1999,0.1999,0.2354,0.0,0.0,0.0,0.0,0.0,0.0,0.0,0.0,0.0,0.0,0.0,0.0,0.0,0.0,0.0,0.0,0.0,0.0,0.0,0.0,0.0,0.0,0.0,0.0,0.0,0.0,0.0,0.2912,0.0,0.0,0.0,0.0,0.0,0.0,0.0,0.0,0.0,0.0,0.0,0.0,0.0,0.0,-0.2741,-0.2856,-0.3703,-0.4223,0.0,0.0,-0.4435,-0.4398,-0.369,-0.3128,0.0,0.0,0.0,0.0,0.0,0.0,0.0,0.0,0.0,0.0,0.0,0.0,0.0,0.0,0.0,0.0,0.0,0.0,0.0,0.0,0.0,0.0,0.0,0.0,0.0,0.0,0.0,0.0,0.0,0.0,0.0,0.0,0.0,0.0,0.0,0.0,0.0,0.0,0.0,0.0,0.0,0.0,0.0,0.0,0.0,0.0,0.0,0.0,0.0,0.0,0.0,0.0,0.0,0.0,0.0,0.1919,0.2233,0.2282,0.2053,0.2057,0.2059,0.2057,0.263,0.2958,0.0,0.0,0.0,0.0,0.0,0.0,0.0,0.0,0.0,0.0,0.0,0.0,0.0,0.0,0.0,0.0,0.0,0.0,0.0,0.0,0.0,0.0,0.0,0.0,0.0,0.0,0.0,0.0,0.0,0.0,0.0,0.0,0.0,0.0,0.0,0.0,0.0,0.0,0.0,0.0,0.0,-0.2923,-0.3093,-0.3889,-0.4447,0.0,0.0,-0.4774,-0.4352,-0.3492,-0.296,-0.3061,0.0,0.0,0.0,0.0,0.0,0.0,0.0,0.0,0.0,0.0,0.0,0.0,0.0,0.0,0.0,0.0,0.0,0.0,0.0,0.0,0.0,0.0,0.0,0.0,0.0,0.0,0.0,0.0,0.0,0.0,0.0,0.0,0.0,0.0,0.0,0.0,0.0,0.0,0.0,0.0,0.0,0.0,0.0,0.0,0.0,0.0,0.0,0.0,0.0,0.0,0.0,0.0,0.0,0.2424,0.217,0.2279,0.22,0.2065,0.2101,0.211,0.2223,0.2457,0.2921,0.0,0.0,0.0,0.0,0.0,0.0,0.0,0.0,0.0,0.0,0.0,0.0,0.0,0.0,0.0,0.0,0.0,0.0,0.0,0.0,0.0,0.0,0.0,0.0,0.0,0.0,0.0,0.0,0.1753,0.1257,0.1545,0.0,0.0,0.0,0.0,0.0,0.0,0.0,0.0,0.0,0.0,-0.2717,-0.3487,-0.392,0.0,0.0,-0.4668,-0.4429,-0.4157,-0.3396,-0.2876,-0.2827,-0.1155,0.0,0.0,0.0,0.0,0.0,0.0,0.0,0.0,0.0,0.0,0.0,0.0,0.0,0.0,0.0,0.0,0.0,0.0,0.0,0.0,0.0,0.0,0.0,0.0,0.0,0.0,0.0,0.0,0.0,0.0,0.0,0.0,0.0,0.0,0.0,0.0,0.0,0.0,0.0,0.0,0.0,0.0,0.0,0.0,0.0,0.0,0.0,0.0,0.0,0.0,0.0,0.0,0.2613,0.246,0.2319,0.2235,0.2091,0.2133,0.2144,0.2257,0.2501,0.3105,0.0,0.0,0.0,0.0,0.0,0.0,0.0,0.0,0.0,0.0,0.0,0.0,0.0,0.0,0.0,0.0,0.0,0.0,0.0,0.0,0.0,0.0,0.0,0.0,0.0,0.0,0.0,0.0,0.1492,0.0751,0.1365,0.0,0.0,0.0,0.0,0.0,0.0,0.0,0.0,0.0,0.0,-0.3005,-0.3785,-0.3965,-0.4264,-0.4558,-0.4438,-0.4192,-0.3822,-0.3178,-0.2667,-0.2295,0.0,0.0,0.0,0.0,0.0,0.0,0.0,0.0,0.0,0.0,0.0,0.0,0.0,0.0,0.0,0.0,0.0,0.0,0.0,0.0,0.0,0.0,0.0,0.0,0.0,0.0,0.0,0.0,0.0,0.0,0.0,0.0,0.0,0.0,0.0,0.0,0.0,0.0,0.0,0.0,0.0,0.0,0.0,0.0,0.0,0.0,0.0,0.0,0.0,0.0,0.0,0.0,0.0,0.2833,0.2575,0.2617,0.2524,0.2151,0.2154,0.2155,0.2154,0.2753,0.3507,0.4204,0.0,0.0,0.0,0.0,0.0,0.0,0.0,0.0,0.0,0.0,0.0,0.0,0.0,0.0,0.0,0.0,0.0,0.0,0.0,0.0,0.0,0.0,0.0,0.0,0.0,0.0,0.345,0.1454,0.0332,0.0,0.0,0.0,0.0,0.0,0.0,0.0,0.0,0.0,0.0,-0.3619,-0.3607,-0.3856,-0.4517,-0.4564,-0.4077,-0.3948,-0.3825,-0.3581,-0.2962,-0.2331,0.0,0.0,0.0,0.0,0.0,0.0,0.0,0.0,0.0,0.0,0.0,0.0,0.0,0.0,0.0,0.0,0.0,0.0,0.0,0.0,0.0,0.0,0.0,0.0,0.0,0.0,0.0,0.1802,0.1899,0.0,0.0,0.0,0.0,0.0,0.0,0.0,0.0,0.0,0.0,0.0,0.1839,0.1944,0.0,0.0,0.0,0.0,0.0,0.0,0.0,0.0,0.0,0.0,0.0,0.0,0.2755,0.2615,0.2412,0.231,0.2185,0.2204,0.2214,0.2213,0.2853,0.361,0.4481,0.0,0.0,0.0,0.0,0.0,0.0,0.0,0.0,0.0,0.0,0.0,0.0,0.0,0.0,0.0,0.0,0.0,0.0,0.0,0.0,0.0,0.0,0.0,0.0,0.0,0.4497,0.0,0.0,0.0,0.0,0.0,0.0,0.0,0.0,0.0,0.0,0.0,-0.4385,-0.3464,-0.3317,-0.3492,-0.4096,-0.4312,-0.4255,0.0,0.0,0.0,0.0,0.0,0.0,0.0,0.0,0.0,0.0,0.0,0.0,0.0,0.0,0.8756,0.8876,0.9694,1.0437,1.0852,0.0,0.0,0.0,0.0,0.0,0.0,0.0,0.0,0.0,0.0,0.0,0.0,0.0,0.0,0.0,0.0,0.1922,0.0,0.0,0.0,0.0,0.0,0.0,0.0,0.0,0.1068,0.0959,0.1218,0.146,0.1583,0.0,0.1797,0.2213,0.0,0.0,0.0,0.0,0.0,0.0,0.0,0.0,0.2834,0.2638,0.2316,0.2215,0.2217,0.2374,0.2384,0.2241,0.3196,0.4106,0.4684,0.4816,0.5008,0.0,0.0,0.0,0.0,0.0,0.0,0.0,0.0,0.0,0.0,0.0,0.0,0.0,0.0,0.0,0.0,0.0,0.0,0.0,0.0,0.0,0.0,0.0,0.4541,0.0,0.0,0.0,0.0,0.0,0.0,0.0,0.0,0.0,-0.3743,-0.4714,-0.5035,-0.3939,-0.3653,-0.3699,-0.4321,0.0,0.0,0.0,0.0,0.0,0.0,0.0,-0.0387,0.1032,0.232,0.3596,0.5086,0.6491,0.7734,0.8751,0.0,0.0,1.0168,1.0755,1.1663,1.2516,1.3315,1.4145,1.4639,1.4751,1.5142,0.0,0.0,0.0,0.0,0.0,0.0,0.0,0.0,0.1843,0.1743,0.0,0.1855,0.0,0.0,0.0,0.0,0.0,0.0,0.0,0.0,0.1129,0.051,0.0129,0.0644,0.1031,0.1031,0.1653,0.2023,0.2018,0.242,0.0,0.0,0.0,0.0,0.0,0.0,0.2677,0.2517,0.2341,0.2247,0.2247,0.2527,0.2666,0.2384,0.3645,0.4594,0.4809,0.4821,0.4946,0.5426,0.5356,0.0,0.0,0.0,0.0,0.0,0.0,0.0,0.0,0.0,0.0,0.0,0.0,0.0,0.0,0.0,0.0,0.0,0.0,0.0,0.0,0.5326,0.0,0.0,0.0,0.0,0.0,0.0,0.0,0.0,0.0,0.0,-0.3949,-0.4681,-0.5063,-0.494,0.0,0.0,0.0,0.0,-0.4128,-0.4128,-0.3618,-0.3362,-0.3233,-0.1421,0.0388,0.1421,0.0,0.0,0.5272,0.6686,0.8608,1.0933,1.1262,1.1324,1.1269,1.1603,1.233,1.4053,1.5173,1.6026,1.692,1.7649,1.8464,0.2813,0.0,0.0,0.0,0.0,0.2355,0.2239,0.1876,0.1918,0.1577,0.1219,0.1213,0.0,0.0,0.0,0.0,0.0,0.0,0.1127,0.051,0.0384,0.0129,0.0,0.0129,0.0258,0.0387,0.1429,0.1964,0.1984,0.1584,0.1687,0.2141,0.0,0.0,0.0,0.0,0.2579,0.2345,0.2253,0.2278,0.2136,0.2584,0.3014,0.3414,0.4264,0.4662,0.4597,0.4521,0.4533,0.4875,0.524,0.0,0.0,0.0,0.0,0.0,0.0,0.0,0.0,0.0,0.0,0.0,0.0,0.0,0.0,0.0,0.0,0.0,0.0,0.0,0.6602,0.5636,0.4767,0.0,0.0,0.0,0.0,0.0,0.0,0.0,0.0,0.0,-0.5112,-0.5129,-0.5157,0.0,0.0,-0.4766,-0.4383,-0.4034,-0.3668,-0.3406,0.0,0.0,0.0,-0.1064,0.0133,0.2658,0.4383,0.5954,0.7331,0.8356,0.9497,1.1337,1.1799,1.2215,1.3031,1.3301,1.4032,1.5724,1.6983,1.7865,1.8483,1.8968,1.9451,0.2539,0.2599,0.2574,0.2443,0.2202,0.2347,0.2221,0.1959,0.1621,0.1134,0.0507,0.0504,0.0634,0.0642,0.0886,0.0,0.0,0.0,0.0646,0.0,0.0,0.0,0.0,0.0,0.0,0.0,0.0808,0.1493,0.1917,0.1666,0.1655,0.1751,0.0,0.0,0.2199,0.2344,0.2359,0.2247,0.2286,0.2452,0.2596,0.3195,0.3778,0.4325,0.461,0.4723,0.4521,0.4482,0.4541,0.4809,0.5102,0.5408,0.0,0.0,0.0,0.0,0.0,0.0,0.0,0.0,0.0,0.0,0.0,0.545,0.5536,0.0,0.0,0.0,0.6712,0.6908,0.6598,0.5926,0.0,0.0,0.0,0.0,0.0,0.0,0.0,-0.4136,-0.5308,-0.6002,-0.5706,-0.5314,-0.5052,-0.4939,-0.4965,-0.4851,-0.4458,0.0,-0.372,-0.3457,-0.3214,-0.2425,-0.0943,0.0,0.148,0.3631,0.5242,0.6702,0.8239,0.9144,1.0293,1.1782,1.2644,1.3294,1.441,1.5032,1.5706,1.6963,1.8208,1.9249,1.982,2.0015,2.0468,0.2071,0.2071,0.2071,0.2068,0.2064,0.2064,0.2064,0.1935,0.1291,0.0651,0.0,0.0,0.0,0.0,0.0,0.0,0.0,0.0,0.0,0.0,0.0,0.0,0.0,0.0,0.0,0.0,0.0,0.056,0.1821,0.2132,0.2005,0.129,0.1985,0.224,0.2215,0.2263,0.2278,0.2253,0.2305,0.2624,0.3209,0.4228,0.4665,0.4665,0.4665,0.4638,0.4583,0.4575,0.4829,0.5045,0.5198,0.543,0.5463,0.0,0.0,0.0,0.0,0.0,0.0,0.0,0.0,0.0,0.0,0.0,0.0,0.0,0.0,0.0,0.671,0.0,0.6713,0.6062,0.0,0.0,0.0,0.2415,0.0773,-0.2294,-0.3944,-0.2962,0.0,0.0,-0.5675,0.0,-0.5085,-0.5284,-0.4933,-0.4839,-0.4839,-0.4166,-0.3768,-0.3763,-0.3365,-0.2561,-0.081,0.1488,0.3386,0.46,0.58,0.7018,0.8354,0.9558,1.0898,1.2492,1.3409,1.4367,1.5633,1.6674,1.762,1.7955,1.9083,2.0333,2.1136,2.1362,2.195,0.2133,0.2133,0.2133,0.2106,0.2064,0.2064,0.2064,0.2065,0.1305,0.0657,0.0,0.0,0.0,0.0,0.0,0.0,0.0,0.0,0.0,0.0,0.0,0.0,0.0,0.0,0.0,0.0,0.0,0.0138,0.0553,0.1698,0.2303,0.2179,0.2339,0.2331,0.2303,0.2294,0.2298,0.2312,0.2326,0.2625,0.3354,0.4228,0.4665,0.4665,0.4665,0.4657,0.4643,0.503,0.5115,0.5048,0.5709,0.588,0.5569,0.607,0.0,0.0,0.0,0.0,0.0,0.0,0.0,0.0,0.0,0.5728,0.5769,0.0,0.5874,0.0,0.6924,0.7117,0.6414,0.5968,0.0,0.0,0.3366,0.2313,0.0387,-0.2443,-0.4131,-0.3532,-0.4473,-0.5162,-0.5482,-0.5098,-0.4833,-0.4951,-0.483,-0.4708,-0.444,-0.3765,-0.3362,-0.3365,-0.283,-0.1893,-0.0273,0.2069,0.4164,0.5276,0.6379,0.7346,0.8158,0.9811,1.1467,1.2838,1.4052,1.5152,1.6146,1.7492,1.8783,1.9591,2.0797,2.2038,2.2818,2.3393,2.4119,0.2155,0.2155,0.2155,0.2143,0.2123,0.211,0.2104,0.2106,0.1326,0.0668,0.0,0.0,0.0,0.0,0.0,0.0,0.0,0.0,0.0,0.0,0.0,0.0,0.0,0.0,0.0,0.0,0.0,0.0,0.0,0.1312,0.2064,0.2375,0.2378,0.2376,0.2373,0.2357,0.2357,0.2373,0.267,0.3261,0.3856,0.4448,0.4733,0.4706,0.4997,0.5131,0.4956,0.5358,0.546,0.5421,0.5955,0.6019,0.5758,0.6161,0.6451,0.0,0.0,0.0,0.0,0.0,0.0,0.0,0.0,0.0,0.0,0.0,0.6414,0.0,0.6818,0.6573,0.6223,0.5647,0.497,0.4062,0.3501,0.2278,0.0134,-0.201,-0.3497,-0.3656,-0.4203,-0.462,-0.5201,-0.4931,-0.4658,-0.4795,-0.4795,-0.4649,-0.4354,-0.3684,-0.3289,-0.3426,-0.2742,-0.1375,0.0692,0.265,0.4348,0.5611,0.6585,0.7553,0.8094,0.9763,1.171,1.3093,1.4591,1.571,1.646,1.8123,1.978,2.1007,2.2136,2.3112,2.3753,2.4575,2.5448,0.2161,0.2161,0.2165,0.2181,0.2203,0.2177,0.2166,0.2166,0.1353,0.0681,0.0,0.0,0.0,0.0,0.0,0.0,0.0,0.0,0.0,0.0,0.0,0.0,0.0,0.0,0.0,0.0,0.0,0.0,0.0,0.0906,0.1663,0.2423,0.2401,0.2405,0.2433,0.2435,0.2432,0.2575,0.3179,0.3784,0.424,0.4542,0.482,0.492,0.5509,0.5628,0.5424,0.571,0.5856,0.5852,0.6228,0.6297,0.6074,0.6485,0.6651,0.0,0.6525,0.0,0.0,0.0,0.0,0.0,0.0,0.0,0.0,0.6382,0.6825,0.7548,0.6434,0.573,0.5876,0.5321,0.4765,0.4348,0.379,0.2386,0.014,-0.1403,-0.2666,-0.3645,-0.3787,-0.4065,-0.4759,-0.4622,-0.4622,-0.4756,-0.4625,-0.4335,-0.4298,-0.376,-0.3499,-0.3645,-0.2527,-0.0702,0.1686,0.3239,0.4656,0.6063,0.7055,0.7589,0.8004,0.9968,1.1927,1.3595,1.5257,1.6236,1.6649,1.8753,2.0649,2.1821,2.3092,2.4026,2.4393,2.5306,2.6103,0.2192,0.2193,0.2218,0.2232,0.2236,0.223,0.2228,0.2088,0.1392,0.0697,0.0,0.0,0.0,0.0,0.0,0.0,0.0,0.0,0.0,0.0,0.0,0.0,0.0,0.0,0.0,0.0,0.0,0.0,0.0,0.0891,0.1649,0.2424,0.2443,0.2467,0.2496,0.0,0.0,0.0,0.333,0.3784,0.424,0.4542,0.499,0.5428,0.5882,0.0,0.6012,0.6309,0.6608,0.6608,0.6896,0.0,0.0,0.0,0.0,0.0,0.0,0.0,0.0,0.0,0.0,0.0,0.6602,0.6525,0.6419,0.6566,0.668,0.6996,0.6295,0.5737,0.5464,0.5184,0.4625,0.3785,0.393,0.2948,0.0281,-0.1403,-0.2666,-0.3365,-0.3505,-0.3785,-0.4488,-0.4205,-0.4208,-0.4493,-0.4387,-0.4127,-0.412,-0.3808,-0.3507,-0.2947,-0.1273,0.0712,0.2133,0.3732,0.5483,0.7234,0.8093,0.8366,0.8341,1.0345,1.2806,1.5106,1.6215,1.6728,1.7436,1.9415,2.1258,2.1971,2.3515,2.5008,2.5546,2.6581,2.7621,0.2222,0.0,0.2238,0.2253,0.0,0.2267,0.2277,0.2145,0.1411,0.0704,0.0,0.0,0.0,0.0,0.0,0.0,0.0,0.0,0.0,0.0,0.0,0.0,0.0,0.0,0.0,0.0,0.0,0.0,0.0,0.0914,0.1686,0.2469,0.2484,0.2499,0.2514,0.2671,0.2966,0.3392,0.3854,0.4162,0.4622,0.4778,0.5072,0.5196,0.0,0.0,0.0,0.0,0.0,0.0,0.0,0.0,0.0,0.0,0.0,0.7206,0.7015,0.697,0.6925,0.6884,0.6998,0.714,0.7239,0.7174,0.6794,0.7017,0.723,0.6847,0.6279,0.5709,0.557,0.5003,0.4147,0.3573,0.2718,0.143,-0.0286,-0.1574,-0.2575,-0.3004,-0.329,-0.3573,-0.4284,-0.4287,-0.4287,-0.4287,-0.4166,-0.3898,-0.3609,-0.3447,-0.3002,-0.1716,0.0144,0.2021,0.3177,0.4204,0.568,0.7579,0.8444,0.8868,0.9285,1.0875,1.3047,1.5648,1.6622,1.7268,1.8068,1.99,2.176,2.2846,2.421,2.5562,2.6635,2.7567,2.8312,0.2253,0.2253,0.2259,0.2275,0.2298,0.2298,0.2168,0.2041,0.0,0.0,0.0,0.0,0.0,0.0,0.0,0.0,0.0,0.0,0.0,0.0,0.0,0.0,0.0,0.0,0.0,0.0,0.0,0.0155,0.0471,0.1099,0.1728,0.2357,0.2514,0.2514,0.2514,0.2983,0.3454,0.3768,0.4241,0.4554,0.5022,0.5022,0.5,0.5108,0.6502,0.693,0.625,0.7005,0.7309,0.7309,0.7309,0.7301,0.7288,0.7284,0.728,0.7264,0.7264,0.7264,0.741,0.7269,0.7327,0.7765,0.7977,0.7773,0.717,0.7451,0.763,0.7127,0.6261,0.5825,0.568,0.4665,0.3939,0.35,0.1312,-0.0291,-0.1021,-0.1751,-0.2477,-0.2917,-0.3205,-0.3646,-0.4075,-0.4221,-0.4374,-0.408,-0.3928,-0.3644,-0.3063,-0.2914,-0.2328,-0.0437,0.1164,0.2771,0.3939,0.4665,0.5683,0.7724,0.8444,0.9307,1.0455,1.1606,1.3333,1.579,1.6895,1.7689,1.8487,2.0328,2.2323,2.3871,2.4931,2.61,2.7435,2.8493,2.91,0.2285,0.2286,0.2311,0.2323,0.2327,0.2327,0.1893,0.1313,0.0436,0.0,0.0,0.0,0.0,0.0,0.0,0.0,0.0,0.0,0.0,0.0,0.0,0.0,0.0,0.0,0.0,0.0,0.0,0.0776,0.1884,0.157,0.1728,0.2357,0.2514,0.2514,0.2514,0.3297,0.3768,0.3768,0.4241,0.4554,0.5022,0.5022,0.5176,0.5639,0.6105,0.657,0.687,0.7178,0.7488,0.7488,0.7488,0.7456,0.7531,0.737,0.7341,0.7423,0.7415,0.7415,0.7716,0.7836,0.7968,0.8267,0.8402,0.8321,0.8,0.7399,0.7259,0.7421,0.6413,0.568,0.5244,0.4816,0.4092,0.3212,0.1313,-0.0292,-0.0876,-0.1753,-0.2485,-0.2776,-0.2917,-0.3356,-0.3944,-0.3944,-0.3946,-0.3939,-0.3512,-0.292,-0.2632,-0.248,-0.1752,-0.0292,0.1313,0.2333,0.2914,0.4078,0.5825,0.7715,0.8729,0.9446,1.0443,1.1886,1.3761,1.5772,1.7036,1.8121,1.9183,2.0882,2.2722,2.4417,2.5472,2.6501,2.7849,2.9151,3.0307,0.2313,0.2315,0.2327,0.2333,0.2334,0.235,0.2071,0.1638,0.0447,0.0,0.0,0.0,0.0,0.0,0.0,0.0,0.0,0.0,0.0,0.0,0.0,0.0,0.0,0.0,0.0,0.0,0.0,0.0929,0.2334,0.2036,0.22,0.2514,0.2514,0.2671,0.2826,0.3454,0.3925,0.4084,0.4554,0.4865,0.5022,0.5022,0.5179,0.5651,0.6118,0.6431,0.6904,0.7369,0.7525,0.7525,0.7525,0.7509,0.7468,0.7464,0.7602,0.8189,0.8026,0.8021,0.8329,0.8274,0.837,0.8469,0.8615,0.8576,0.8035,0.7725,0.7429,0.7429,0.6396,0.5799,0.5651,0.4763,0.3871,0.3425,0.134,-0.0298,-0.1042,-0.1786,-0.2383,-0.2681,-0.2977,-0.3274,-0.3423,-0.3871,-0.402,-0.3869,-0.3125,-0.2679,-0.2679,-0.253,-0.1629,0.0146,0.1166,0.1896,0.2624,0.3932,0.568,0.7575,0.8729,0.9585,1.0581,1.2173,1.3904,1.5763,1.7168,1.8412,1.9785,2.1321,2.301,2.4824,2.5876,2.6918,2.851,3.0455,3.2128,0.2333,0.2333,0.2341,0.2348,0.2354,0.2074,0.2094,0.2111,0.0603,0.0,0.0,0.0,0.0,0.0,0.0,0.0,0.0,0.0,0.0,0.0,0.0,0.0,0.0,0.0,0.0,0.0,0.0153,0.0927,0.2171,0.2347,0.2514,0.2514,0.2514,0.2671,0.3139,0.3611,0.3927,0.4397,0.4865,0.5022,0.5022,0.5022,0.5179,0.5651,0.6275,0.6587,0.6904,0.7213,0.7525,0.7525,0.7525,0.7525,0.7525,0.7681,0.7998,0.8632,0.8471,0.8466,0.8774,0.8857,0.8928,0.8692,0.8839,0.8844,0.8389,0.808,0.7599,0.7117,0.6197,0.5745,0.544,0.4688,0.3635,0.3181,0.0909,-0.0605,-0.1059,-0.1817,-0.2575,-0.2575,-0.3179,-0.3328,-0.3484,-0.3937,-0.4235,-0.3478,-0.3028,-0.2727,-0.2878,-0.2575,-0.1501,-0.0,0.103,0.2063,0.3237,0.4121,0.5593,0.7495,0.8669,0.9691,1.0692,1.228,1.4314,1.6215,1.748,1.8758,2.0426,2.1824,2.3528,2.5677,2.6753,2.7858,3.0153,3.2227,3.3867,0.2334,0.2337,0.2363,0.239,0.226,0.1642,0.1639,0.1941,0.0597,0.0,0.0,0.0,0.0,0.0,0.0,0.0,0.0,0.0,0.0,0.0,0.0,0.0,0.0,0.0,0.0,0.0,0.0767,0.1241,0.1565,0.2197,0.2514,0.2514,0.2514,0.2671,0.3139,0.3611,0.3927,0.4397,0.4865,0.5022,0.5022,0.5022,0.5179,0.5651,0.6751,0.7217,0.6744,0.7213,0.7525,0.7525,0.7525,0.7525,0.7525,0.7842,0.8315,0.8788,0.8783,0.8778,0.8778,0.9547,0.9682,0.9371,0.9051,0.9051,0.9532,0.8434,0.7273,0.6702,0.6057,0.5458,0.4542,0.4548,0.3949,0.2736,-0.0,-0.1817,-0.0758,-0.1514,-0.2727,-0.3181,-0.319,-0.3332,-0.3797,-0.3949,-0.3641,-0.3497,-0.3347,-0.3043,-0.2737,-0.2585,-0.2127,-0.0755,0.0906,0.2716,0.407,0.4675,0.5559,0.7519,0.887,0.9739,1.0755,1.2691,1.4965,1.7088,1.8301,1.9415,2.0864,2.2497,2.4341,2.6692,2.8212,2.9579,3.2441,3.4381,3.516,0.236,0.2363,0.2393,0.2423,0.2293,0.1523,0.1068,0.0922,0.0307,0.0,0.0,0.0,0.0,0.0,0.0,0.0,0.0,0.0,0.0,0.0,0.0,0.0,0.0,0.0,0.0,0.0,0.092,0.1237,0.14,0.2191,0.2514,0.2514,0.2514,0.2828,0.3454,0.3768,0.4081,0.4709,0.4865,0.5022,0.5022,0.5335,0.5648,0.6118,0.7064,0.7377,0.7213,0.7369,0.7525,0.7525,0.7686,0.7842,0.7525,0.8154,0.8783,0.9412,0.9558,0.9553,0.9558,0.9553,0.9397,0.909,0.8778,0.8622,0.8471,0.8159,0.7648,0.6505,0.6183,0.572,0.5103,0.4331,0.3713,0.2941,0.0619,-0.1083,-0.1547,-0.1702,-0.2013,-0.2787,-0.3251,-0.3403,-0.3558,-0.3867,-0.4022,-0.4178,-0.4022,-0.3865,-0.3558,-0.2941,-0.2322,-0.1703,0.0155,0.1998,0.3349,0.4089,0.5144,0.6653,0.8154,0.95,1.0847,1.2777,1.518,1.791,1.8759,1.9737,2.1414,2.2716,2.4593,2.7183,2.9797,3.1496,3.3653,3.508,3.6044,0.239,0.2395,0.2424,0.2454,0.2325,0.1545,0.0775,0.0,0.0,0.0,0.0,0.0,0.0,0.0,0.0,0.0,0.0,0.0,0.0,0.0,0.0,0.0,0.0,0.0,0.0305,0.0763,0.1387,0.1706,0.1707,0.2189,0.2514,0.2514,0.2671,0.2985,0.3768,0.3925,0.4238,0.4865,0.5022,0.5022,0.5179,0.5651,0.6121,0.6275,0.706,0.7533,0.7525,0.7525,0.7525,0.7686,0.7998,0.8159,0.7842,0.8622,0.9246,0.9874,0.9869,0.9864,0.9864,0.9558,0.9246,0.8778,0.8622,0.831,0.7998,0.8002,0.7533,0.6424,0.6275,0.5958,0.5022,0.4081,0.3454,0.3301,0.1256,-0.0628,-0.1885,-0.1728,-0.204,-0.2828,-0.329,-0.3611,-0.3611,-0.4234,-0.4857,-0.4701,-0.4706,-0.4397,-0.4241,-0.3295,-0.2668,-0.2514,-0.0628,0.0936,0.1996,0.3525,0.4739,0.5955,0.7794,0.9471,1.08,1.3071,1.5035,1.7423,1.8484,2.0072,2.1898,2.33,2.5371,2.8192,3.084,3.3053,3.4623,3.5982,3.7545,0.2423,0.2427,0.2454,0.2484,0.251,0.1706,0.0772,0.0,0.0,0.0,0.0,0.0,0.0,0.0,0.0,0.0,0.0,0.0,0.0,0.0,0.0,0.0,0.0,0.0,0.0771,0.2013,0.2187,0.2354,0.2354,0.2514,0.2514,0.2514,0.2826,0.3297,0.3768,0.4084,0.4552,0.5022,0.5022,0.5179,0.5651,0.6118,0.6275,0.6431,0.706,0.7533,0.7525,0.7525,0.7686,0.8315,0.8315,0.8315,0.8778,0.909,0.9553,0.9864,0.9708,0.9402,0.9558,0.9719,0.9563,0.8934,0.8466,0.8476,0.8476,0.8002,0.7217,0.6271,0.5962,0.5338,0.4238,0.3768,0.314,0.2671,0.1099,-0.0314,-0.1256,-0.2043,-0.2985,-0.3613,-0.3611,-0.3768,-0.4241,-0.5025,-0.5181,-0.4868,-0.4865,-0.4865,-0.4238,-0.3611,-0.314,-0.2514,-0.1728,-0.0628,0.1097,0.3118,0.4839,0.6078,0.7448,0.9351,1.1231,1.3098,1.5089,1.7065,1.8662,2.0292,2.2299,2.4502,2.7053,2.9612,3.2261,3.4364,3.574,3.7698,3.9128,0.2463,0.2482,0.2493,0.2504,0.2512,0.2189,0.1248,0.0,0.0,0.0,0.0,0.0,0.0,0.0,0.0,0.0,0.0,0.0,0.0,0.0,0.0,0.0,0.0,0.0,0.0958,0.2236,0.2548,0.2533,0.2515,0.2514,0.2514,0.2514,0.2983,0.3297,0.3768,0.4241,0.4554,0.5022,0.5335,0.5495,0.5651,0.6275,0.6744,0.6744,0.7217,0.7529,0.7525,0.7842,0.7998,0.8315,0.8622,0.8929,0.8929,0.9397,0.9869,0.9864,0.9553,0.9402,0.9402,0.9724,0.9568,0.8471,0.7998,0.7842,0.7842,0.7686,0.69,0.5802,0.486,0.4393,0.4238,0.3925,0.3299,0.2514,0.1256,-0.0157,-0.157,-0.2357,-0.2828,-0.3613,-0.3925,-0.4552,-0.5022,-0.5648,-0.5962,-0.5648,-0.5805,-0.5648,-0.5335,-0.4709,-0.3925,-0.314,-0.2199,-0.1256,0.0157,0.2668,0.4552,0.5645,0.7045,0.8599,1.0474,1.2488,1.4475,1.6779,1.8471,2.0575,2.2633,2.5702,2.8341,3.0643,3.3206,3.5002,3.6519,3.8262,3.9735,0.2496,0.2512,0.2514,0.2514,0.2517,0.2525,0.158,0.0,0.0,0.0,0.0,0.0,0.0,0.0,0.0,0.0,0.0,0.0,0.0,0.0,0.0,0.0,0.0,0.0652,0.1465,0.2439,0.2585,0.2559,0.2532,0.2529,0.2523,0.2514,0.2983,0.3611,0.3925,0.4395,0.4709,0.5022,0.5495,0.5651,0.5962,0.6591,0.6904,0.706,0.7529,0.7681,0.7686,0.7998,0.8315,0.8622,0.909,0.9397,0.9236,0.9708,1.0025,0.9864,0.9558,0.9402,0.9246,0.9412,0.91,0.8315,0.7842,0.7525,0.7529,0.7529,0.6744,0.5645,0.4703,0.4236,0.4081,0.3925,0.3456,0.2828,0.1728,0.0157,-0.157,-0.2043,-0.2671,-0.3613,-0.4711,-0.5335,-0.5805,-0.6275,-0.6587,-0.6587,-0.6587,-0.6587,-0.6431,-0.5645,-0.4865,-0.3925,-0.2826,-0.1884,-0.0471,0.1413,0.3454,0.4709,0.6271,0.7985,0.9853,1.1863,1.403,1.6339,1.8623,2.0714,2.3523,2.6736,2.9202,3.1384,3.3466,3.5412,3.7038,3.866,4.0301,0.2514,0.2514,0.2515,0.2518,0.2522,0.2389,0.144,0.0,0.0,0.0,0.0,0.0,0.0,0.0,0.0,0.0,0.0,0.0,0.0,0.0,0.0,0.0,0.0,0.1641,0.2449,0.2609,0.2607,0.2589,0.2562,0.2559,0.2545,0.2675,0.3303,0.3931,0.4241,0.4709,0.5022,0.5179,0.5492,0.5965,0.6275,0.6758,0.7076,0.7546,0.7863,0.8181,0.8172,0.8324,0.8641,0.9266,0.9422,0.9563,0.9896,0.9907,0.9735,0.9589,0.9417,0.91,0.8954,0.8646,0.8498,0.8172,0.7694,0.7381,0.7377,0.7377,0.7064,0.6121,0.5335,0.4552,0.3925,0.3768,0.3613,0.3301,0.1886,0.0471,-0.0628,-0.1256,-0.2042,-0.3927,-0.5181,-0.5965,-0.6431,-0.7056,-0.7369,-0.7217,-0.7369,-0.7369,-0.706,-0.6275,-0.5335,-0.4865,-0.3922,-0.2825,-0.1413,0.0157,0.2042,0.3768,0.5492,0.7209,0.9231,1.125,1.3414,1.5573,1.8369,2.0631,2.4433,2.7524,2.9873,3.2173,3.4029,3.6152,3.8016,3.9858,4.1172,0.2514,0.2517,0.2537,0.2545,0.239,0.1288,0.0486,0.0,0.0,0.0,0.0,0.0,0.0,0.0,0.0,0.0,0.0,0.0,0.0,0.0,0.0,0.0,0.0,0.1836,0.2657,0.2639,0.2635,0.2619,0.2594,0.2589,0.2572,0.2707,0.3337,0.3957,0.4245,0.4709,0.5179,0.5492,0.5962,0.6298,0.6821,0.7145,0.7489,0.7697,0.8193,0.8673,0.8983,0.908,0.9397,0.9616,0.9951,1.011,1.011,0.9631,0.9631,0.9951,0.9152,0.8833,0.8988,0.8344,0.7995,0.7798,0.7307,0.7114,0.6911,0.6751,0.6281,0.5498,0.4709,0.4081,0.3925,0.3297,0.2985,0.2828,0.1413,-0.0157,-0.1728,-0.2512,-0.314,-0.3768,-0.5179,-0.6275,-0.7056,-0.7686,-0.8154,-0.8154,-0.831,-0.831,-0.8154,-0.7525,-0.6896,-0.6271,-0.5176,-0.3927,-0.2518,-0.1104,0.0631,0.268,0.4564,0.6605,0.8632,1.0503,1.267,1.547,1.8276,2.1348,2.5012,2.8203,3.0598,3.3019,3.5238,3.7371,3.9312,4.0976,4.2271,0.2532,0.2534,0.2563,0.2575,0.2419,0.0815,0.0,0.0,0.0,0.0,0.0,0.0,0.0,0.0,0.0,0.0,0.0,0.0,0.0,0.0,0.0,0.0,0.0,0.1515,0.235,0.2669,0.2665,0.2647,0.262,0.2781,0.3092,0.3546,0.402,0.433,0.4614,0.5068,0.5382,0.5877,0.6336,0.6673,0.7054,0.7713,0.7898,0.794,0.8599,0.9269,0.9779,0.9889,1.003,1.0056,1.0384,1.0384,1.0384,0.9895,0.9738,0.9733,0.9411,0.8926,0.8603,0.8271,0.7774,0.7565,0.7233,0.6734,0.6529,0.636,0.5884,0.509,0.4594,0.4108,0.3792,0.3621,0.2987,0.2514,0.1413,-0.0471,-0.2357,-0.314,-0.3611,-0.4238,-0.5648,-0.6904,-0.7686,-0.8622,-0.8934,-0.9246,-0.9402,-0.9402,-0.9241,-0.8774,-0.7994,-0.7213,-0.5955,-0.4716,-0.3632,-0.2373,-0.0951,0.1424,0.3636,0.5843,0.7889,0.9787,1.1829,1.5957,1.9131,2.1907,2.5458,2.8729,3.1513,3.3836,3.6228,3.8366,4.0193,4.1904,4.3379,0.256,0.2566,0.2593,0.2605,0.2448,0.0824,0.0,0.0,0.0,0.0,0.0,0.0,0.0,0.0,0.0,0.0,0.0,0.0,0.0,0.0,0.0,0.0,0.0,0.1178,0.1849,0.252,0.2688,0.2675,0.265,0.2981,0.3954,0.5055,0.472,0.4877,0.518,0.5623,0.5786,0.5981,0.6588,0.7072,0.7309,0.7965,0.8297,0.7981,0.9126,0.9988,1.0394,1.0558,1.0509,1.0427,1.0433,1.0443,1.0416,1.0411,0.9941,0.9298,0.944,0.8968,0.831,0.8002,0.7986,0.7321,0.6993,0.6827,0.6324,0.6149,0.5826,0.518,0.4821,0.4316,0.3672,0.3652,0.3315,0.2361,0.0943,-0.0786,-0.3144,-0.314,-0.3452,-0.4706,-0.6278,-0.7846,-0.8627,-0.9558,-1.0025,-1.0175,-1.033,-1.0336,-1.0052,-0.9589,-0.8636,-0.7867,-0.711,-0.6026,-0.5109,-0.3837,-0.2402,-0.016,0.2236,0.4626,0.7485,0.956,1.2095,1.6111,1.9678,2.2639,2.5783,2.8973,3.1762,3.4173,3.6455,3.8908,4.0985,4.2794,4.4526,0.2571,0.2593,0.2623,0.2637,0.2477,0.1501,0.0502,0.0,0.0,0.0,0.0,0.0,0.0,0.0,0.0,0.0,0.0,0.0,0.0,0.0,0.0,0.0,0.1514,0.1515,0.185,0.2524,0.2692,0.2688,0.2682,0.3181,0.4163,0.5278,0.4941,0.4918,0.5204,0.568,0.5997,0.6337,0.6809,0.7317,0.7717,0.8225,0.8752,0.8985,0.9642,1.0154,1.0693,1.0688,1.0683,1.065,1.0645,1.0645,1.0463,0.9968,0.9633,0.9633,0.8976,0.8654,0.8322,0.7987,0.7631,0.7577,0.6909,0.6394,0.6344,0.5854,0.5529,0.5037,0.4212,0.3561,0.3561,0.3227,0.2087,0.0,-0.0949,-0.2045,-0.314,-0.3452,-0.3607,-0.4231,-0.6275,-0.8324,-1.0057,-1.1155,-1.1622,-1.1293,-1.1293,-1.1467,-1.1227,-1.0785,-1.0155,-0.9606,-0.8852,-0.7573,-0.6458,-0.5336,-0.3723,-0.1781,0.0647,0.3236,0.6619,1.0003,1.2874,1.6406,1.9253,2.2142,2.5865,2.9288,3.1857,3.438,3.6746,3.9191,4.1829,4.3984,4.5669,0.2607,0.2623,0.2654,0.2667,0.2502,0.1679,0.0839,0.0,0.0,0.0,0.0,0.0,0.0,0.0,0.0,0.0,0.0,0.0,0.0,0.0,0.0,0.1667,0.2352,0.202,0.2187,0.2692,0.2692,0.2692,0.2859,0.3365,0.4358,0.5174,0.5166,0.5145,0.5613,0.6073,0.6404,0.6913,0.7226,0.7733,0.8148,0.8654,0.9004,0.9559,1.007,1.057,1.0737,1.0732,1.0737,1.0732,1.0732,1.057,1.0404,1.007,0.9736,0.9574,0.8901,0.8733,0.8399,0.7897,0.7543,0.7334,0.6659,0.6308,0.5949,0.5443,0.5278,0.4786,0.4108,0.377,0.311,0.1958,0.0,-0.1934,-0.3362,-0.4128,-0.4245,-0.394,-0.4261,-0.5052,-0.6968,-0.9381,-1.1773,-1.2725,-1.2869,-1.2705,-1.2554,-1.2752,-1.2641,-1.2179,-1.1727,-1.1011,-1.0087,-0.8783,-0.7506,-0.6214,-0.4598,-0.2628,0.0164,0.2626,0.5884,0.9805,1.3085,1.6021,1.9003,2.1952,2.5518,2.9064,3.1847,3.4416,3.6885,3.951,4.2074,4.4595,4.6358,0.2649,0.2654,0.2682,0.2692,0.2523,0.1682,0.0837,0.0,0.0,0.0,0.0,0.0,0.0,0.0,0.0,0.0,0.0,0.0,0.0,0.0,0.1476,0.2667,0.2524,0.2525,0.2524,0.2692,0.2692,0.2692,0.2861,0.3532,0.4374,0.5206,0.5376,0.5717,0.6022,0.6487,0.6998,0.7353,0.7813,0.8144,0.854,0.9049,0.9388,0.9216,1.0232,1.057,1.0737,1.0737,1.0737,1.0737,1.0737,1.057,1.0237,1.057,1.007,0.9072,0.8901,0.8733,0.8232,0.7897,0.7562,0.7052,0.6727,0.6233,0.5723,0.5552,0.5214,0.4707,0.4836,0.3815,0.2151,-0.0,-0.1958,-0.3419,-0.5045,-0.595,-0.5877,-0.4923,-0.4631,-0.6228,-0.8536,-1.0844,-1.2816,-1.4106,-1.4556,-1.4102,-1.4124,-1.4328,-1.4221,-1.3771,-1.3164,-1.2243,-1.1126,-0.9825,-0.8557,-0.7278,-0.5319,-0.3336,-0.0167,0.2664,0.5628,0.9104,1.263,1.5639,1.8188,2.1413,2.5003,2.8359,3.1363,3.4255,3.659,3.9201,4.1813,4.4436,4.6493,0.2661,0.2683,0.269,0.2692,0.2524,0.1682,0.084,0.0,0.0,0.0,0.0,0.0,0.0,0.0,0.0,0.0,0.0,0.0,0.0,0.0,0.1809,0.2665,0.2688,0.2692,0.2692,0.2692,0.2692,0.2692,0.2861,0.3532,0.4539,0.5384,0.5717,0.6053,0.6214,0.6874,0.7205,0.7558,0.8211,0.8373,0.8553,0.9402,0.9397,0.8883,0.9893,1.057,1.0737,1.0737,1.0737,1.0737,1.0737,1.057,1.0404,1.0242,0.9741,0.924,0.8566,0.8399,0.8064,0.757,0.7063,0.7081,0.645,0.5796,0.5963,0.5623,0.5282,0.4592,0.3881,0.2345,0.0669,-0.1658,-0.33,-0.461,-0.5564,-0.6499,-0.6949,-0.6458,-0.6297,-0.7585,-0.9537,-1.1993,-1.577,-1.6267,-1.6393,-1.5688,-1.5712,-1.6082,-1.5819,-1.5392,-1.4622,-1.3683,-1.2553,-1.1247,-0.9783,-0.8161,-0.5846,-0.3858,-0.0839,0.2015,0.4843,0.8169,1.1357,1.4511,1.7284,2.0695,2.4099,2.712,3.0098,3.3112,3.6275,3.8912,4.1488,4.4116,4.6603,0.2677,0.2691,0.2692,0.2692,0.2524,0.1682,0.0842,0.0,0.0,0.0,0.0,0.0,0.0,0.0,0.0,0.0,0.0,0.0,0.0,0.0,0.1482,0.2159,0.2673,0.2686,0.2692,0.2692,0.3029,0.2861,0.3027,0.37,0.471,0.5384,0.5717,0.6053,0.6389,0.7059,0.7562,0.8064,0.8403,0.8733,0.9063,0.9569,1.007,0.9555,1.0226,1.0732,1.0737,1.0732,1.0737,1.0737,1.0737,1.057,1.0404,1.0242,0.9913,0.9072,0.8738,0.8429,0.8113,0.7458,0.7134,0.7166,0.6356,0.5853,0.5676,0.5493,0.5133,0.3924,0.1863,-0.0336,-0.1681,-0.3182,-0.4669,-0.5496,-0.6463,-0.7588,-0.8561,-0.7868,-0.7344,-0.8811,-1.1312,-1.3987,-1.6478,-1.7907,-1.8068,-1.7414,-1.7244,-1.7611,-1.7476,-1.6888,-1.609,-1.5139,-1.4016,-1.2701,-1.1208,-0.9045,-0.6536,-0.4365,-0.2015,0.0672,0.3352,0.6693,1.0049,1.3019,1.6147,1.941,2.2797,2.5819,2.8983,3.2353,3.5515,3.8457,4.1205,4.3841,4.6177,0.2692,0.2692,0.2692,0.2692,0.2524,0.1682,0.0842,0.0,0.0,0.0,0.0,0.0,0.0,0.0,0.0,0.0,0.0,0.0,0.0,0.0,0.1154,0.1992,0.2501,0.2683,0.2692,0.2861,0.3197,0.3195,0.3363,0.4036,0.5046,0.5552,0.5549,0.6221,0.6724,0.7227,0.7897,0.8571,0.8905,0.9068,0.9564,0.9903,1.0237,1.0398,1.0565,1.0732,1.0732,1.0732,1.0726,1.0737,1.0586,1.043,1.0435,1.044,1.0106,0.8932,0.8791,0.8501,0.8037,0.7711,0.7395,0.6772,0.6268,0.5741,0.5207,0.5004,0.4465,0.2559,0.0339,-0.2355,-0.3701,-0.4705,-0.5544,-0.6382,-0.7558,-0.9063,-1.0034,-0.9448,-0.9563,-1.0716,-1.3234,-1.5779,-1.7819,-1.9307,-1.9336,-1.9346,-1.9153,-1.8981,-1.8827,-1.8337,-1.751,-1.6353,-1.5201,-1.3562,-1.1736,-0.9893,-0.7216,-0.5206,-0.3023,-0.084,0.168,0.4863,0.8207,1.2032,1.5162,1.8426,2.1512,2.4539,2.7848,3.1574,3.4636,3.7435,4.0453,4.3404,4.5727,0.2692,0.2692,0.2692,0.2692,0.2524,0.1682,0.0842,0.0,0.0,0.0,0.0,0.0,0.0,0.0,0.0,0.0,0.0,0.0,0.0825,0.165,0.1822,0.1996,0.2509,0.2686,0.2861,0.3197,0.3365,0.3533,0.3868,0.4372,0.5382,0.6221,0.6389,0.6724,0.7394,0.8064,0.8403,0.8905,0.9407,0.9736,0.9736,1.0232,1.057,1.0737,1.0732,1.0742,1.0748,1.0737,1.0732,1.0742,1.0498,1.0371,1.0556,1.0562,1.0058,0.9375,0.874,0.8272,0.7964,0.7623,0.7111,0.6441,0.5952,0.543,0.4881,0.4509,0.3788,0.1707,-0.0508,-0.2861,-0.4204,-0.5382,-0.6221,-0.7227,-0.8733,-1.0232,-1.122,-1.2008,-1.2953,-1.4281,-1.5835,-1.7199,-1.9048,-2.0538,-2.0832,-2.08,-2.0779,-2.0596,-2.0444,-1.9795,-1.8818,-1.7665,-1.6353,-1.4383,-1.2247,-1.0232,-0.8056,-0.6214,-0.4199,-0.2352,0.0336,0.3187,0.653,1.02,1.3851,1.713,2.02,2.3253,2.6738,3.05,3.3532,3.6423,3.941,4.2365,4.5094,0.2692,0.2692,0.2692,0.2692,0.2524,0.1682,0.0842,0.0,0.0,0.0,0.0,0.0,0.0,0.0,0.0,0.0,0.0,0.0,0.0,0.2158,0.2332,0.2167,0.2677,0.2686,0.3027,0.3365,0.3533,0.37,0.4036,0.5043,0.5885,0.6556,0.6892,0.7227,0.7729,0.8403,0.8905,0.924,0.9741,1.0075,1.007,1.057,1.0737,1.0737,1.0742,1.0764,1.0824,1.0829,1.0699,1.0588,1.0641,1.0496,1.0345,1.0376,1.0214,0.9664,0.8831,0.8358,0.7872,0.7709,0.7024,0.6356,0.5657,0.4936,0.4376,0.3993,0.2747,0.0,-0.2198,-0.4036,-0.4875,-0.605,-0.7227,-0.8733,-1.007,-1.1397,-1.2886,-1.4031,-1.5679,-1.7673,-1.9558,-2.0395,-2.0517,-2.1503,-2.2117,-2.2256,-2.2234,-2.2061,-2.205,-2.1254,-2.0282,-1.8818,-1.7337,-1.5373,-1.3397,-1.1564,-0.9226,-0.7216,-0.5208,-0.336,-0.1008,0.1846,0.5033,0.8716,1.2191,1.5491,1.8923,2.2144,2.578,2.9264,3.2657,3.5849,3.8524,4.132,4.421,0.2692,0.2692,0.2692,0.2692,0.2524,0.1851,0.101,0.0,0.0,0.0,0.0,0.0,0.0,0.0,0.0,0.0,0.0,0.0,0.0,0.2179,0.2523,0.2688,0.268,0.2852,0.3207,0.3533,0.4038,0.4036,0.4204,0.5379,0.6392,0.6895,0.723,0.7562,0.8232,0.8571,0.9072,0.9574,0.9903,1.0242,1.0581,1.0742,1.0753,1.0775,1.077,1.0829,1.0774,1.0954,1.0822,1.0548,1.0594,1.062,1.0116,1.002,1.0034,0.9797,0.8913,0.8607,0.8121,0.7787,0.7095,0.6222,0.5493,0.4589,0.3842,0.3098,0.1869,-0.2023,-0.4038,-0.5214,-0.5882,-0.7056,-0.8395,-0.9903,-1.1231,-1.2561,-1.421,-1.5687,-1.7328,-1.9682,-2.2448,-2.326,-2.2832,-2.3108,-2.3728,-2.3852,-2.3828,-2.3348,-2.3187,-2.2705,-2.1577,-1.9967,-1.8328,-1.6517,-1.4713,-1.3224,-1.0887,-0.8553,-0.6714,-0.4703,-0.2183,0.0504,0.3858,0.7045,1.0211,1.3507,1.7267,2.0867,2.438,2.8019,3.1775,3.4971,3.7524,4.0513,4.3454,0.2692,0.2692,0.2692,0.2694,0.2695,0.2527,0.1516,0.0,0.0,0.0,0.0,0.0,0.0,0.0,0.0,0.0,0.0,0.0,0.0,0.17,0.2388,0.2729,0.2727,0.3072,0.3396,0.3885,0.4378,0.4372,0.4539,0.5547,0.6727,0.7573,0.7566,0.7729,0.8571,0.8905,0.924,0.9903,1.0075,1.0247,1.0581,1.0759,1.0813,1.0873,1.108,1.113,1.0714,1.0907,1.0929,1.0437,1.0165,1.0374,1.0575,0.9428,0.893,0.8748,0.857,0.8393,0.8033,0.7844,0.6925,0.6021,0.5288,0.4544,0.345,0.2215,0.0506,-0.2189,-0.404,-0.5555,-0.6902,-0.824,-0.9569,-1.092,-1.2458,-1.377,-1.5081,-1.7164,-1.897,-2.0753,-2.3377,-2.4243,-2.4431,-2.4886,-2.534,-2.5302,-2.5263,-2.4798,-2.4344,-2.3716,-2.2774,-2.1015,-1.9404,-1.7754,-1.5908,-1.4412,-1.2395,-1.0055,-0.8048,-0.6044,-0.3694,-0.1008,0.2014,0.5198,0.8369,1.1535,1.4982,1.8732,2.2613,2.6279,2.9898,3.3247,3.6257,3.9389,4.2827,0.185,0.185,0.185,0.2188,0.2695,0.2697,0.1011,-0.1011,0.0,0.0,0.0,0.0,0.0,0.0,0.0,0.0,0.0,0.0,0.0,0.1379,0.2245,0.2763,0.2936,0.328,0.3605,0.4085,0.4579,0.5071,0.5395,0.6056,0.7063,0.7905,0.8068,0.8232,0.8738,0.924,0.9574,0.9756,0.9958,1.0335,1.0519,1.0567,1.0625,1.0677,1.0683,1.0746,1.082,1.0851,1.0719,1.0234,1.0126,0.9964,0.9796,0.9295,0.896,0.8603,0.8421,0.8037,0.7821,0.7821,0.6898,0.5608,0.47,0.3614,0.2039,0.0845,-0.0673,-0.3532,-0.5583,-0.712,-0.8146,-0.954,-1.0922,-1.2452,-1.393,-1.5279,-1.6626,-1.8496,-2.0382,-2.2179,-2.3948,-2.5013,-2.6053,-2.6427,-2.656,-2.652,-2.648,-2.6149,-2.5404,-2.4505,-2.3399,-2.197,-2.0498,-1.8862,-1.7156,-1.5467,-1.3749,-1.1397,-0.9226,-0.7383,-0.5376,-0.2687,0.0503,0.3692,0.7038,1.0029,1.2847,1.6777,2.1018,2.4514,2.8004,3.1373,3.4865,3.8997,4.2666,0.1178,0.0337,0.0841,0.1347,0.2022,0.2022,0.0168,-0.236,-0.1348,0.0,0.0,0.0,0.0,0.0,0.0,0.0,0.0,0.0515,0.0865,0.1567,0.227,0.2795,0.2969,0.3315,0.382,0.4121,0.4979,0.5634,0.6268,0.6755,0.726,0.8076,0.8236,0.8571,0.8901,0.9072,0.9412,0.9637,1.0063,1.0279,1.0465,1.0355,1.0406,1.0437,1.0462,1.0503,1.0771,1.0791,1.049,0.9997,1.0194,1.0016,0.9313,0.9317,0.8964,0.8607,0.8246,0.7847,0.7633,0.7254,0.6507,0.5222,0.3444,0.1879,0.0,-0.0676,-0.1696,-0.4592,-0.7177,-0.8573,-0.9607,-1.0517,-1.1715,-1.3435,-1.5153,-1.6713,-1.8255,-2.0081,-2.1723,-2.3161,-2.4796,-2.6483,-2.7324,-2.7908,-2.7969,-2.7741,-2.7541,-2.7209,-2.6507,-2.5499,-2.4425,-2.3177,-2.1861,-2.0372,-1.8653,-1.6743,-1.4991,-1.2925,-1.0742,-0.8558,-0.6717,-0.4031,-0.1007,0.2348,0.5533,0.8202,1.0859,1.5139,1.9248,2.2922,2.6423,2.9992,3.3631,3.7904,4.2644,0.0674,-0.2358,-0.0674,0.0168,0.0168,0.0168,-0.0842,-0.2695,-0.2528,-0.1515,0.0,0.0,0.0,0.0,0.0,0.0,0.0,0.0,0.1922,0.1937,0.2295,0.2826,0.3178,0.3701,0.4213,0.4522,0.5383,0.6212,0.6846,0.717,0.7638,0.8085,0.8265,0.8747,0.8919,0.8778,0.915,0.9554,1.0169,1.0563,1.0574,1.0432,1.0125,1.0549,1.0925,1.0802,0.9655,1.0184,1.0362,0.9496,0.9852,1.0035,0.9683,0.9322,0.8964,0.8425,0.8086,0.7513,0.7122,0.676,0.6021,0.4365,0.2245,-0.0172,-0.2057,-0.2417,-0.3635,-0.5531,-0.8137,-0.9889,-1.0574,-1.1262,-1.2515,-1.4428,-1.6347,-1.8058,-1.976,-2.1747,-2.3211,-2.4152,-2.5677,-2.7606,-2.8767,-2.9234,-2.9122,-2.8891,-2.8556,-2.8207,-2.7499,-2.6483,-2.5552,-2.4435,-2.3275,-2.1755,-2.0219,-1.8271,-1.6116,-1.4187,-1.1969,-1.009,-0.806,-0.52,-0.2686,0.0503,0.3521,0.6199,0.9036,1.3164,1.7267,2.1168,2.5161,2.9049,3.3528,3.8203,4.3024,-0.0337,-0.2694,-0.2525,-0.1851,-0.0842,-0.0842,-0.1515,-0.2525,-0.2694,-0.202,-0.0674,0.0,0.0,0.0,0.0,0.0,0.0,0.0,0.2299,0.2492,0.2678,0.3034,0.339,0.3917,0.4436,0.4751,0.5791,0.6286,0.6397,0.7252,0.7585,0.7886,0.8344,0.8492,0.8492,0.8705,0.9099,0.9492,1.0096,1.0334,1.0,1.059,1.0641,1.0318,0.9614,0.9988,1.0026,0.9852,0.9852,0.9674,0.9674,0.9678,0.9688,0.9326,0.8611,0.7904,0.7574,0.7221,0.6473,0.6111,0.5357,0.3382,0.0706,-0.2107,-0.3667,-0.3855,-0.4889,-0.6802,-0.927,-1.1052,-1.1906,-1.2295,-1.3397,-1.5481,-1.7379,-1.9266,-2.1129,-2.2976,-2.4495,-2.5477,-2.707,-2.8855,-2.985,-3.063,-3.0336,-2.9925,-2.9572,-2.9086,-2.8357,-2.762,-2.6682,-2.5545,-2.4365,-2.3213,-2.1663,-1.9456,-1.7263,-1.531,-1.3385,-1.1473,-0.9426,-0.755,-0.4865,-0.1509,0.1678,0.4356,0.7361,1.1186,1.5467,2.0241,2.4539,2.8584,3.3293,3.8393,4.3073,-0.2018,-0.3197,-0.3871,-0.3365,-0.2018,-0.185,-0.2187,-0.2861,-0.2692,-0.2361,-0.1691,-0.1015,-0.0681,-0.0515,0.0,0.0,0.0,0.1595,0.2497,0.2687,0.2871,0.3231,0.359,0.3943,0.4287,0.4974,0.5676,0.6177,0.6638,0.7334,0.7653,0.7972,0.8473,0.8448,0.8774,0.9012,0.9412,0.9614,0.9859,1.0092,0.9582,0.9983,1.0382,0.9847,0.9487,0.9308,0.9852,0.9674,0.9496,0.9496,0.9496,0.95,0.933,0.8986,0.8098,0.7588,0.6906,0.6589,0.6209,0.5263,0.4148,0.144,-0.018,-0.2868,-0.4646,-0.4989,-0.5687,-0.7784,-1.0278,-1.2226,-1.2904,-1.3292,-1.4541,-1.6617,-1.9287,-2.1373,-2.2568,-2.4268,-2.564,-2.6837,-2.8419,-2.9578,-3.0383,-3.1167,-3.1048,-3.0662,-2.9857,-2.9514,-2.9033,-2.8441,-2.7662,-2.6658,-2.5481,-2.431,-2.3132,-2.0857,-1.8639,-1.6334,-1.4542,-1.272,-1.0981,-0.8923,-0.6885,-0.369,-0.0503,0.2348,0.5858,0.9692,1.4504,1.9835,2.4246,2.9064,3.3863,3.8838,4.2587,-0.404,-0.4378,-0.4378,-0.404,-0.3533,-0.2861,-0.3029,-0.3367,-0.3033,-0.271,-0.256,-0.2393,-0.2066,-0.1391,-0.0701,0.0,0.0,0.0893,0.1974,0.2693,0.2874,0.3231,0.3411,0.3766,0.4301,0.502,0.5722,0.6402,0.6882,0.7585,0.7899,0.8054,0.8415,0.859,0.9043,0.9467,0.9693,0.936,0.9264,0.9646,0.9655,0.9313,0.95,0.95,0.95,0.9322,0.95,0.9496,0.9317,0.9317,0.9514,0.9344,0.899,0.8882,0.8182,0.7286,0.6436,0.6288,0.6291,0.4766,0.2378,-0.0366,-0.1651,-0.329,-0.4919,-0.5633,-0.67,-0.899,-1.1309,-1.2875,-1.3565,-1.4245,-1.582,-1.7755,-2.0434,-2.2924,-2.4109,-2.5263,-2.6613,-2.7799,-2.881,-2.9816,-3.0651,-3.1482,-3.1632,-3.1241,-3.0455,-2.9926,-2.9689,-2.8994,-2.8338,-2.7512,-2.6305,-2.5313,-2.3915,-2.2086,-2.0055,-1.7716,-1.5717,-1.421,-1.2228,-1.0136,-0.7749,-0.5376,-0.2517,0.0671,0.4356,0.8202,1.4002,1.9795,2.5345,3.0146,3.483,3.8977,4.2601,-0.4038,-0.4206,-0.4544,-0.4712,-0.4712,-0.387,-0.37,-0.3705,-0.3391,-0.307,-0.274,-0.2757,-0.2611,-0.2283,-0.2118,-0.1774,-0.1429,-0.0,0.1077,0.2694,0.2874,0.3052,0.3231,0.3768,0.4305,0.5022,0.5736,0.6091,0.6065,0.7303,0.7836,0.7825,0.8345,0.8542,0.8703,0.8905,0.8918,0.8922,0.9126,0.9322,0.9143,0.9326,0.9326,0.9317,0.9322,0.9322,0.9326,0.9322,0.9335,0.9165,0.9545,0.9234,0.9071,0.8961,0.772,0.6816,0.5943,0.4872,0.3764,0.207,0.1127,-0.1125,-0.2996,-0.4852,-0.726,-0.7013,-0.8438,-1.0183,-1.2448,-1.3807,-1.4462,-1.5652,-1.7039,-1.8636,-2.1128,-2.3821,-2.5554,-2.6494,-2.7474,-2.8473,-2.9481,-3.0651,-3.1662,-3.1662,-3.1828,-3.1828,-3.1164,-3.0651,-3.026,-2.9397,-2.8728,-2.8096,-2.7084,-2.6091,-2.4691,-2.3038,-2.1402,-1.9552,-1.7562,-1.6073,-1.3885,-1.1396,-0.8786,-0.6398,-0.3698,-0.0839,0.3852,0.8698,1.4317,2.0038,2.4964,2.9683,3.3932,3.8234,4.229,-0.4875,-0.5043,-0.5046,-0.5384,-0.572,-0.4878,-0.438,-0.4231,-0.3752,-0.3433,-0.3116,-0.2965,-0.2815,-0.2837,-0.2846,-0.2494,-0.2335,-0.0718,0.018,0.1976,0.2335,0.2693,0.305,0.359,0.3949,0.4843,0.538,0.5739,0.5912,0.717,0.7881,0.8056,0.825,0.8595,0.8595,0.8599,0.8599,0.8778,0.8964,0.8964,0.8964,0.8969,0.9326,0.9143,0.9143,0.9326,0.933,0.9348,0.9191,0.9392,0.9445,0.9143,0.9177,0.8492,0.724,0.6145,0.5254,0.3973,0.2091,-0.0,-0.114,-0.3231,-0.4958,-0.6464,-0.8112,-0.8408,-0.9793,-1.171,-1.3745,-1.4715,-1.5704,-1.6888,-1.7912,-1.9333,-2.2005,-2.4695,-2.624,-2.7187,-2.7812,-2.881,-2.9816,-3.0984,-3.2159,-3.1994,-3.1828,-3.1843,-3.1677,-3.1331,-3.0651,-2.9788,-2.8937,-2.8292,-2.763,-2.6456,-2.5263,-2.3858,-2.2375,-2.1059,-1.9228,-1.7417,-1.5391,-1.2866,-1.0208,-0.7428,-0.4712,-0.1175,0.4354,0.9521,1.4482,1.9066,2.356,2.8244,3.2877,3.7194,4.1446,-0.6727,-0.6727,-0.6221,-0.6392,-0.656,-0.5894,-0.5253,-0.4786,-0.428,-0.3985,-0.3529,-0.3175,-0.3019,-0.3046,-0.2872,-0.2513,-0.1795,-0.0718,-0.018,0.0359,0.1257,0.1974,0.2692,0.3052,0.3769,0.4128,0.4666,0.5204,0.5741,0.6633,0.7531,0.8071,0.825,0.8429,0.8429,0.8607,0.8607,0.8607,0.8607,0.8607,0.8786,0.8607,0.8786,0.8964,0.9147,0.9335,0.9361,0.9401,0.9445,0.9308,0.919,0.9228,0.8716,0.8028,0.6369,0.527,0.4744,0.3044,0.1144,-0.0954,-0.3051,-0.4768,-0.6868,-0.7052,-0.7589,-0.9403,-1.1156,-1.2883,-1.475,-1.5846,-1.6961,-1.7605,-1.8252,-2.0558,-2.3053,-2.4992,-2.6544,-2.7526,-2.815,-2.881,-2.9649,-3.0651,-3.1662,-3.1828,-3.1662,-3.1662,-3.1497,-3.1013,-3.0332,-2.9621,-2.8937,-2.8642,-2.7812,-2.6965,-2.5604,-2.4407,-2.3342,-2.2021,-2.023,-1.8225,-1.6363,-1.418,-1.1141,-0.8162,-0.5566,-0.151,0.4523,0.9359,1.3665,1.8054,2.227,2.7167,3.1967,3.6165,4.0248,-0.6727,-0.6727,-0.656,-0.6727,-0.707,-0.6951,-0.6309,-0.5306,-0.5209,-0.4746,-0.4065,-0.3917,-0.3755,-0.3411,-0.305,-0.2693,-0.2515,-0.1976,-0.1077,-0.0359,0.0359,0.1616,0.2334,0.2872,0.3411,0.3949,0.4487,0.4666,0.5562,0.6276,0.6815,0.7535,0.7889,0.8067,0.825,0.8429,0.8607,0.8607,0.8607,0.8607,0.8607,0.8607,0.879,0.8973,0.916,0.9182,0.9608,0.9277,0.9139,0.939,0.9103,0.8967,0.8796,0.7733,0.6258,0.4367,0.3429,0.2098,0.0572,-0.0572,-0.2477,-0.572,-0.801,-0.8952,-0.9294,-1.0362,-1.25,-1.4401,-1.5731,-1.6999,-1.7697,-1.8479,-1.9324,-2.1445,-2.3754,-2.5494,-2.6859,-2.7682,-2.8318,-2.9146,-2.9983,-3.0651,-3.1662,-3.1497,-3.1482,-3.1316,-3.0998,-3.0665,-3.0165,-2.9453,-2.895,-2.8642,-2.7981,-2.6978,-2.6286,-2.5092,-2.4064,-2.2826,-2.1018,-1.9213,-1.7543,-1.5145,-1.1915,-0.8556,-0.5087,-0.0337,0.5033,0.9364,1.2847,1.6777,2.0986,2.6029,3.0867,3.5092,3.9389,-0.7227,-0.7227,-0.7063,-0.7245,-0.7462,-0.8081,-0.7615,-0.6592,-0.632,-0.5836,-0.5157,-0.5008,-0.4666,-0.4126,-0.3409,-0.2871,-0.2872,-0.2693,-0.2154,-0.1436,-0.0359,0.0539,0.1616,0.2513,0.3231,0.3769,0.4128,0.4487,0.5204,0.592,0.6458,0.7173,0.7531,0.7889,0.8067,0.825,0.8429,0.8607,0.8607,0.8611,0.8611,0.8794,0.8981,0.9191,0.902,0.9617,0.9694,0.9173,0.9237,0.93,0.9011,0.8872,0.8315,0.6838,0.4952,0.324,0.2097,0.0763,-0.0953,-0.2286,-0.3812,-0.6098,-0.8956,-0.9896,-1.0441,-1.1141,-1.3826,-1.6088,-1.7041,-1.8144,-1.8655,-1.9361,-2.0761,-2.2341,-2.4086,-2.6007,-2.7004,-2.7994,-2.8824,-2.9663,-3.0499,-3.1164,-3.1497,-3.1316,-3.1316,-3.115,-3.0817,-3.0332,-2.983,-2.9314,-2.8964,-2.881,-2.7981,-2.7148,-2.6468,-2.5604,-2.4578,-2.3204,-2.1618,-1.9981,-1.8694,-1.5956,-1.2515,-0.8252,-0.3745,0.0677,0.4729,0.8219,1.1694,1.5623,1.9705,2.4623,2.9314,3.3914,3.8175,-0.806,-0.8064,-0.757,-0.7635,-0.7726,-0.8918,-0.8816,-0.7949,-0.76,-0.7105,-0.6445,-0.6097,-0.5562,-0.5022,-0.4126,-0.3409,-0.3409,-0.323,-0.3052,-0.2874,-0.1436,-0.0179,0.0718,0.1796,0.2872,0.3231,0.359,0.3949,0.4126,0.5022,0.6458,0.7173,0.7352,0.7531,0.7889,0.8246,0.8429,0.8786,0.8807,0.8819,0.899,0.9173,0.9375,0.9273,0.9667,1.0072,0.9429,0.9317,0.9385,0.9044,0.87,0.8561,0.7043,0.5522,0.3429,0.1906,0.0763,-0.0953,-0.267,-0.4192,-0.5905,-0.7809,-0.9901,-1.0838,-1.138,-1.2112,-1.4434,-1.7214,-1.8338,-1.9071,-1.9581,-2.0725,-2.1936,-2.3402,-2.5216,-2.661,-2.7615,-2.8547,-2.9425,-3.0236,-3.0651,-3.1316,-3.1316,-3.115,-3.115,-3.115,-3.0651,-2.9998,-2.9495,-2.8978,-2.881,-2.8655,-2.8177,-2.733,-2.6626,-2.5775,-2.4921,-2.3548,-2.1995,-2.0598,-1.9315,-1.638,-1.2947,-0.849,-0.4128,-0.0171,0.3741,0.7263,1.0737,1.4489,1.8713,2.3206,2.7749,3.239,3.7029,-0.806,-0.8068,-0.7969,-0.8256,-0.8748,-0.9154,-0.9396,-0.9455,-0.9282,-0.8401,-0.717,-0.6815,-0.6637,-0.5918,-0.538,-0.4843,-0.4485,-0.3947,-0.359,-0.305,-0.2153,-0.1077,0.0,0.1616,0.2694,0.2872,0.3052,0.3411,0.3768,0.5022,0.6097,0.6279,0.6815,0.7531,0.7531,0.7889,0.8607,0.8981,0.9204,0.9243,0.9441,0.9445,0.9467,0.9721,1.0133,0.9811,0.9322,0.9178,0.9052,0.8531,0.7985,0.7049,0.5527,0.4002,0.2669,0.1525,-0.0381,-0.2479,-0.4194,-0.5718,-0.7046,-0.8759,-1.0465,-1.1396,-1.2322,-1.3251,-1.5038,-1.7636,-1.9473,-2.0196,-2.0763,-2.1947,-2.3152,-2.4672,-2.6175,-2.7207,-2.8406,-2.9248,-3.0071,-3.0629,-3.1028,-3.115,-3.0984,-3.0984,-3.0998,-3.0665,-2.9983,-2.9481,-2.916,-2.8642,-2.8473,-2.8487,-2.8359,-2.7695,-2.6808,-2.5933,-2.5092,-2.3892,-2.2514,-2.1139,-1.9756,-1.5745,-1.1789,-0.8582,-0.4698,-0.1037,0.2746,0.6639,1.0136,1.3569,1.7629,2.2166,2.6397,3.0882,3.5519,-0.806,-0.8076,-0.8203,-0.8684,-0.9338,-0.9749,-0.9983,-1.0026,-1.0209,-0.9496,-0.8246,-0.7885,-0.7527,-0.717,-0.6637,-0.592,-0.538,-0.5022,-0.4126,-0.3588,-0.287,-0.1795,-0.0359,0.0898,0.1616,0.2154,0.2872,0.3231,0.3947,0.4664,0.5562,0.6637,0.7352,0.7531,0.7352,0.825,0.8811,0.9383,0.9626,0.9867,0.9917,0.9926,0.9945,1.0009,0.987,0.9728,0.9219,0.9065,0.8712,0.8178,0.7429,0.6479,0.5147,0.3813,0.2287,0.0763,-0.1335,-0.3434,-0.5339,-0.6669,-0.7612,-0.9703,-1.1595,-1.2716,-1.3245,-1.4351,-1.7119,-1.9733,-2.1345,-2.2091,-2.2412,-2.3379,-2.4436,-2.5747,-2.7172,-2.8564,-2.9349,-3.0055,-3.0764,-3.1,-3.1189,-3.0984,-3.0832,-3.0665,-3.0499,-3.0332,-2.9663,-2.9314,-2.8824,-2.8487,-2.8318,-2.815,-2.819,-2.7682,-2.6978,-2.6116,-2.5433,-2.4224,-2.2859,-2.0771,-1.8681,-1.4548,-1.0615,-0.8293,-0.5627,-0.2272,0.156,0.5507,0.9036,1.234,1.6592,2.1135,2.5358,2.9529,3.4197,-0.8076,-0.8121,-0.8281,-0.8752,-0.955,-1.017,-1.0392,-1.0387,-1.0565,-1.0209,-0.9317,-0.8956,-0.8421,-0.7889,-0.7531,-0.6815,-0.6099,-0.5559,-0.4843,-0.3947,-0.3409,-0.2512,-0.1616,-0.0359,0.0898,0.1795,0.2693,0.359,0.4664,0.5022,0.592,0.7538,0.7717,0.7356,0.8437,0.8811,0.902,0.9644,1.0081,1.034,1.0567,1.0416,1.0254,1.011,0.9781,0.9633,0.9114,0.8759,0.8375,0.7809,0.6862,0.572,0.4004,0.2478,0.1334,-0.0572,-0.2288,-0.4196,-0.5911,-0.7242,-0.8944,-1.0834,-1.2722,-1.4027,-1.4364,-1.6204,-1.8963,-2.1182,-2.281,-2.3774,-2.4085,-2.4685,-2.5583,-2.6869,-2.8452,-2.9635,-3.0391,-3.0952,-3.1179,-3.1572,-3.1154,-3.092,-3.068,-3.0346,-3.0179,-3.0012,-2.9495,-2.916,-2.8655,-2.8487,-2.8318,-2.815,-2.7994,-2.7487,-2.6796,-2.6286,-2.5421,-2.4235,-2.2859,-2.024,-1.7613,-1.44,-1.1566,-0.9446,-0.6561,-0.3351,0.0351,0.4181,0.7757,1.1272,1.5599,2.0025,2.4061,2.8403,3.2776,-0.815,-0.8121,-0.8399,-0.8845,-0.9637,-1.0209,-1.0748,-1.1099,-1.1277,-1.0743,-1.003,-0.9674,-0.9317,-0.8429,-0.8429,-0.7892,-0.6991,-0.6273,-0.5557,-0.4664,-0.3947,-0.3231,-0.2154,-0.0718,0.0898,0.1975,0.2693,0.305,0.4305,0.5022,0.5559,0.6454,0.7713,0.8281,0.9617,0.9812,0.9658,1.0292,1.0557,1.0821,1.1207,1.1243,1.0727,1.0583,1.0441,0.9496,0.8751,0.8375,0.7809,0.7242,0.6482,0.5149,0.3242,0.0763,-0.1144,-0.1716,-0.3623,-0.5527,-0.7052,-0.7999,-0.9703,-1.2345,-1.404,-1.5355,-1.6255,-1.7343,-1.9948,-2.2586,-2.4011,-2.4969,-2.5507,-2.6021,-2.6925,-2.8309,-2.9988,-3.0571,-3.1322,-3.1512,-3.19,-3.1622,-3.1116,-3.0898,-3.0542,-3.036,-2.9816,-2.9663,-2.916,-2.8655,-2.8487,-2.8318,-2.815,-2.7981,-2.7981,-2.7474,-2.6796,-2.6273,-2.5421,-2.4224,-2.2675,-2.025,-1.7622,-1.5161,-1.2674,-1.0002,-0.7321,-0.4267,-0.053,0.3522,0.6979,1.072,1.4614,1.8746,2.2819,2.7182,3.1676]}]]